Wetterdaten: Mittwoch, 11.11.2015
Datum Zeit Temp. A. Feuchte A. Luftdruck Regen Wind Richtung Richtung Sonnenschein ET UV Solar Taupunkt Windchill Windben Empfang
11.11.2015 00:00 12,8 C 67 % 1024,1 hPa 0,0 l/m 2,9 km/h (1 Bft) SW 227 0 min 0,000 mm 0,0 UV-I 0 W/m 6,8 C 12,8 C 4,8 km/h (1 Bft) 100,00 %
11.11.2015 00:02 12,8 C 67 % 1024,1 hPa 0,0 l/m 1,8 km/h (1 Bft) SW 229 0 min 0,000 mm 0,0 UV-I 0 W/m 6,8 C 12,8 C 3,2 km/h (1 Bft) 95,35 %
11.11.2015 00:03 12,7 C 67 % 1024,1 hPa 0,0 l/m 1,6 km/h (1 Bft) W 261 0 min 0,000 mm 0,0 UV-I 0 W/m 6,7 C 12,7 C 3,2 km/h (1 Bft) 100,00 %
11.11.2015 00:04 12,7 C 67 % 1024,1 hPa 0,0 l/m 1,6 km/h (1 Bft) W 264 0 min 0,000 mm 0,0 UV-I 0 W/m 6,7 C 12,7 C 3,2 km/h (1 Bft) 100,00 %
11.11.2015 00:05 12,7 C 67 % 1024,1 hPa 0,0 l/m 1,8 km/h (1 Bft) W 271 0 min 0,000 mm 0,0 UV-I 0 W/m 6,7 C 12,7 C 4,8 km/h (1 Bft) 95,83 %
11.11.2015 00:06 12,7 C 67 % 1024,1 hPa 0,0 l/m 1,0 km/h (0 Bft) W 271 0 min 0,000 mm 0,0 UV-I 0 W/m 6,7 C 12,7 C 3,2 km/h (1 Bft) 100,00 %
11.11.2015 00:07 12,6 C 68 % 1024,1 hPa 0,0 l/m 1,9 km/h (1 Bft) W 271 0 min 0,000 mm 0,0 UV-I 0 W/m 6,9 C 12,6 C 3,2 km/h (1 Bft) 100,00 %
11.11.2015 00:08 12,6 C 68 % 1024,1 hPa 0,0 l/m 0,6 km/h (0 Bft) W 271 0 min 0,000 mm 0,0 UV-I 0 W/m 6,9 C 12,6 C 1,6 km/h (1 Bft) 100,00 %
11.11.2015 00:09 12,5 C 68 % 1024,2 hPa 0,0 l/m 2,0 km/h (1 Bft) W-SW 241 0 min 0,000 mm 0,0 UV-I 0 W/m 6,8 C 12,5 C 3,2 km/h (1 Bft) 100,00 %
11.11.2015 00:10 12,5 C 68 % 1024,2 hPa 0,0 l/m 2,3 km/h (1 Bft) SW 223 0 min 0,000 mm 0,0 UV-I 0 W/m 6,8 C 12,5 C 3,2 km/h (1 Bft) 95,65 %
11.11.2015 00:11 12,4 C 68 % 1024,2 hPa 0,0 l/m 3,4 km/h (1 Bft) SW 232 0 min 0,000 mm 0,0 UV-I 0 W/m 6,7 C 12,4 C 4,8 km/h (1 Bft) 100,00 %
11.11.2015 00:12 12,4 C 68 % 1024,2 hPa 0,0 l/m 3,8 km/h (1 Bft) SW 234 0 min 0,000 mm 0,0 UV-I 0 W/m 6,7 C 12,4 C 6,4 km/h (2 Bft) 100,00 %
11.11.2015 00:13 12,4 C 69 % 1024,1 hPa 0,0 l/m 3,8 km/h (1 Bft) S-SW 209 0 min 0,000 mm 0,0 UV-I 0 W/m 6,9 C 12,4 C 6,4 km/h (2 Bft) 100,00 %
11.11.2015 00:14 12,5 C 68 % 1024,1 hPa 0,0 l/m 4,3 km/h (1 Bft) SW 232 0 min 0,000 mm 0,0 UV-I 0 W/m 6,8 C 12,5 C 6,4 km/h (2 Bft) 100,00 %
11.11.2015 00:15 12,5 C 68 % 1024,1 hPa 0,0 l/m 3,9 km/h (1 Bft) SW 225 0 min 0,000 mm 0,0 UV-I 0 W/m 6,8 C 12,5 C 4,8 km/h (1 Bft) 96,15 %
11.11.2015 00:16 12,6 C 68 % 1024,1 hPa 0,0 l/m 2,9 km/h (1 Bft) SW 224 0 min 0,000 mm 0,0 UV-I 0 W/m 6,9 C 12,6 C 4,8 km/h (1 Bft) 100,00 %
11.11.2015 00:17 12,6 C 68 % 1024,1 hPa 0,0 l/m 2,5 km/h (1 Bft) W-SW 247 0 min 0,000 mm 0,0 UV-I 0 W/m 6,9 C 12,6 C 4,8 km/h (1 Bft) 100,00 %
11.11.2015 00:18 12,7 C 68 % 1024,1 hPa 0,0 l/m 1,0 km/h (0 Bft) W-SW 247 0 min 0,000 mm 0,0 UV-I 0 W/m 6,9 C 12,7 C 3,2 km/h (1 Bft) 100,00 %
11.11.2015 00:19 12,6 C 68 % 1024,1 hPa 0,0 l/m 2,4 km/h (1 Bft) SW 225 0 min 0,000 mm 0,0 UV-I 0 W/m 6,9 C 12,6 C 4,8 km/h (1 Bft) 100,00 %
11.11.2015 00:20 12,7 C 68 % 1024,1 hPa 0,0 l/m 2,3 km/h (1 Bft) SW 225 0 min 0,000 mm 0,0 UV-I 0 W/m 6,9 C 12,7 C 3,2 km/h (1 Bft) 95,83 %
11.11.2015 00:21 12,7 C 67 % 1024,1 hPa 0,0 l/m 2,5 km/h (1 Bft) SW 225 0 min 0,000 mm 0,0 UV-I 0 W/m 6,7 C 12,7 C 4,8 km/h (1 Bft) 96,15 %
11.11.2015 00:22 12,7 C 68 % 1024,1 hPa 0,0 l/m 1,0 km/h (0 Bft) SW 225 0 min 0,000 mm 0,0 UV-I 0 W/m 6,9 C 12,7 C 1,6 km/h (1 Bft) 100,00 %
11.11.2015 00:23 12,7 C 68 % 1024,1 hPa 0,0 l/m 0,3 km/h (0 Bft) SW 225 0 min 0,000 mm 0,0 UV-I 0 W/m 6,9 C 12,7 C 1,6 km/h (1 Bft) 100,00 %
11.11.2015 00:24 12,7 C 68 % 1024,1 hPa 0,0 l/m 0,6 km/h (0 Bft) SW 225 0 min 0,000 mm 0,0 UV-I 0 W/m 6,9 C 12,7 C 1,6 km/h (1 Bft) 100,00 %
11.11.2015 00:25 12,7 C 68 % 1024,0 hPa 0,0 l/m 2,2 km/h (1 Bft) SW 225 0 min 0,000 mm 0,0 UV-I 0 W/m 6,9 C 12,7 C 3,2 km/h (1 Bft) 100,00 %
11.11.2015 00:26 12,7 C 67 % 1024,0 hPa 0,0 l/m 4,2 km/h (1 Bft) SW 221 0 min 0,000 mm 0,0 UV-I 0 W/m 6,7 C 12,7 C 4,8 km/h (1 Bft) 100,00 %
11.11.2015 00:27 12,7 C 67 % 1024,0 hPa 0,0 l/m 4,4 km/h (1 Bft) SW 227 0 min 0,000 mm 0,0 UV-I 0 W/m 6,7 C 12,7 C 6,4 km/h (2 Bft) 96,15 %
11.11.2015 00:28 12,7 C 67 % 1024,0 hPa 0,0 l/m 4,6 km/h (1 Bft) SW 223 0 min 0,000 mm 0,0 UV-I 0 W/m 6,7 C 12,7 C 6,4 km/h (2 Bft) 100,00 %
11.11.2015 00:29 12,8 C 67 % 1023,9 hPa 0,0 l/m 3,5 km/h (1 Bft) S-SW 211 0 min 0,000 mm 0,0 UV-I 0 W/m 6,8 C 12,8 C 6,4 km/h (2 Bft) 100,00 %
11.11.2015 00:30 12,8 C 67 % 1023,9 hPa 0,0 l/m 4,3 km/h (1 Bft) S-SW 200 0 min 0,000 mm 0,0 UV-I 0 W/m 6,8 C 12,8 C 6,4 km/h (2 Bft) 100,00 %
11.11.2015 00:31 12,8 C 67 % 1023,9 hPa 0,0 l/m 4,8 km/h (1 Bft) SW 231 0 min 0,000 mm 0,0 UV-I 0 W/m 6,8 C 12,8 C 6,4 km/h (2 Bft) 100,00 %
11.11.2015 00:32 12,8 C 67 % 1023,8 hPa 0,0 l/m 3,6 km/h (1 Bft) SW 214 0 min 0,000 mm 0,0 UV-I 0 W/m 6,8 C 12,8 C 4,8 km/h (1 Bft) 100,00 %
11.11.2015 00:33 12,8 C 67 % 1023,8 hPa 0,0 l/m 3,8 km/h (1 Bft) S-SW 209 0 min 0,000 mm 0,0 UV-I 0 W/m 6,8 C 12,8 C 4,8 km/h (1 Bft) 100,00 %
11.11.2015 00:34 12,8 C 67 % 1023,8 hPa 0,0 l/m 5,0 km/h (1 Bft) SW 217 0 min 0,000 mm 0,0 UV-I 0 W/m 6,8 C 12,8 C 6,4 km/h (2 Bft) 100,00 %
11.11.2015 00:35 12,8 C 66 % 1023,8 hPa 0,0 l/m 5,4 km/h (1 Bft) SW 234 0 min 0,000 mm 0,0 UV-I 0 W/m 6,6 C 12,8 C 8,0 km/h (2 Bft) 100,00 %
11.11.2015 00:36 12,8 C 66 % 1023,8 hPa 0,0 l/m 4,5 km/h (1 Bft) W-SW 250 0 min 0,000 mm 0,0 UV-I 0 W/m 6,6 C 12,8 C 6,4 km/h (2 Bft) 100,00 %
11.11.2015 00:37 12,9 C 66 % 1023,8 hPa 0,0 l/m 4,0 km/h (1 Bft) W-SW 249 0 min 0,000 mm 0,0 UV-I 0 W/m 6,7 C 12,9 C 6,4 km/h (2 Bft) 100,00 %
11.11.2015 00:38 12,9 C 66 % 1023,8 hPa 0,0 l/m 6,0 km/h (2 Bft) SW 229 0 min 0,000 mm 0,0 UV-I 0 W/m 6,7 C 12,9 C 9,7 km/h (2 Bft) 100,00 %
11.11.2015 00:39 12,9 C 66 % 1023,8 hPa 0,0 l/m 3,8 km/h (1 Bft) SW 217 0 min 0,000 mm 0,0 UV-I 0 W/m 6,7 C 12,9 C 6,4 km/h (2 Bft) 100,00 %
11.11.2015 00:40 12,9 C 66 % 1023,8 hPa 0,0 l/m 4,8 km/h (1 Bft) S-SW 211 0 min 0,000 mm 0,0 UV-I 0 W/m 6,7 C 12,9 C 6,4 km/h (2 Bft) 100,00 %
11.11.2015 00:41 12,9 C 66 % 1023,8 hPa 0,0 l/m 3,5 km/h (1 Bft) SW 217 0 min 0,000 mm 0,0 UV-I 0 W/m 6,7 C 12,9 C 4,8 km/h (1 Bft) 100,00 %
11.11.2015 00:42 12,9 C 66 % 1023,8 hPa 0,0 l/m 2,6 km/h (1 Bft) SW 217 0 min 0,000 mm 0,0 UV-I 0 W/m 6,7 C 12,9 C 4,8 km/h (1 Bft) 100,00 %
11.11.2015 00:43 12,9 C 66 % 1023,8 hPa 0,0 l/m 2,1 km/h (1 Bft) W-NW 293 0 min 0,000 mm 0,0 UV-I 0 W/m 6,7 C 12,9 C 3,2 km/h (1 Bft) 100,00 %
11.11.2015 00:44 12,9 C 66 % 1023,8 hPa 0,0 l/m 2,1 km/h (1 Bft) W 274 0 min 0,000 mm 0,0 UV-I 0 W/m 6,7 C 12,9 C 3,2 km/h (1 Bft) 100,00 %
11.11.2015 00:45 12,9 C 66 % 1023,8 hPa 0,0 l/m 2,0 km/h (1 Bft) W-SW 256 0 min 0,000 mm 0,0 UV-I 0 W/m 6,7 C 12,9 C 3,2 km/h (1 Bft) 100,00 %
11.11.2015 00:46 12,8 C 67 % 1023,8 hPa 0,0 l/m 2,1 km/h (1 Bft) SW 236 0 min 0,000 mm 0,0 UV-I 0 W/m 6,8 C 12,8 C 3,2 km/h (1 Bft) 100,00 %
11.11.2015 00:47 12,8 C 67 % 1023,9 hPa 0,0 l/m 1,9 km/h (1 Bft) W-SW 238 0 min 0,000 mm 0,0 UV-I 0 W/m 6,8 C 12,8 C 3,2 km/h (1 Bft) 100,00 %
11.11.2015 00:48 12,7 C 67 % 1023,8 hPa 0,0 l/m 1,3 km/h (1 Bft) W-SW 238 0 min 0,000 mm 0,0 UV-I 0 W/m 6,7 C 12,7 C 3,2 km/h (1 Bft) 96,15 %
11.11.2015 00:49 12,7 C 67 % 1023,8 hPa 0,0 l/m 1,5 km/h (1 Bft) W-SW 238 0 min 0,000 mm 0,0 UV-I 0 W/m 6,7 C 12,7 C 3,2 km/h (1 Bft) 100,00 %
11.11.2015 00:50 12,6 C 68 % 1023,7 hPa 0,0 l/m 1,5 km/h (1 Bft) W-SW 238 0 min 0,000 mm 0,0 UV-I 0 W/m 6,9 C 12,6 C 3,2 km/h (1 Bft) 100,00 %
11.11.2015 00:51 12,6 C 68 % 1023,7 hPa 0,0 l/m 2,0 km/h (1 Bft) W-SW 249 0 min 0,000 mm 0,0 UV-I 0 W/m 6,9 C 12,6 C 4,8 km/h (1 Bft) 100,00 %
11.11.2015 00:52 12,6 C 68 % 1023,7 hPa 0,0 l/m 3,1 km/h (1 Bft) SW 221 0 min 0,000 mm 0,0 UV-I 0 W/m 6,9 C 12,6 C 4,8 km/h (1 Bft) 100,00 %
11.11.2015 00:53 12,6 C 67 % 1023,7 hPa 0,0 l/m 4,7 km/h (1 Bft) SW 224 0 min 0,000 mm 0,0 UV-I 0 W/m 6,6 C 12,6 C 8,0 km/h (2 Bft) 100,00 %
11.11.2015 00:54 12,6 C 67 % 1023,7 hPa 0,0 l/m 2,3 km/h (1 Bft) W-SW 242 0 min 0,000 mm 0,0 UV-I 0 W/m 6,6 C 12,6 C 4,8 km/h (1 Bft) 100,00 %
11.11.2015 00:55 12,6 C 67 % 1023,7 hPa 0,0 l/m 3,4 km/h (1 Bft) SW 220 0 min 0,000 mm 0,0 UV-I 0 W/m 6,6 C 12,6 C 4,8 km/h (1 Bft) 100,00 %
11.11.2015 00:56 12,6 C 67 % 1023,7 hPa 0,0 l/m 3,3 km/h (1 Bft) W 267 0 min 0,000 mm 0,0 UV-I 0 W/m 6,6 C 12,6 C 4,8 km/h (1 Bft) 100,00 %
11.11.2015 00:57 12,7 C 66 % 1023,7 hPa 0,0 l/m 3,4 km/h (1 Bft) SW 232 0 min 0,000 mm 0,0 UV-I 0 W/m 6,5 C 12,7 C 4,8 km/h (1 Bft) 100,00 %
11.11.2015 00:58 12,7 C 66 % 1023,6 hPa 0,0 l/m 2,5 km/h (1 Bft) W-NW 290 0 min 0,000 mm 0,0 UV-I 0 W/m 6,5 C 12,7 C 3,2 km/h (1 Bft) 100,00 %
11.11.2015 00:59 12,7 C 67 % 1023,6 hPa 0,0 l/m 2,6 km/h (1 Bft) W-SW 257 0 min 0,000 mm 0,0 UV-I 0 W/m 6,7 C 12,7 C 3,2 km/h (1 Bft) 94,12 %
11.11.2015 01:00 12,7 C 67 % 1023,5 hPa 0,0 l/m 4,5 km/h (1 Bft) S-SW 207 0 min 0,025 mm 0,0 UV-I 0 W/m 6,7 C 12,7 C 8,0 km/h (2 Bft) 100,00 %
11.11.2015 01:01 12,6 C 66 % 1023,5 hPa 0,0 l/m 4,2 km/h (1 Bft) SW 227 0 min 0,000 mm 0,0 UV-I 0 W/m 6,4 C 12,6 C 8,0 km/h (2 Bft) 96,15 %
11.11.2015 01:02 12,6 C 66 % 1023,6 hPa 0,0 l/m 4,5 km/h (1 Bft) W 262 0 min 0,000 mm 0,0 UV-I 0 W/m 6,4 C 12,6 C 6,4 km/h (2 Bft) 100,00 %
11.11.2015 01:03 12,7 C 66 % 1023,6 hPa 0,0 l/m 3,1 km/h (1 Bft) W-SW 246 0 min 0,000 mm 0,0 UV-I 0 W/m 6,5 C 12,7 C 4,8 km/h (1 Bft) 100,00 %
11.11.2015 01:04 12,7 C 66 % 1023,6 hPa 0,0 l/m 2,0 km/h (1 Bft) W-NW 290 0 min 0,000 mm 0,0 UV-I 0 W/m 6,5 C 12,7 C 3,2 km/h (1 Bft) 100,00 %
11.11.2015 01:05 12,7 C 66 % 1023,6 hPa 0,0 l/m 4,9 km/h (1 Bft) W-NW 288 0 min 0,000 mm 0,0 UV-I 0 W/m 6,5 C 12,7 C 6,4 km/h (2 Bft) 100,00 %
11.11.2015 01:06 12,7 C 66 % 1023,6 hPa 0,0 l/m 4,1 km/h (1 Bft) W-SW 238 0 min 0,000 mm 0,0 UV-I 0 W/m 6,5 C 12,7 C 4,8 km/h (1 Bft) 100,00 %
11.11.2015 01:07 12,7 C 66 % 1023,6 hPa 0,0 l/m 3,1 km/h (1 Bft) W-SW 238 0 min 0,000 mm 0,0 UV-I 0 W/m 6,5 C 12,7 C 4,8 km/h (1 Bft) 100,00 %
11.11.2015 01:08 12,7 C 67 % 1023,5 hPa 0,0 l/m 3,4 km/h (1 Bft) SW 224 0 min 0,000 mm 0,0 UV-I 0 W/m 6,7 C 12,7 C 4,8 km/h (1 Bft) 95,83 %
11.11.2015 01:09 12,7 C 67 % 1023,5 hPa 0,0 l/m 2,2 km/h (1 Bft) W-SW 250 0 min 0,000 mm 0,0 UV-I 0 W/m 6,7 C 12,7 C 3,2 km/h (1 Bft) 100,00 %
11.11.2015 01:10 12,6 C 67 % 1023,6 hPa 0,0 l/m 1,9 km/h (1 Bft) W 274 0 min 0,000 mm 0,0 UV-I 0 W/m 6,6 C 12,6 C 3,2 km/h (1 Bft) 100,00 %
11.11.2015 01:11 12,6 C 67 % 1023,6 hPa 0,0 l/m 2,1 km/h (1 Bft) W 275 0 min 0,000 mm 0,0 UV-I 0 W/m 6,6 C 12,6 C 3,2 km/h (1 Bft) 100,00 %
11.11.2015 01:12 12,6 C 67 % 1023,6 hPa 0,0 l/m 2,9 km/h (1 Bft) W-SW 250 0 min 0,000 mm 0,0 UV-I 0 W/m 6,6 C 12,6 C 4,8 km/h (1 Bft) 95,83 %
11.11.2015 01:13 12,6 C 67 % 1023,6 hPa 0,0 l/m 3,4 km/h (1 Bft) SW 236 0 min 0,000 mm 0,0 UV-I 0 W/m 6,6 C 12,6 C 6,4 km/h (2 Bft) 100,00 %
11.11.2015 01:14 12,7 C 67 % 1023,6 hPa 0,0 l/m 2,7 km/h (1 Bft) SW 234 0 min 0,000 mm 0,0 UV-I 0 W/m 6,7 C 12,7 C 4,8 km/h (1 Bft) 100,00 %
11.11.2015 01:15 12,7 C 66 % 1023,6 hPa 0,0 l/m 2,1 km/h (1 Bft) W-NW 292 0 min 0,000 mm 0,0 UV-I 0 W/m 6,5 C 12,7 C 4,8 km/h (1 Bft) 100,00 %
11.11.2015 01:16 12,7 C 67 % 1023,7 hPa 0,0 l/m 1,2 km/h (1 Bft) W 271 0 min 0,000 mm 0,0 UV-I 0 W/m 6,7 C 12,7 C 3,2 km/h (1 Bft) 100,00 %
11.11.2015 01:17 12,7 C 67 % 1023,7 hPa 0,0 l/m 1,9 km/h (1 Bft) SW 232 0 min 0,000 mm 0,0 UV-I 0 W/m 6,7 C 12,7 C 3,2 km/h (1 Bft) 100,00 %
11.11.2015 01:18 12,7 C 66 % 1023,6 hPa 0,0 l/m 3,1 km/h (1 Bft) W-SW 240 0 min 0,000 mm 0,0 UV-I 0 W/m 6,5 C 12,7 C 4,8 km/h (1 Bft) 100,00 %
11.11.2015 01:19 12,7 C 66 % 1023,6 hPa 0,0 l/m 1,5 km/h (1 Bft) W 271 0 min 0,000 mm 0,0 UV-I 0 W/m 6,5 C 12,7 C 3,2 km/h (1 Bft) 100,00 %
11.11.2015 01:20 12,7 C 66 % 1023,6 hPa 0,0 l/m 1,3 km/h (1 Bft) W 263 0 min 0,000 mm 0,0 UV-I 0 W/m 6,5 C 12,7 C 3,2 km/h (1 Bft) 100,00 %
11.11.2015 01:21 12,7 C 66 % 1023,6 hPa 0,0 l/m 2,3 km/h (1 Bft) W 281 0 min 0,000 mm 0,0 UV-I 0 W/m 6,5 C 12,7 C 3,2 km/h (1 Bft) 100,00 %
11.11.2015 01:22 12,7 C 66 % 1023,6 hPa 0,0 l/m 3,6 km/h (1 Bft) W 259 0 min 0,000 mm 0,0 UV-I 0 W/m 6,5 C 12,7 C 6,4 km/h (2 Bft) 100,00 %
11.11.2015 01:23 12,8 C 66 % 1023,6 hPa 0,0 l/m 3,7 km/h (1 Bft) SW 226 0 min 0,000 mm 0,0 UV-I 0 W/m 6,6 C 12,8 C 4,8 km/h (1 Bft) 100,00 %
11.11.2015 01:24 12,8 C 66 % 1023,6 hPa 0,0 l/m 3,7 km/h (1 Bft) W-NW 295 0 min 0,000 mm 0,0 UV-I 0 W/m 6,6 C 12,8 C 6,4 km/h (2 Bft) 100,00 %
11.11.2015 01:25 12,8 C 65 % 1023,5 hPa 0,0 l/m 3,2 km/h (1 Bft) W-NW 283 0 min 0,000 mm 0,0 UV-I 0 W/m 6,4 C 12,8 C 4,8 km/h (1 Bft) 100,00 %
11.11.2015 01:26 12,8 C 65 % 1023,6 hPa 0,0 l/m 2,7 km/h (1 Bft) W 266 0 min 0,000 mm 0,0 UV-I 0 W/m 6,4 C 12,8 C 4,8 km/h (1 Bft) 100,00 %
11.11.2015 01:27 12,9 C 65 % 1023,6 hPa 0,0 l/m 2,5 km/h (1 Bft) SW 236 0 min 0,000 mm 0,0 UV-I 0 W/m 6,5 C 12,9 C 3,2 km/h (1 Bft) 100,00 %
11.11.2015 01:28 12,9 C 65 % 1023,6 hPa 0,0 l/m 3,3 km/h (1 Bft) W-SW 238 0 min 0,000 mm 0,0 UV-I 0 W/m 6,5 C 12,9 C 4,8 km/h (1 Bft) 100,00 %
11.11.2015 01:29 12,9 C 65 % 1023,6 hPa 0,0 l/m 6,4 km/h (2 Bft) SW 236 0 min 0,000 mm 0,0 UV-I 0 W/m 6,5 C 12,9 C 9,7 km/h (2 Bft) 95,83 %
11.11.2015 01:30 12,9 C 65 % 1023,6 hPa 0,0 l/m 4,8 km/h (1 Bft) W 261 0 min 0,000 mm 0,0 UV-I 0 W/m 6,5 C 12,9 C 9,7 km/h (2 Bft) 100,00 %
11.11.2015 01:31 12,9 C 65 % 1023,6 hPa 0,0 l/m 2,7 km/h (1 Bft) W 273 0 min 0,000 mm 0,0 UV-I 0 W/m 6,5 C 12,9 C 4,8 km/h (1 Bft) 100,00 %
11.11.2015 01:32 12,9 C 65 % 1023,6 hPa 0,0 l/m 3,5 km/h (1 Bft) W-NW 289 0 min 0,000 mm 0,0 UV-I 0 W/m 6,5 C 12,9 C 6,4 km/h (2 Bft) 100,00 %
11.11.2015 01:33 12,9 C 65 % 1023,6 hPa 0,0 l/m 3,2 km/h (1 Bft) W-SW 244 0 min 0,000 mm 0,0 UV-I 0 W/m 6,5 C 12,9 C 4,8 km/h (1 Bft) 100,00 %
11.11.2015 01:34 12,9 C 65 % 1023,6 hPa 0,0 l/m 2,9 km/h (1 Bft) W 273 0 min 0,000 mm 0,0 UV-I 0 W/m 6,5 C 12,9 C 4,8 km/h (1 Bft) 100,00 %
11.11.2015 01:35 12,9 C 65 % 1023,7 hPa 0,0 l/m 3,4 km/h (1 Bft) W-SW 238 0 min 0,000 mm 0,0 UV-I 0 W/m 6,5 C 12,9 C 6,4 km/h (2 Bft) 97,37 %
11.11.2015 01:36 12,9 C 65 % 1023,7 hPa 0,0 l/m 3,7 km/h (1 Bft) W-NW 282 0 min 0,000 mm 0,0 UV-I 0 W/m 6,5 C 12,9 C 4,8 km/h (1 Bft) 95,83 %
11.11.2015 01:37 12,9 C 65 % 1023,7 hPa 0,0 l/m 3,8 km/h (1 Bft) W 273 0 min 0,000 mm 0,0 UV-I 0 W/m 6,5 C 12,9 C 4,8 km/h (1 Bft) 100,00 %
11.11.2015 01:38 12,9 C 64 % 1023,7 hPa 0,0 l/m 5,0 km/h (1 Bft) W-SW 256 0 min 0,000 mm 0,0 UV-I 0 W/m 6,3 C 12,9 C 6,4 km/h (2 Bft) 100,00 %
11.11.2015 01:39 12,9 C 65 % 1023,7 hPa 0,0 l/m 4,1 km/h (1 Bft) W-NW 286 0 min 0,000 mm 0,0 UV-I 0 W/m 6,5 C 12,9 C 6,4 km/h (2 Bft) 100,00 %
11.11.2015 01:40 12,9 C 64 % 1023,7 hPa 0,0 l/m 5,7 km/h (1 Bft) W-SW 250 0 min 0,000 mm 0,0 UV-I 0 W/m 6,3 C 12,9 C 11,3 km/h (2 Bft) 100,00 %
11.11.2015 01:41 13,0 C 64 % 1023,7 hPa 0,0 l/m 4,3 km/h (1 Bft) W-NW 287 0 min 0,000 mm 0,0 UV-I 0 W/m 6,4 C 13,0 C 6,4 km/h (2 Bft) 100,00 %
11.11.2015 01:42 13,1 C 63 % 1023,7 hPa 0,0 l/m 5,0 km/h (1 Bft) SW 217 0 min 0,000 mm 0,0 UV-I 0 W/m 6,2 C 13,1 C 6,4 km/h (2 Bft) 100,00 %
11.11.2015 01:43 13,1 C 63 % 1023,6 hPa 0,0 l/m 4,4 km/h (1 Bft) W-SW 250 0 min 0,000 mm 0,0 UV-I 0 W/m 6,2 C 13,1 C 6,4 km/h (2 Bft) 100,00 %
11.11.2015 01:44 13,2 C 63 % 1023,7 hPa 0,0 l/m 3,5 km/h (1 Bft) W 273 0 min 0,000 mm 0,0 UV-I 0 W/m 6,3 C 13,2 C 4,8 km/h (1 Bft) 100,00 %
11.11.2015 01:45 13,2 C 64 % 1023,7 hPa 0,0 l/m 3,6 km/h (1 Bft) W 277 0 min 0,000 mm 0,0 UV-I 0 W/m 6,5 C 13,2 C 6,4 km/h (2 Bft) 100,00 %
11.11.2015 01:46 13,2 C 63 % 1023,7 hPa 0,0 l/m 3,5 km/h (1 Bft) W 261 0 min 0,000 mm 0,0 UV-I 0 W/m 6,3 C 13,2 C 6,4 km/h (2 Bft) 100,00 %
11.11.2015 01:47 13,2 C 64 % 1023,7 hPa 0,0 l/m 3,6 km/h (1 Bft) W-NW 286 0 min 0,000 mm 0,0 UV-I 0 W/m 6,5 C 13,2 C 4,8 km/h (1 Bft) 100,00 %
11.11.2015 01:48 13,3 C 63 % 1023,8 hPa 0,0 l/m 4,2 km/h (1 Bft) W 280 0 min 0,000 mm 0,0 UV-I 0 W/m 6,4 C 13,3 C 6,4 km/h (2 Bft) 100,00 %
11.11.2015 01:49 13,3 C 63 % 1023,8 hPa 0,0 l/m 5,2 km/h (1 Bft) W 275 0 min 0,000 mm 0,0 UV-I 0 W/m 6,4 C 13,3 C 9,7 km/h (2 Bft) 100,00 %
11.11.2015 01:50 13,3 C 63 % 1023,8 hPa 0,0 l/m 5,5 km/h (1 Bft) W 275 0 min 0,000 mm 0,0 UV-I 0 W/m 6,4 C 13,3 C 9,7 km/h (2 Bft) 100,00 %
11.11.2015 01:51 13,3 C 63 % 1023,8 hPa 0,0 l/m 3,4 km/h (1 Bft) W 265 0 min 0,000 mm 0,0 UV-I 0 W/m 6,4 C 13,3 C 6,4 km/h (2 Bft) 100,00 %
11.11.2015 01:52 13,3 C 63 % 1023,8 hPa 0,0 l/m 5,2 km/h (1 Bft) W 259 0 min 0,000 mm 0,0 UV-I 0 W/m 6,4 C 13,3 C 9,7 km/h (2 Bft) 100,00 %
11.11.2015 01:53 13,3 C 63 % 1023,8 hPa 0,0 l/m 3,9 km/h (1 Bft) W-NW 289 0 min 0,000 mm 0,0 UV-I 0 W/m 6,4 C 13,3 C 6,4 km/h (2 Bft) 100,00 %
11.11.2015 01:54 13,3 C 63 % 1023,8 hPa 0,0 l/m 4,4 km/h (1 Bft) W 280 0 min 0,000 mm 0,0 UV-I 0 W/m 6,4 C 13,3 C 9,7 km/h (2 Bft) 100,00 %
11.11.2015 01:55 13,3 C 63 % 1023,8 hPa 0,0 l/m 2,4 km/h (1 Bft) W 278 0 min 0,000 mm 0,0 UV-I 0 W/m 6,4 C 13,3 C 3,2 km/h (1 Bft) 100,00 %
11.11.2015 01:56 13,3 C 63 % 1023,9 hPa 0,0 l/m 3,1 km/h (1 Bft) W 266 0 min 0,000 mm 0,0 UV-I 0 W/m 6,4 C 13,3 C 4,8 km/h (1 Bft) 100,00 %
11.11.2015 01:57 13,3 C 63 % 1023,9 hPa 0,0 l/m 3,8 km/h (1 Bft) W 273 0 min 0,000 mm 0,0 UV-I 0 W/m 6,4 C 13,3 C 4,8 km/h (1 Bft) 95,83 %
11.11.2015 01:58 13,3 C 63 % 1023,9 hPa 0,0 l/m 4,2 km/h (1 Bft) W 278 0 min 0,000 mm 0,0 UV-I 0 W/m 6,4 C 13,3 C 6,4 km/h (2 Bft) 91,30 %
11.11.2015 01:59 13,3 C 63 % 1023,9 hPa 0,0 l/m 3,7 km/h (1 Bft) W 275 0 min 0,000 mm 0,0 UV-I 0 W/m 6,4 C 13,3 C 4,8 km/h (1 Bft) 100,00 %
11.11.2015 02:00 13,3 C 63 % 1023,9 hPa 0,0 l/m 3,2 km/h (1 Bft) W 279 0 min 0,026 mm 0,0 UV-I 0 W/m 6,4 C 13,3 C 4,8 km/h (1 Bft) 100,00 %
11.11.2015 02:01 13,3 C 63 % 1023,9 hPa 0,0 l/m 3,4 km/h (1 Bft) W-NW 290 0 min 0,000 mm 0,0 UV-I 0 W/m 6,4 C 13,3 C 4,8 km/h (1 Bft) 100,00 %
11.11.2015 02:02 13,3 C 64 % 1023,8 hPa 0,0 l/m 3,6 km/h (1 Bft) W 275 0 min 0,000 mm 0,0 UV-I 0 W/m 6,6 C 13,3 C 4,8 km/h (1 Bft) 100,00 %
11.11.2015 02:03 13,3 C 64 % 1023,9 hPa 0,0 l/m 3,1 km/h (1 Bft) W-SW 257 0 min 0,000 mm 0,0 UV-I 0 W/m 6,6 C 13,3 C 4,8 km/h (1 Bft) 100,00 %
11.11.2015 02:04 13,3 C 63 % 1023,9 hPa 0,0 l/m 2,9 km/h (1 Bft) W 259 0 min 0,000 mm 0,0 UV-I 0 W/m 6,4 C 13,3 C 4,8 km/h (1 Bft) 99,34 %
11.11.2015 02:05 13,3 C 63 % 1023,9 hPa 0,0 l/m 3,1 km/h (1 Bft) W 269 0 min 0,000 mm 0,0 UV-I 0 W/m 6,4 C 13,3 C 4,8 km/h (1 Bft) 97,56 %
11.11.2015 02:06 13,3 C 64 % 1023,9 hPa 0,0 l/m 3,1 km/h (1 Bft) W 274 0 min 0,000 mm 0,0 UV-I 0 W/m 6,6 C 13,3 C 4,8 km/h (1 Bft) 100,00 %
11.11.2015 02:07 13,3 C 64 % 1023,9 hPa 0,0 l/m 4,0 km/h (1 Bft) W 273 0 min 0,000 mm 0,0 UV-I 0 W/m 6,6 C 13,3 C 4,8 km/h (1 Bft) 100,00 %
11.11.2015 02:08 13,3 C 64 % 1023,8 hPa 0,0 l/m 4,6 km/h (1 Bft) W 265 0 min 0,000 mm 0,0 UV-I 0 W/m 6,6 C 13,3 C 6,4 km/h (2 Bft) 100,00 %
11.11.2015 02:09 13,3 C 64 % 1023,8 hPa 0,0 l/m 3,1 km/h (1 Bft) W 271 0 min 0,000 mm 0,0 UV-I 0 W/m 6,6 C 13,3 C 6,4 km/h (2 Bft) 100,00 %
11.11.2015 02:10 13,3 C 64 % 1023,8 hPa 0,0 l/m 2,6 km/h (1 Bft) W 272 0 min 0,000 mm 0,0 UV-I 0 W/m 6,6 C 13,3 C 3,2 km/h (1 Bft) 100,00 %
11.11.2015 02:11 13,3 C 64 % 1023,8 hPa 0,0 l/m 3,1 km/h (1 Bft) W-NW 292 0 min 0,000 mm 0,0 UV-I 0 W/m 6,6 C 13,3 C 4,8 km/h (1 Bft) 100,00 %
11.11.2015 02:12 13,3 C 65 % 1023,8 hPa 0,0 l/m 1,9 km/h (1 Bft) W-NW 300 0 min 0,000 mm 0,0 UV-I 0 W/m 6,9 C 13,3 C 4,8 km/h (1 Bft) 100,00 %
11.11.2015 02:13 13,2 C 65 % 1023,8 hPa 0,0 l/m 2,4 km/h (1 Bft) W 277 0 min 0,000 mm 0,0 UV-I 0 W/m 6,8 C 13,2 C 4,8 km/h (1 Bft) 100,00 %
11.11.2015 02:14 13,2 C 65 % 1023,8 hPa 0,0 l/m 2,4 km/h (1 Bft) NW 309 0 min 0,000 mm 0,0 UV-I 0 W/m 6,8 C 13,2 C 4,8 km/h (1 Bft) 100,00 %
11.11.2015 02:15 13,2 C 65 % 1023,8 hPa 0,0 l/m 1,5 km/h (1 Bft) W-NW 297 0 min 0,000 mm 0,0 UV-I 0 W/m 6,8 C 13,2 C 3,2 km/h (1 Bft) 100,00 %
11.11.2015 02:16 13,1 C 65 % 1023,8 hPa 0,0 l/m 3,4 km/h (1 Bft) NW 316 0 min 0,000 mm 0,0 UV-I 0 W/m 6,7 C 13,1 C 4,8 km/h (1 Bft) 100,00 %
11.11.2015 02:17 13,1 C 65 % 1023,8 hPa 0,0 l/m 2,4 km/h (1 Bft) W-NW 295 0 min 0,000 mm 0,0 UV-I 0 W/m 6,7 C 13,1 C 4,8 km/h (1 Bft) 100,00 %
11.11.2015 02:18 13,1 C 66 % 1023,8 hPa 0,0 l/m 1,9 km/h (1 Bft) W-NW 295 0 min 0,000 mm 0,0 UV-I 0 W/m 6,9 C 13,1 C 3,2 km/h (1 Bft) 100,00 %
11.11.2015 02:19 13,1 C 66 % 1023,9 hPa 0,0 l/m 3,4 km/h (1 Bft) W 273 0 min 0,000 mm 0,0 UV-I 0 W/m 6,9 C 13,1 C 4,8 km/h (1 Bft) 100,00 %
11.11.2015 02:20 13,1 C 66 % 1023,8 hPa 0,0 l/m 2,5 km/h (1 Bft) W 273 0 min 0,000 mm 0,0 UV-I 0 W/m 6,9 C 13,1 C 3,2 km/h (1 Bft) 95,83 %
11.11.2015 02:21 13,1 C 66 % 1023,9 hPa 0,0 l/m 2,5 km/h (1 Bft) W 273 0 min 0,000 mm 0,0 UV-I 0 W/m 6,9 C 13,1 C 3,2 km/h (1 Bft) 100,00 %
11.11.2015 02:22 13,1 C 66 % 1023,9 hPa 0,0 l/m 0,8 km/h (0 Bft) W 273 0 min 0,000 mm 0,0 UV-I 0 W/m 6,9 C 13,1 C 1,6 km/h (1 Bft) 100,00 %
11.11.2015 02:23 13,1 C 66 % 1023,9 hPa 0,0 l/m 1,3 km/h (1 Bft) W 273 0 min 0,000 mm 0,0 UV-I 0 W/m 6,9 C 13,1 C 1,6 km/h (1 Bft) 100,00 %
11.11.2015 02:24 13,0 C 66 % 1023,9 hPa 0,0 l/m 2,1 km/h (1 Bft) W 273 0 min 0,000 mm 0,0 UV-I 0 W/m 6,8 C 13,0 C 3,2 km/h (1 Bft) 100,00 %
11.11.2015 02:25 13,0 C 66 % 1023,9 hPa 0,0 l/m 1,9 km/h (1 Bft) W 273 0 min 0,000 mm 0,0 UV-I 0 W/m 6,8 C 13,0 C 3,2 km/h (1 Bft) 100,00 %
11.11.2015 02:26 12,9 C 66 % 1023,9 hPa 0,0 l/m 1,8 km/h (1 Bft) W 273 0 min 0,000 mm 0,0 UV-I 0 W/m 6,7 C 12,9 C 3,2 km/h (1 Bft) 95,83 %
11.11.2015 02:27 12,9 C 66 % 1023,8 hPa 0,0 l/m 1,4 km/h (1 Bft) W 267 0 min 0,000 mm 0,0 UV-I 0 W/m 6,7 C 12,9 C 1,6 km/h (1 Bft) 100,00 %
11.11.2015 02:28 12,9 C 67 % 1023,9 hPa 0,0 l/m 1,5 km/h (1 Bft) W 267 0 min 0,000 mm 0,0 UV-I 0 W/m 6,9 C 12,9 C 3,2 km/h (1 Bft) 100,00 %
11.11.2015 02:29 12,9 C 66 % 1023,9 hPa 0,0 l/m 2,0 km/h (1 Bft) W 267 0 min 0,000 mm 0,0 UV-I 0 W/m 6,7 C 12,9 C 3,2 km/h (1 Bft) 100,00 %
11.11.2015 02:30 12,9 C 66 % 1023,9 hPa 0,0 l/m 1,7 km/h (1 Bft) W 264 0 min 0,000 mm 0,0 UV-I 0 W/m 6,7 C 12,9 C 3,2 km/h (1 Bft) 100,00 %
11.11.2015 02:31 12,9 C 66 % 1023,9 hPa 0,0 l/m 1,7 km/h (1 Bft) W 264 0 min 0,000 mm 0,0 UV-I 0 W/m 6,7 C 12,9 C 3,2 km/h (1 Bft) 100,00 %
11.11.2015 02:32 12,9 C 66 % 1024,0 hPa 0,0 l/m 1,4 km/h (1 Bft) W 264 0 min 0,000 mm 0,0 UV-I 0 W/m 6,7 C 12,9 C 3,2 km/h (1 Bft) 97,37 %
11.11.2015 02:33 12,9 C 66 % 1024,0 hPa 0,0 l/m 1,4 km/h (1 Bft) W 264 0 min 0,000 mm 0,0 UV-I 0 W/m 6,7 C 12,9 C 1,6 km/h (1 Bft) 100,00 %
11.11.2015 02:34 12,9 C 66 % 1023,8 hPa 0,0 l/m 1,8 km/h (1 Bft) W 260 0 min 0,000 mm 0,0 UV-I 0 W/m 6,7 C 12,9 C 3,2 km/h (1 Bft) 100,00 %
11.11.2015 02:35 12,9 C 67 % 1023,9 hPa 0,0 l/m 0,5 km/h (0 Bft) W 260 0 min 0,000 mm 0,0 UV-I 0 W/m 6,9 C 12,9 C 1,6 km/h (1 Bft) 100,00 %
11.11.2015 02:36 12,9 C 66 % 1023,9 hPa 0,0 l/m 0,7 km/h (0 Bft) W 260 0 min 0,000 mm 0,0 UV-I 0 W/m 6,7 C 12,9 C 1,6 km/h (1 Bft) 100,00 %
11.11.2015 02:37 12,9 C 67 % 1024,0 hPa 0,0 l/m 1,2 km/h (1 Bft) W 260 0 min 0,000 mm 0,0 UV-I 0 W/m 6,9 C 12,9 C 1,6 km/h (1 Bft) 100,00 %
11.11.2015 02:38 12,8 C 67 % 1024,0 hPa 0,0 l/m 1,8 km/h (1 Bft) W 260 0 min 0,000 mm 0,0 UV-I 0 W/m 6,8 C 12,8 C 3,2 km/h (1 Bft) 100,00 %
11.11.2015 02:39 12,8 C 67 % 1024,0 hPa 0,0 l/m 2,0 km/h (1 Bft) S-SW 207 0 min 0,000 mm 0,0 UV-I 0 W/m 6,8 C 12,8 C 3,2 km/h (1 Bft) 100,00 %
11.11.2015 02:40 12,8 C 67 % 1024,0 hPa 0,0 l/m 3,6 km/h (1 Bft) S-SW 210 0 min 0,000 mm 0,0 UV-I 0 W/m 6,8 C 12,8 C 6,4 km/h (2 Bft) 100,00 %
11.11.2015 02:41 12,8 C 67 % 1024,0 hPa 0,0 l/m 2,5 km/h (1 Bft) SW 214 0 min 0,000 mm 0,0 UV-I 0 W/m 6,8 C 12,8 C 3,2 km/h (1 Bft) 100,00 %
11.11.2015 02:42 12,8 C 67 % 1024,0 hPa 0,0 l/m 4,2 km/h (1 Bft) S-SW 201 0 min 0,000 mm 0,0 UV-I 0 W/m 6,8 C 12,8 C 6,4 km/h (2 Bft) 100,00 %
11.11.2015 02:43 12,8 C 67 % 1023,9 hPa 0,0 l/m 3,6 km/h (1 Bft) SW 221 0 min 0,000 mm 0,0 UV-I 0 W/m 6,8 C 12,8 C 4,8 km/h (1 Bft) 100,00 %
11.11.2015 02:44 12,8 C 67 % 1024,0 hPa 0,0 l/m 2,9 km/h (1 Bft) S-SW 202 0 min 0,000 mm 0,0 UV-I 0 W/m 6,8 C 12,8 C 4,8 km/h (1 Bft) 100,00 %
11.11.2015 02:45 12,8 C 68 % 1023,9 hPa 0,0 l/m 2,5 km/h (1 Bft) S-SW 209 0 min 0,000 mm 0,0 UV-I 0 W/m 7,0 C 12,8 C 4,8 km/h (1 Bft) 100,00 %
11.11.2015 02:46 12,8 C 68 % 1023,9 hPa 0,0 l/m 3,8 km/h (1 Bft) SW 227 0 min 0,000 mm 0,0 UV-I 0 W/m 7,0 C 12,8 C 6,4 km/h (2 Bft) 100,00 %
11.11.2015 02:47 12,8 C 67 % 1023,9 hPa 0,0 l/m 4,6 km/h (1 Bft) SW 229 0 min 0,000 mm 0,0 UV-I 0 W/m 6,8 C 12,8 C 6,4 km/h (2 Bft) 100,00 %
11.11.2015 02:48 12,8 C 67 % 1023,9 hPa 0,0 l/m 4,6 km/h (1 Bft) W-SW 254 0 min 0,000 mm 0,0 UV-I 0 W/m 6,8 C 12,8 C 6,4 km/h (2 Bft) 100,00 %
11.11.2015 02:49 12,8 C 67 % 1023,9 hPa 0,0 l/m 3,6 km/h (1 Bft) S-SW 213 0 min 0,000 mm 0,0 UV-I 0 W/m 6,8 C 12,8 C 4,8 km/h (1 Bft) 100,00 %
11.11.2015 02:50 12,8 C 67 % 1023,9 hPa 0,0 l/m 2,8 km/h (1 Bft) SW 218 0 min 0,000 mm 0,0 UV-I 0 W/m 6,8 C 12,8 C 8,0 km/h (2 Bft) 100,00 %
11.11.2015 02:51 12,8 C 67 % 1023,9 hPa 0,0 l/m 5,7 km/h (1 Bft) S-SW 212 0 min 0,000 mm 0,0 UV-I 0 W/m 6,8 C 12,8 C 9,7 km/h (2 Bft) 100,00 %
11.11.2015 02:52 12,8 C 67 % 1023,9 hPa 0,0 l/m 3,4 km/h (1 Bft) SW 222 0 min 0,000 mm 0,0 UV-I 0 W/m 6,8 C 12,8 C 4,8 km/h (1 Bft) 100,00 %
11.11.2015 02:53 12,8 C 67 % 1023,9 hPa 0,0 l/m 5,4 km/h (1 Bft) SW 217 0 min 0,000 mm 0,0 UV-I 0 W/m 6,8 C 12,8 C 9,7 km/h (2 Bft) 100,00 %
11.11.2015 02:54 12,8 C 67 % 1023,9 hPa 0,0 l/m 5,6 km/h (1 Bft) S-SW 210 0 min 0,000 mm 0,0 UV-I 0 W/m 6,8 C 12,8 C 11,3 km/h (2 Bft) 100,00 %
11.11.2015 02:55 12,8 C 67 % 1023,9 hPa 0,0 l/m 6,3 km/h (2 Bft) SW 219 0 min 0,000 mm 0,0 UV-I 0 W/m 6,8 C 12,8 C 9,7 km/h (2 Bft) 100,00 %
11.11.2015 02:56 12,8 C 67 % 1023,9 hPa 0,0 l/m 5,5 km/h (1 Bft) SW 215 0 min 0,000 mm 0,0 UV-I 0 W/m 6,8 C 12,8 C 9,7 km/h (2 Bft) 100,00 %
11.11.2015 02:57 12,8 C 67 % 1023,9 hPa 0,0 l/m 4,0 km/h (1 Bft) S-SW 212 0 min 0,000 mm 0,0 UV-I 0 W/m 6,8 C 12,8 C 8,0 km/h (2 Bft) 100,00 %
11.11.2015 02:58 12,8 C 67 % 1023,9 hPa 0,0 l/m 5,9 km/h (2 Bft) S-SW 211 0 min 0,000 mm 0,0 UV-I 0 W/m 6,8 C 12,8 C 8,0 km/h (2 Bft) 95,83 %
11.11.2015 02:59 12,8 C 67 % 1023,9 hPa 0,0 l/m 5,7 km/h (1 Bft) SW 228 0 min 0,000 mm 0,0 UV-I 0 W/m 6,8 C 12,8 C 8,0 km/h (2 Bft) 100,00 %
11.11.2015 03:00 12,8 C 67 % 1023,9 hPa 0,0 l/m 3,5 km/h (1 Bft) W-SW 250 0 min 0,025 mm 0,0 UV-I 0 W/m 6,8 C 12,8 C 6,4 km/h (2 Bft) 100,00 %
11.11.2015 03:01 12,8 C 67 % 1023,9 hPa 0,0 l/m 4,1 km/h (1 Bft) SW 223 0 min 0,000 mm 0,0 UV-I 0 W/m 6,8 C 12,8 C 6,4 km/h (2 Bft) 100,00 %
11.11.2015 03:02 12,8 C 67 % 1023,9 hPa 0,0 l/m 2,5 km/h (1 Bft) W-NW 286 0 min 0,000 mm 0,0 UV-I 0 W/m 6,8 C 12,8 C 4,8 km/h (1 Bft) 100,00 %
11.11.2015 03:03 12,8 C 67 % 1023,9 hPa 0,0 l/m 2,1 km/h (1 Bft) W-SW 255 0 min 0,000 mm 0,0 UV-I 0 W/m 6,8 C 12,8 C 3,2 km/h (1 Bft) 100,00 %
11.11.2015 03:04 12,8 C 67 % 1023,9 hPa 0,0 l/m 2,1 km/h (1 Bft) W-SW 246 0 min 0,000 mm 0,0 UV-I 0 W/m 6,8 C 12,8 C 3,2 km/h (1 Bft) 95,83 %
11.11.2015 03:05 12,7 C 68 % 1024,0 hPa 0,0 l/m 1,7 km/h (1 Bft) W 275 0 min 0,000 mm 0,0 UV-I 0 W/m 6,9 C 12,7 C 3,2 km/h (1 Bft) 96,15 %
11.11.2015 03:06 12,7 C 67 % 1024,0 hPa 0,0 l/m 1,4 km/h (1 Bft) W 275 0 min 0,000 mm 0,0 UV-I 0 W/m 6,7 C 12,7 C 1,6 km/h (1 Bft) 100,00 %
11.11.2015 03:07 12,7 C 67 % 1024,0 hPa 0,0 l/m 2,5 km/h (1 Bft) W 267 0 min 0,000 mm 0,0 UV-I 0 W/m 6,7 C 12,7 C 4,8 km/h (1 Bft) 100,00 %
11.11.2015 03:08 12,7 C 67 % 1024,0 hPa 0,0 l/m 2,5 km/h (1 Bft) W 277 0 min 0,000 mm 0,0 UV-I 0 W/m 6,7 C 12,7 C 4,8 km/h (1 Bft) 100,00 %
11.11.2015 03:09 12,7 C 67 % 1024,0 hPa 0,0 l/m 1,1 km/h (1 Bft) SW 236 0 min 0,000 mm 0,0 UV-I 0 W/m 6,7 C 12,7 C 3,2 km/h (1 Bft) 100,00 %
11.11.2015 03:10 12,7 C 67 % 1024,0 hPa 0,0 l/m 1,9 km/h (1 Bft) W 263 0 min 0,000 mm 0,0 UV-I 0 W/m 6,7 C 12,7 C 3,2 km/h (1 Bft) 100,00 %
11.11.2015 03:11 12,7 C 67 % 1024,0 hPa 0,0 l/m 2,0 km/h (1 Bft) W-SW 250 0 min 0,000 mm 0,0 UV-I 0 W/m 6,7 C 12,7 C 3,2 km/h (1 Bft) 100,00 %
11.11.2015 03:12 12,8 C 67 % 1024,0 hPa 0,0 l/m 2,3 km/h (1 Bft) W 268 0 min 0,000 mm 0,0 UV-I 0 W/m 6,8 C 12,8 C 3,2 km/h (1 Bft) 100,00 %
11.11.2015 03:13 12,8 C 67 % 1023,9 hPa 0,0 l/m 1,9 km/h (1 Bft) W-SW 254 0 min 0,000 mm 0,0 UV-I 0 W/m 6,8 C 12,8 C 3,2 km/h (1 Bft) 100,00 %
11.11.2015 03:14 12,8 C 68 % 1023,9 hPa 0,0 l/m 3,7 km/h (1 Bft) W 263 0 min 0,000 mm 0,0 UV-I 0 W/m 7,0 C 12,8 C 6,4 km/h (2 Bft) 100,00 %
11.11.2015 03:15 12,8 C 66 % 1023,9 hPa 0,0 l/m 3,4 km/h (1 Bft) W-SW 252 0 min 0,000 mm 0,0 UV-I 0 W/m 6,6 C 12,8 C 4,8 km/h (1 Bft) 100,00 %
11.11.2015 03:16 12,9 C 66 % 1024,0 hPa 0,0 l/m 3,8 km/h (1 Bft) S-SW 209 0 min 0,000 mm 0,0 UV-I 0 W/m 6,7 C 12,9 C 6,4 km/h (2 Bft) 100,00 %
11.11.2015 03:17 12,9 C 66 % 1024,0 hPa 0,0 l/m 4,4 km/h (1 Bft) W 265 0 min 0,000 mm 0,0 UV-I 0 W/m 6,7 C 12,9 C 6,4 km/h (2 Bft) 100,00 %
11.11.2015 03:18 13,0 C 66 % 1024,0 hPa 0,0 l/m 2,8 km/h (1 Bft) W 265 0 min 0,000 mm 0,0 UV-I 0 W/m 6,8 C 13,0 C 4,8 km/h (1 Bft) 100,00 %
11.11.2015 03:19 13,1 C 66 % 1023,9 hPa 0,0 l/m 2,3 km/h (1 Bft) W-SW 252 0 min 0,000 mm 0,0 UV-I 0 W/m 6,9 C 13,1 C 4,8 km/h (1 Bft) 100,00 %
11.11.2015 03:20 13,1 C 66 % 1023,9 hPa 0,0 l/m 2,4 km/h (1 Bft) W-NW 282 0 min 0,000 mm 0,0 UV-I 0 W/m 6,9 C 13,1 C 4,8 km/h (1 Bft) 95,65 %
11.11.2015 03:21 13,1 C 66 % 1023,9 hPa 0,0 l/m 3,2 km/h (1 Bft) W-SW 248 0 min 0,000 mm 0,0 UV-I 0 W/m 6,9 C 13,1 C 4,8 km/h (1 Bft) 100,00 %
11.11.2015 03:22 13,1 C 65 % 1023,9 hPa 0,0 l/m 4,5 km/h (1 Bft) W 269 0 min 0,000 mm 0,0 UV-I 0 W/m 6,7 C 13,1 C 6,4 km/h (2 Bft) 100,00 %
11.11.2015 03:23 13,2 C 65 % 1024,0 hPa 0,0 l/m 3,3 km/h (1 Bft) W-NW 284 0 min 0,000 mm 0,0 UV-I 0 W/m 6,8 C 13,2 C 4,8 km/h (1 Bft) 100,00 %
11.11.2015 03:24 13,2 C 65 % 1023,9 hPa 0,0 l/m 4,7 km/h (1 Bft) W 279 0 min 0,000 mm 0,0 UV-I 0 W/m 6,8 C 13,2 C 6,4 km/h (2 Bft) 96,15 %
11.11.2015 03:25 13,2 C 65 % 1023,9 hPa 0,0 l/m 4,4 km/h (1 Bft) W 277 0 min 0,000 mm 0,0 UV-I 0 W/m 6,8 C 13,2 C 4,8 km/h (1 Bft) 100,00 %
11.11.2015 03:26 13,2 C 65 % 1023,9 hPa 0,0 l/m 3,8 km/h (1 Bft) W 261 0 min 0,000 mm 0,0 UV-I 0 W/m 6,8 C 13,2 C 6,4 km/h (2 Bft) 100,00 %
11.11.2015 03:27 13,2 C 65 % 1023,9 hPa 0,0 l/m 5,4 km/h (1 Bft) W 275 0 min 0,000 mm 0,0 UV-I 0 W/m 6,8 C 13,2 C 9,7 km/h (2 Bft) 100,00 %
11.11.2015 03:28 13,2 C 65 % 1023,9 hPa 0,0 l/m 4,4 km/h (1 Bft) W-SW 256 0 min 0,000 mm 0,0 UV-I 0 W/m 6,8 C 13,2 C 4,8 km/h (1 Bft) 100,00 %
11.11.2015 03:29 13,2 C 65 % 1023,9 hPa 0,0 l/m 5,0 km/h (1 Bft) W-NW 289 0 min 0,000 mm 0,0 UV-I 0 W/m 6,8 C 13,2 C 6,4 km/h (2 Bft) 100,00 %
11.11.2015 03:30 13,2 C 65 % 1023,8 hPa 0,0 l/m 4,1 km/h (1 Bft) W 261 0 min 0,000 mm 0,0 UV-I 0 W/m 6,8 C 13,2 C 6,4 km/h (2 Bft) 100,00 %
11.11.2015 03:31 13,2 C 65 % 1023,8 hPa 0,0 l/m 4,6 km/h (1 Bft) W 264 0 min 0,000 mm 0,0 UV-I 0 W/m 6,8 C 13,2 C 6,4 km/h (2 Bft) 94,74 %
11.11.2015 03:32 13,2 C 65 % 1023,8 hPa 0,0 l/m 4,7 km/h (1 Bft) W-SW 256 0 min 0,000 mm 0,0 UV-I 0 W/m 6,8 C 13,2 C 11,3 km/h (2 Bft) 100,00 %
11.11.2015 03:33 13,2 C 65 % 1023,8 hPa 0,0 l/m 3,9 km/h (1 Bft) W 272 0 min 0,000 mm 0,0 UV-I 0 W/m 6,8 C 13,2 C 6,4 km/h (2 Bft) 100,00 %
11.11.2015 03:34 13,2 C 65 % 1023,8 hPa 0,0 l/m 4,5 km/h (1 Bft) W 267 0 min 0,000 mm 0,0 UV-I 0 W/m 6,8 C 13,2 C 9,7 km/h (2 Bft) 100,00 %
11.11.2015 03:35 13,2 C 65 % 1023,8 hPa 0,0 l/m 4,6 km/h (1 Bft) W 267 0 min 0,000 mm 0,0 UV-I 0 W/m 6,8 C 13,2 C 6,4 km/h (2 Bft) 100,00 %
11.11.2015 03:36 13,2 C 65 % 1023,8 hPa 0,0 l/m 4,7 km/h (1 Bft) W 265 0 min 0,000 mm 0,0 UV-I 0 W/m 6,8 C 13,2 C 6,4 km/h (2 Bft) 100,00 %
11.11.2015 03:37 13,2 C 65 % 1023,8 hPa 0,0 l/m 4,5 km/h (1 Bft) W-SW 248 0 min 0,000 mm 0,0 UV-I 0 W/m 6,8 C 13,2 C 6,4 km/h (2 Bft) 100,00 %
11.11.2015 03:38 13,2 C 65 % 1023,8 hPa 0,0 l/m 4,3 km/h (1 Bft) SW 229 0 min 0,000 mm 0,0 UV-I 0 W/m 6,8 C 13,2 C 6,4 km/h (2 Bft) 100,00 %
11.11.2015 03:39 13,2 C 66 % 1023,8 hPa 0,0 l/m 5,2 km/h (1 Bft) W 261 0 min 0,000 mm 0,0 UV-I 0 W/m 7,0 C 13,2 C 6,4 km/h (2 Bft) 100,00 %
11.11.2015 03:40 13,2 C 66 % 1023,8 hPa 0,0 l/m 4,2 km/h (1 Bft) W-SW 254 0 min 0,000 mm 0,0 UV-I 0 W/m 7,0 C 13,2 C 4,8 km/h (1 Bft) 100,00 %
11.11.2015 03:41 13,2 C 65 % 1023,8 hPa 0,0 l/m 6,9 km/h (2 Bft) W 263 0 min 0,000 mm 0,0 UV-I 0 W/m 6,8 C 12,9 C 11,3 km/h (2 Bft) 100,00 %
11.11.2015 03:42 13,2 C 65 % 1023,8 hPa 0,0 l/m 6,0 km/h (2 Bft) W 277 0 min 0,000 mm 0,0 UV-I 0 W/m 6,8 C 13,2 C 11,3 km/h (2 Bft) 100,00 %
11.11.2015 03:43 13,2 C 65 % 1023,8 hPa 0,0 l/m 5,9 km/h (2 Bft) W 276 0 min 0,000 mm 0,0 UV-I 0 W/m 6,8 C 13,2 C 11,3 km/h (2 Bft) 100,00 %
11.11.2015 03:44 13,2 C 65 % 1023,8 hPa 0,0 l/m 3,8 km/h (1 Bft) W 265 0 min 0,000 mm 0,0 UV-I 0 W/m 6,8 C 13,2 C 4,8 km/h (1 Bft) 100,00 %
11.11.2015 03:45 13,2 C 66 % 1023,9 hPa 0,0 l/m 4,6 km/h (1 Bft) W 273 0 min 0,000 mm 0,0 UV-I 0 W/m 7,0 C 13,2 C 9,7 km/h (2 Bft) 96,15 %
11.11.2015 03:46 13,2 C 65 % 1023,8 hPa 0,0 l/m 4,8 km/h (1 Bft) W-NW 291 0 min 0,000 mm 0,0 UV-I 0 W/m 6,8 C 13,2 C 9,7 km/h (2 Bft) 100,00 %
11.11.2015 03:47 13,2 C 65 % 1023,9 hPa 0,0 l/m 3,9 km/h (1 Bft) W-SW 258 0 min 0,000 mm 0,0 UV-I 0 W/m 6,8 C 13,2 C 4,8 km/h (1 Bft) 100,00 %
11.11.2015 03:48 13,2 C 65 % 1023,8 hPa 0,0 l/m 4,9 km/h (1 Bft) W 273 0 min 0,000 mm 0,0 UV-I 0 W/m 6,8 C 13,2 C 6,4 km/h (2 Bft) 100,00 %
11.11.2015 03:49 13,2 C 65 % 1023,9 hPa 0,0 l/m 5,2 km/h (1 Bft) W-NW 296 0 min 0,000 mm 0,0 UV-I 0 W/m 6,8 C 13,2 C 8,0 km/h (2 Bft) 100,00 %
11.11.2015 03:50 13,2 C 65 % 1023,9 hPa 0,0 l/m 4,7 km/h (1 Bft) W 276 0 min 0,000 mm 0,0 UV-I 0 W/m 6,8 C 13,2 C 6,4 km/h (2 Bft) 100,00 %
11.11.2015 03:51 13,2 C 65 % 1023,9 hPa 0,0 l/m 6,2 km/h (2 Bft) W 281 0 min 0,000 mm 0,0 UV-I 0 W/m 6,8 C 13,2 C 9,7 km/h (2 Bft) 100,00 %
11.11.2015 03:52 13,2 C 65 % 1023,9 hPa 0,0 l/m 4,8 km/h (1 Bft) W 279 0 min 0,000 mm 0,0 UV-I 0 W/m 6,8 C 13,2 C 6,4 km/h (2 Bft) 100,00 %
11.11.2015 03:53 13,2 C 65 % 1023,9 hPa 0,0 l/m 3,3 km/h (1 Bft) W 274 0 min 0,000 mm 0,0 UV-I 0 W/m 6,8 C 13,2 C 4,8 km/h (1 Bft) 100,00 %
11.11.2015 03:54 13,2 C 65 % 1023,9 hPa 0,0 l/m 5,6 km/h (1 Bft) W 271 0 min 0,000 mm 0,0 UV-I 0 W/m 6,8 C 13,2 C 9,7 km/h (2 Bft) 96,15 %
11.11.2015 03:55 13,2 C 65 % 1023,9 hPa 0,0 l/m 2,5 km/h (1 Bft) W-NW 286 0 min 0,000 mm 0,0 UV-I 0 W/m 6,8 C 13,2 C 4,8 km/h (1 Bft) 100,00 %
11.11.2015 03:56 13,2 C 66 % 1023,9 hPa 0,0 l/m 3,0 km/h (1 Bft) W 275 0 min 0,000 mm 0,0 UV-I 0 W/m 7,0 C 13,2 C 4,8 km/h (1 Bft) 100,00 %
11.11.2015 03:57 13,2 C 65 % 1024,0 hPa 0,0 l/m 3,0 km/h (1 Bft) W 260 0 min 0,000 mm 0,0 UV-I 0 W/m 6,8 C 13,2 C 6,4 km/h (2 Bft) 100,00 %
11.11.2015 03:58 13,2 C 65 % 1024,0 hPa 0,0 l/m 4,3 km/h (1 Bft) NW 309 0 min 0,000 mm 0,0 UV-I 0 W/m 6,8 C 13,2 C 6,4 km/h (2 Bft) 95,65 %
11.11.2015 03:59 13,2 C 65 % 1023,9 hPa 0,0 l/m 3,3 km/h (1 Bft) W-NW 286 0 min 0,000 mm 0,0 UV-I 0 W/m 6,8 C 13,2 C 6,4 km/h (2 Bft) 95,83 %
11.11.2015 04:00 13,2 C 66 % 1024,0 hPa 0,0 l/m 1,7 km/h (1 Bft) W-NW 286 0 min 0,026 mm 0,0 UV-I 0 W/m 7,0 C 13,2 C 3,2 km/h (1 Bft) 100,00 %
11.11.2015 04:01 13,2 C 66 % 1024,0 hPa 0,0 l/m 1,4 km/h (1 Bft) W-NW 285 0 min 0,000 mm 0,0 UV-I 0 W/m 7,0 C 13,2 C 3,2 km/h (1 Bft) 100,00 %
11.11.2015 04:02 13,2 C 66 % 1024,0 hPa 0,0 l/m 2,0 km/h (1 Bft) W-NW 284 0 min 0,000 mm 0,0 UV-I 0 W/m 7,0 C 13,2 C 3,2 km/h (1 Bft) 100,00 %
11.11.2015 04:03 13,2 C 66 % 1024,0 hPa 0,0 l/m 2,9 km/h (1 Bft) W-NW 301 0 min 0,000 mm 0,0 UV-I 0 W/m 7,0 C 13,2 C 4,8 km/h (1 Bft) 100,00 %
11.11.2015 04:04 13,2 C 66 % 1024,0 hPa 0,0 l/m 3,3 km/h (1 Bft) W 278 0 min 0,000 mm 0,0 UV-I 0 W/m 7,0 C 13,2 C 6,4 km/h (2 Bft) 100,00 %
11.11.2015 04:05 13,2 C 66 % 1024,0 hPa 0,0 l/m 2,0 km/h (1 Bft) W-NW 286 0 min 0,000 mm 0,0 UV-I 0 W/m 7,0 C 13,2 C 4,8 km/h (1 Bft) 100,00 %
11.11.2015 04:06 13,2 C 66 % 1024,0 hPa 0,0 l/m 1,3 km/h (1 Bft) W-NW 286 0 min 0,000 mm 0,0 UV-I 0 W/m 7,0 C 13,2 C 3,2 km/h (1 Bft) 100,00 %
11.11.2015 04:07 13,1 C 66 % 1024,1 hPa 0,0 l/m 2,8 km/h (1 Bft) W-SW 240 0 min 0,000 mm 0,0 UV-I 0 W/m 6,9 C 13,1 C 4,8 km/h (1 Bft) 100,00 %
11.11.2015 04:08 13,1 C 66 % 1024,1 hPa 0,0 l/m 2,5 km/h (1 Bft) W 264 0 min 0,000 mm 0,0 UV-I 0 W/m 6,9 C 13,1 C 4,8 km/h (1 Bft) 100,00 %
11.11.2015 04:09 13,2 C 66 % 1024,1 hPa 0,0 l/m 3,9 km/h (1 Bft) W-NW 288 0 min 0,000 mm 0,0 UV-I 0 W/m 7,0 C 13,2 C 6,4 km/h (2 Bft) 95,83 %
11.11.2015 04:10 13,2 C 66 % 1024,1 hPa 0,0 l/m 3,1 km/h (1 Bft) W-NW 294 0 min 0,000 mm 0,0 UV-I 0 W/m 7,0 C 13,2 C 4,8 km/h (1 Bft) 100,00 %
11.11.2015 04:11 13,2 C 66 % 1024,1 hPa 0,0 l/m 3,6 km/h (1 Bft) W-SW 244 0 min 0,000 mm 0,0 UV-I 0 W/m 7,0 C 13,2 C 6,4 km/h (2 Bft) 100,00 %
11.11.2015 04:12 13,2 C 66 % 1024,2 hPa 0,0 l/m 2,8 km/h (1 Bft) W-NW 293 0 min 0,000 mm 0,0 UV-I 0 W/m 7,0 C 13,2 C 3,2 km/h (1 Bft) 100,00 %
11.11.2015 04:13 13,2 C 66 % 1024,2 hPa 0,0 l/m 1,5 km/h (1 Bft) W-NW 293 0 min 0,000 mm 0,0 UV-I 0 W/m 7,0 C 13,2 C 3,2 km/h (1 Bft) 100,00 %
11.11.2015 04:14 13,2 C 66 % 1024,2 hPa 0,0 l/m 1,1 km/h (1 Bft) W 270 0 min 0,000 mm 0,0 UV-I 0 W/m 7,0 C 13,2 C 4,8 km/h (1 Bft) 100,00 %
11.11.2015 04:15 13,2 C 66 % 1024,2 hPa 0,0 l/m 1,8 km/h (1 Bft) W 270 0 min 0,000 mm 0,0 UV-I 0 W/m 7,0 C 13,2 C 3,2 km/h (1 Bft) 100,00 %
11.11.2015 04:16 13,1 C 66 % 1024,2 hPa 0,0 l/m 1,2 km/h (1 Bft) W 271 0 min 0,000 mm 0,0 UV-I 0 W/m 6,9 C 13,1 C 1,6 km/h (1 Bft) 100,00 %
11.11.2015 04:17 13,1 C 66 % 1024,2 hPa 0,0 l/m 1,2 km/h (1 Bft) W 271 0 min 0,000 mm 0,0 UV-I 0 W/m 6,9 C 13,1 C 1,6 km/h (1 Bft) 100,00 %
11.11.2015 04:18 13,1 C 66 % 1024,3 hPa 0,0 l/m 1,7 km/h (1 Bft) W 271 0 min 0,000 mm 0,0 UV-I 0 W/m 6,9 C 13,1 C 3,2 km/h (1 Bft) 100,00 %
11.11.2015 04:19 13,1 C 67 % 1024,3 hPa 0,0 l/m 1,3 km/h (1 Bft) W 271 0 min 0,000 mm 0,0 UV-I 0 W/m 7,1 C 13,1 C 1,6 km/h (1 Bft) 100,00 %
11.11.2015 04:20 13,0 C 68 % 1024,3 hPa 0,0 l/m 1,3 km/h (1 Bft) W 271 0 min 0,000 mm 0,0 UV-I 0 W/m 7,2 C 13,0 C 3,2 km/h (1 Bft) 100,00 %
11.11.2015 04:21 12,9 C 68 % 1024,2 hPa 0,0 l/m 0,5 km/h (0 Bft) W 271 0 min 0,000 mm 0,0 UV-I 0 W/m 7,1 C 12,9 C 1,6 km/h (1 Bft) 100,00 %
11.11.2015 04:22 12,9 C 68 % 1024,2 hPa 0,0 l/m 0,9 km/h (0 Bft) W 271 0 min 0,000 mm 0,0 UV-I 0 W/m 7,1 C 12,9 C 1,6 km/h (1 Bft) 100,00 %
11.11.2015 04:23 12,8 C 68 % 1024,3 hPa 0,0 l/m 0,4 km/h (0 Bft) W 271 0 min 0,000 mm 0,0 UV-I 0 W/m 7,0 C 12,8 C 1,6 km/h (1 Bft) 100,00 %
11.11.2015 04:24 12,8 C 68 % 1024,3 hPa 0,0 l/m 0,5 km/h (0 Bft) W 271 0 min 0,000 mm 0,0 UV-I 0 W/m 7,0 C 12,8 C 1,6 km/h (1 Bft) 100,00 %
11.11.2015 04:25 12,8 C 68 % 1024,3 hPa 0,0 l/m 0,6 km/h (0 Bft) W 275 0 min 0,000 mm 0,0 UV-I 0 W/m 7,0 C 12,8 C 1,6 km/h (1 Bft) 100,00 %
11.11.2015 04:26 12,8 C 68 % 1024,3 hPa 0,0 l/m 2,0 km/h (1 Bft) W-NW 292 0 min 0,000 mm 0,0 UV-I 0 W/m 7,0 C 12,8 C 4,8 km/h (1 Bft) 100,00 %
11.11.2015 04:27 12,8 C 68 % 1024,3 hPa 0,0 l/m 0,8 km/h (0 Bft) W-NW 292 0 min 0,000 mm 0,0 UV-I 0 W/m 7,0 C 12,8 C 1,6 km/h (1 Bft) 100,00 %
11.11.2015 04:28 12,8 C 68 % 1024,3 hPa 0,0 l/m 0,2 km/h (0 Bft) W-NW 292 0 min 0,000 mm 0,0 UV-I 0 W/m 7,0 C 12,8 C 1,6 km/h (1 Bft) 100,00 %
11.11.2015 04:29 12,8 C 69 % 1024,3 hPa 0,0 l/m 0,0 km/h (0 Bft) W-NW 292 0 min 0,000 mm 0,0 UV-I 0 W/m 7,3 C 12,8 C 0,0 km/h (0 Bft) 100,00 %
11.11.2015 04:30 12,8 C 69 % 1024,3 hPa 0,0 l/m 0,3 km/h (0 Bft) W-NW 292 0 min 0,000 mm 0,0 UV-I 0 W/m 7,3 C 12,8 C 1,6 km/h (1 Bft) 100,00 %
11.11.2015 04:31 12,8 C 69 % 1024,3 hPa 0,0 l/m 0,6 km/h (0 Bft) W-NW 292 0 min 0,000 mm 0,0 UV-I 0 W/m 7,3 C 12,8 C 1,6 km/h (1 Bft) 100,00 %
11.11.2015 04:32 12,7 C 69 % 1024,3 hPa 0,0 l/m 1,5 km/h (1 Bft) W-NW 292 0 min 0,000 mm 0,0 UV-I 0 W/m 7,2 C 12,7 C 3,2 km/h (1 Bft) 100,00 %
11.11.2015 04:33 12,7 C 70 % 1024,3 hPa 0,0 l/m 0,0 km/h (0 Bft) W-NW 292 0 min 0,000 mm 0,0 UV-I 0 W/m 7,4 C 12,7 C 0,0 km/h (0 Bft) 100,00 %
11.11.2015 04:34 12,7 C 69 % 1024,3 hPa 0,0 l/m 2,1 km/h (1 Bft) W 274 0 min 0,000 mm 0,0 UV-I 0 W/m 7,2 C 12,7 C 3,2 km/h (1 Bft) 100,00 %
11.11.2015 04:35 12,7 C 69 % 1024,3 hPa 0,0 l/m 1,1 km/h (1 Bft) W 274 0 min 0,000 mm 0,0 UV-I 0 W/m 7,2 C 12,7 C 3,2 km/h (1 Bft) 100,00 %
11.11.2015 04:36 12,7 C 69 % 1024,3 hPa 0,0 l/m 0,9 km/h (0 Bft) W 274 0 min 0,000 mm 0,0 UV-I 0 W/m 7,2 C 12,7 C 3,2 km/h (1 Bft) 100,00 %
11.11.2015 04:37 12,7 C 69 % 1024,4 hPa 0,0 l/m 1,8 km/h (1 Bft) W-NW 284 0 min 0,000 mm 0,0 UV-I 0 W/m 7,2 C 12,7 C 3,2 km/h (1 Bft) 100,00 %
11.11.2015 04:38 12,8 C 69 % 1024,4 hPa 0,0 l/m 1,3 km/h (1 Bft) W-NW 284 0 min 0,000 mm 0,0 UV-I 0 W/m 7,3 C 12,8 C 1,6 km/h (1 Bft) 100,00 %
11.11.2015 04:39 12,8 C 69 % 1024,4 hPa 0,0 l/m 0,7 km/h (0 Bft) W-NW 284 0 min 0,000 mm 0,0 UV-I 0 W/m 7,3 C 12,8 C 1,6 km/h (1 Bft) 100,00 %
11.11.2015 04:40 12,8 C 69 % 1024,4 hPa 0,0 l/m 1,0 km/h (0 Bft) W 273 0 min 0,000 mm 0,0 UV-I 0 W/m 7,3 C 12,8 C 1,6 km/h (1 Bft) 100,00 %
11.11.2015 04:41 12,8 C 69 % 1024,4 hPa 0,0 l/m 1,7 km/h (1 Bft) W 273 0 min 0,000 mm 0,0 UV-I 0 W/m 7,3 C 12,8 C 3,2 km/h (1 Bft) 100,00 %
11.11.2015 04:42 12,8 C 68 % 1024,4 hPa 0,0 l/m 2,3 km/h (1 Bft) W 273 0 min 0,000 mm 0,0 UV-I 0 W/m 7,0 C 12,8 C 3,2 km/h (1 Bft) 96,15 %
11.11.2015 04:43 12,8 C 68 % 1024,4 hPa 0,0 l/m 2,5 km/h (1 Bft) SW 225 0 min 0,000 mm 0,0 UV-I 0 W/m 7,0 C 12,8 C 3,2 km/h (1 Bft) 100,00 %
11.11.2015 04:44 12,8 C 69 % 1024,3 hPa 0,0 l/m 2,5 km/h (1 Bft) SW 225 0 min 0,000 mm 0,0 UV-I 0 W/m 7,3 C 12,8 C 3,2 km/h (1 Bft) 96,15 %
11.11.2015 04:45 12,8 C 70 % 1024,3 hPa 0,0 l/m 2,2 km/h (1 Bft) SW 225 0 min 0,000 mm 0,0 UV-I 0 W/m 7,5 C 12,8 C 3,2 km/h (1 Bft) 100,00 %
11.11.2015 04:46 12,8 C 69 % 1024,4 hPa 0,0 l/m 1,0 km/h (0 Bft) SW 225 0 min 0,000 mm 0,0 UV-I 0 W/m 7,3 C 12,8 C 1,6 km/h (1 Bft) 99,71 %
11.11.2015 04:47 12,7 C 69 % 1024,3 hPa 0,0 l/m 0,4 km/h (0 Bft) SW 225 0 min 0,000 mm 0,0 UV-I 0 W/m 7,2 C 12,7 C 1,6 km/h (1 Bft) 100,00 %
11.11.2015 04:48 12,7 C 69 % 1024,3 hPa 0,0 l/m 0,6 km/h (0 Bft) SW 225 0 min 0,000 mm 0,0 UV-I 0 W/m 7,2 C 12,7 C 1,6 km/h (1 Bft) 100,00 %
11.11.2015 04:49 12,7 C 69 % 1024,3 hPa 0,0 l/m 1,0 km/h (0 Bft) SW 225 0 min 0,000 mm 0,0 UV-I 0 W/m 7,2 C 12,7 C 1,6 km/h (1 Bft) 100,00 %
11.11.2015 04:50 12,7 C 69 % 1024,3 hPa 0,0 l/m 0,6 km/h (0 Bft) SW 225 0 min 0,000 mm 0,0 UV-I 0 W/m 7,2 C 12,7 C 1,6 km/h (1 Bft) 100,00 %
11.11.2015 04:51 12,7 C 69 % 1024,3 hPa 0,0 l/m 0,7 km/h (0 Bft) SW 225 0 min 0,000 mm 0,0 UV-I 0 W/m 7,2 C 12,7 C 1,6 km/h (1 Bft) 100,00 %
11.11.2015 04:52 12,7 C 69 % 1024,3 hPa 0,0 l/m 0,3 km/h (0 Bft) SW 225 0 min 0,000 mm 0,0 UV-I 0 W/m 7,2 C 12,7 C 1,6 km/h (1 Bft) 100,00 %
11.11.2015 04:53 12,7 C 69 % 1024,3 hPa 0,0 l/m 0,3 km/h (0 Bft) SW 225 0 min 0,000 mm 0,0 UV-I 0 W/m 7,2 C 12,7 C 1,6 km/h (1 Bft) 100,00 %
11.11.2015 04:54 12,7 C 69 % 1024,3 hPa 0,0 l/m 0,6 km/h (0 Bft) SW 225 0 min 0,000 mm 0,0 UV-I 0 W/m 7,2 C 12,7 C 1,6 km/h (1 Bft) 100,00 %
11.11.2015 04:55 12,7 C 69 % 1024,3 hPa 0,0 l/m 1,1 km/h (1 Bft) SW 225 0 min 0,000 mm 0,0 UV-I 0 W/m 7,2 C 12,7 C 1,6 km/h (1 Bft) 100,00 %
11.11.2015 04:56 12,7 C 69 % 1024,4 hPa 0,0 l/m 0,5 km/h (0 Bft) SW 225 0 min 0,000 mm 0,0 UV-I 0 W/m 7,2 C 12,7 C 1,6 km/h (1 Bft) 100,00 %
11.11.2015 04:57 12,7 C 69 % 1024,4 hPa 0,0 l/m 0,5 km/h (0 Bft) SW 225 0 min 0,000 mm 0,0 UV-I 0 W/m 7,2 C 12,7 C 1,6 km/h (1 Bft) 100,00 %
11.11.2015 04:58 12,7 C 70 % 1024,4 hPa 0,0 l/m 0,0 km/h (0 Bft) SW 225 0 min 0,000 mm 0,0 UV-I 0 W/m 7,4 C 12,7 C 0,0 km/h (0 Bft) 100,00 %
11.11.2015 04:59 12,6 C 70 % 1024,4 hPa 0,0 l/m 0,0 km/h (0 Bft) SW 225 0 min 0,000 mm 0,0 UV-I 0 W/m 7,3 C 12,6 C 0,0 km/h (0 Bft) 100,00 %
11.11.2015 05:00 12,6 C 70 % 1024,4 hPa 0,0 l/m 0,0 km/h (0 Bft) SW 225 0 min 0,000 mm 0,0 UV-I 0 W/m 7,3 C 12,6 C 0,0 km/h (0 Bft) 100,00 %
11.11.2015 05:01 12,6 C 70 % 1024,4 hPa 0,0 l/m 0,0 km/h (0 Bft) SW 225 0 min 0,000 mm 0,0 UV-I 0 W/m 7,3 C 12,6 C 0,0 km/h (0 Bft) 100,00 %
11.11.2015 05:02 12,6 C 70 % 1024,4 hPa 0,0 l/m 0,0 km/h (0 Bft) SW 225 0 min 0,000 mm 0,0 UV-I 0 W/m 7,3 C 12,6 C 0,0 km/h (0 Bft) 100,00 %
11.11.2015 05:03 12,6 C 70 % 1024,4 hPa 0,0 l/m 0,1 km/h (0 Bft) SW 225 0 min 0,000 mm 0,0 UV-I 0 W/m 7,3 C 12,6 C 1,6 km/h (1 Bft) 100,00 %
11.11.2015 05:04 12,6 C 70 % 1024,4 hPa 0,0 l/m 1,3 km/h (1 Bft) SW 225 0 min 0,000 mm 0,0 UV-I 0 W/m 7,3 C 12,6 C 3,2 km/h (1 Bft) 100,00 %
11.11.2015 05:05 12,6 C 70 % 1024,4 hPa 0,0 l/m 1,5 km/h (1 Bft) SW 225 0 min 0,000 mm 0,0 UV-I 0 W/m 7,3 C 12,6 C 3,2 km/h (1 Bft) 100,00 %
11.11.2015 05:06 12,6 C 71 % 1024,4 hPa 0,0 l/m 3,0 km/h (1 Bft) SW 226 0 min 0,000 mm 0,0 UV-I 0 W/m 7,5 C 12,6 C 4,8 km/h (1 Bft) 100,00 %
11.11.2015 05:07 12,6 C 69 % 1024,4 hPa 0,0 l/m 2,4 km/h (1 Bft) SW 226 0 min 0,000 mm 0,0 UV-I 0 W/m 7,1 C 12,6 C 4,8 km/h (1 Bft) 100,00 %
11.11.2015 05:08 12,5 C 69 % 1024,4 hPa 0,0 l/m 2,8 km/h (1 Bft) SW 226 0 min 0,000 mm 0,0 UV-I 0 W/m 7,0 C 12,5 C 4,8 km/h (1 Bft) 96,15 %
11.11.2015 05:09 12,5 C 69 % 1024,4 hPa 0,0 l/m 2,7 km/h (1 Bft) SW 227 0 min 0,000 mm 0,0 UV-I 0 W/m 7,0 C 12,5 C 4,8 km/h (1 Bft) 100,00 %
11.11.2015 05:10 12,4 C 70 % 1024,4 hPa 0,0 l/m 3,1 km/h (1 Bft) SW 222 0 min 0,000 mm 0,0 UV-I 0 W/m 7,1 C 12,4 C 4,8 km/h (1 Bft) 100,00 %
11.11.2015 05:11 12,5 C 69 % 1024,4 hPa 0,0 l/m 2,7 km/h (1 Bft) S-SW 198 0 min 0,000 mm 0,0 UV-I 0 W/m 7,0 C 12,5 C 4,8 km/h (1 Bft) 95,83 %
11.11.2015 05:12 12,4 C 69 % 1024,4 hPa 0,0 l/m 3,0 km/h (1 Bft) S-SW 205 0 min 0,000 mm 0,0 UV-I 0 W/m 6,9 C 12,4 C 4,8 km/h (1 Bft) 100,00 %
11.11.2015 05:13 12,4 C 69 % 1024,4 hPa 0,0 l/m 2,5 km/h (1 Bft) S-SW 206 0 min 0,000 mm 0,0 UV-I 0 W/m 6,9 C 12,4 C 3,2 km/h (1 Bft) 100,00 %
11.11.2015 05:14 12,4 C 69 % 1024,4 hPa 0,0 l/m 2,6 km/h (1 Bft) SW 221 0 min 0,000 mm 0,0 UV-I 0 W/m 6,9 C 12,4 C 4,8 km/h (1 Bft) 100,00 %
11.11.2015 05:15 12,4 C 69 % 1024,4 hPa 0,0 l/m 2,8 km/h (1 Bft) SW 232 0 min 0,000 mm 0,0 UV-I 0 W/m 6,9 C 12,4 C 4,8 km/h (1 Bft) 100,00 %
11.11.2015 05:16 12,4 C 69 % 1024,4 hPa 0,0 l/m 3,0 km/h (1 Bft) SW 236 0 min 0,000 mm 0,0 UV-I 0 W/m 6,9 C 12,4 C 4,8 km/h (1 Bft) 100,00 %
11.11.2015 05:17 12,4 C 68 % 1024,4 hPa 0,0 l/m 3,3 km/h (1 Bft) SW 228 0 min 0,000 mm 0,0 UV-I 0 W/m 6,7 C 12,4 C 4,8 km/h (1 Bft) 100,00 %
11.11.2015 05:18 12,4 C 68 % 1024,3 hPa 0,0 l/m 4,2 km/h (1 Bft) W-SW 253 0 min 0,000 mm 0,0 UV-I 0 W/m 6,7 C 12,4 C 6,4 km/h (2 Bft) 100,00 %
11.11.2015 05:19 12,5 C 68 % 1024,3 hPa 0,0 l/m 4,1 km/h (1 Bft) S-SW 210 0 min 0,000 mm 0,0 UV-I 0 W/m 6,8 C 12,5 C 6,4 km/h (2 Bft) 100,00 %
11.11.2015 05:20 12,5 C 68 % 1024,3 hPa 0,0 l/m 4,7 km/h (1 Bft) W-SW 254 0 min 0,000 mm 0,0 UV-I 0 W/m 6,8 C 12,5 C 4,8 km/h (1 Bft) 100,00 %
11.11.2015 05:21 12,6 C 68 % 1024,4 hPa 0,0 l/m 4,1 km/h (1 Bft) SW 233 0 min 0,000 mm 0,0 UV-I 0 W/m 6,9 C 12,6 C 6,4 km/h (2 Bft) 91,67 %
11.11.2015 05:22 12,6 C 68 % 1024,3 hPa 0,0 l/m 2,7 km/h (1 Bft) SW 215 0 min 0,000 mm 0,0 UV-I 0 W/m 6,9 C 12,6 C 4,8 km/h (1 Bft) 92,31 %
11.11.2015 05:23 12,6 C 68 % 1024,3 hPa 0,0 l/m 3,4 km/h (1 Bft) SW 228 0 min 0,000 mm 0,0 UV-I 0 W/m 6,9 C 12,6 C 6,4 km/h (2 Bft) 100,00 %
11.11.2015 05:24 12,6 C 67 % 1024,3 hPa 0,0 l/m 3,8 km/h (1 Bft) SW 218 0 min 0,000 mm 0,0 UV-I 0 W/m 6,6 C 12,6 C 4,8 km/h (1 Bft) 100,00 %
11.11.2015 05:25 12,6 C 67 % 1024,3 hPa 0,0 l/m 4,2 km/h (1 Bft) SW 218 0 min 0,000 mm 0,0 UV-I 0 W/m 6,6 C 12,6 C 4,8 km/h (1 Bft) 100,00 %
11.11.2015 05:26 12,6 C 67 % 1024,3 hPa 0,0 l/m 5,3 km/h (1 Bft) SW 236 0 min 0,000 mm 0,0 UV-I 0 W/m 6,6 C 12,6 C 6,4 km/h (2 Bft) 100,00 %
11.11.2015 05:27 12,6 C 67 % 1024,3 hPa 0,0 l/m 4,4 km/h (1 Bft) SW 225 0 min 0,000 mm 0,0 UV-I 0 W/m 6,6 C 12,6 C 6,4 km/h (2 Bft) 100,00 %
11.11.2015 05:28 12,6 C 68 % 1024,4 hPa 0,0 l/m 4,2 km/h (1 Bft) S-SW 211 0 min 0,000 mm 0,0 UV-I 0 W/m 6,9 C 12,6 C 6,4 km/h (2 Bft) 96,30 %
11.11.2015 05:29 12,6 C 67 % 1024,4 hPa 0,0 l/m 6,0 km/h (2 Bft) SW 224 0 min 0,000 mm 0,0 UV-I 0 W/m 6,6 C 12,6 C 8,0 km/h (2 Bft) 100,00 %
11.11.2015 05:30 12,6 C 67 % 1024,4 hPa 0,0 l/m 5,0 km/h (1 Bft) S-SW 200 0 min 0,000 mm 0,0 UV-I 0 W/m 6,6 C 12,6 C 8,0 km/h (2 Bft) 100,00 %
11.11.2015 05:31 12,7 C 67 % 1024,4 hPa 0,0 l/m 5,9 km/h (2 Bft) SW 219 0 min 0,000 mm 0,0 UV-I 0 W/m 6,7 C 12,7 C 8,0 km/h (2 Bft) 100,00 %
11.11.2015 05:32 12,7 C 68 % 1024,3 hPa 0,0 l/m 5,0 km/h (1 Bft) SW 215 0 min 0,000 mm 0,0 UV-I 0 W/m 6,9 C 12,7 C 6,4 km/h (2 Bft) 100,00 %
11.11.2015 05:33 12,7 C 68 % 1024,3 hPa 0,0 l/m 4,6 km/h (1 Bft) SW 236 0 min 0,000 mm 0,0 UV-I 0 W/m 6,9 C 12,7 C 6,4 km/h (2 Bft) 100,00 %
11.11.2015 05:34 12,7 C 68 % 1024,4 hPa 0,0 l/m 5,2 km/h (1 Bft) SW 215 0 min 0,000 mm 0,0 UV-I 0 W/m 6,9 C 12,7 C 8,0 km/h (2 Bft) 100,00 %
11.11.2015 05:35 12,6 C 69 % 1024,3 hPa 0,0 l/m 4,9 km/h (1 Bft) SW 221 0 min 0,000 mm 0,0 UV-I 0 W/m 7,1 C 12,6 C 8,0 km/h (2 Bft) 100,00 %
11.11.2015 05:36 12,6 C 68 % 1024,3 hPa 0,0 l/m 3,4 km/h (1 Bft) SW 219 0 min 0,000 mm 0,0 UV-I 0 W/m 6,9 C 12,6 C 6,4 km/h (2 Bft) 100,00 %
11.11.2015 05:37 12,6 C 69 % 1024,4 hPa 0,0 l/m 1,5 km/h (1 Bft) SW 219 0 min 0,000 mm 0,0 UV-I 0 W/m 7,1 C 12,6 C 3,2 km/h (1 Bft) 100,00 %
11.11.2015 05:38 12,5 C 69 % 1024,4 hPa 0,0 l/m 1,8 km/h (1 Bft) SW 216 0 min 0,000 mm 0,0 UV-I 0 W/m 7,0 C 12,5 C 3,2 km/h (1 Bft) 100,00 %
11.11.2015 05:39 12,5 C 69 % 1024,4 hPa 0,0 l/m 2,6 km/h (1 Bft) W 263 0 min 0,000 mm 0,0 UV-I 0 W/m 7,0 C 12,5 C 4,8 km/h (1 Bft) 100,00 %
11.11.2015 05:40 12,4 C 70 % 1024,4 hPa 0,0 l/m 1,4 km/h (1 Bft) W 271 0 min 0,000 mm 0,0 UV-I 0 W/m 7,1 C 12,4 C 3,2 km/h (1 Bft) 100,00 %
11.11.2015 05:41 12,4 C 70 % 1024,4 hPa 0,0 l/m 2,4 km/h (1 Bft) W-SW 242 0 min 0,000 mm 0,0 UV-I 0 W/m 7,1 C 12,4 C 4,8 km/h (1 Bft) 100,00 %
11.11.2015 05:42 12,4 C 69 % 1024,4 hPa 0,0 l/m 3,1 km/h (1 Bft) W-SW 249 0 min 0,000 mm 0,0 UV-I 0 W/m 6,9 C 12,4 C 6,4 km/h (2 Bft) 100,00 %
11.11.2015 05:43 12,4 C 70 % 1024,4 hPa 0,0 l/m 2,0 km/h (1 Bft) W-SW 240 0 min 0,000 mm 0,0 UV-I 0 W/m 7,1 C 12,4 C 3,2 km/h (1 Bft) 100,00 %
11.11.2015 05:44 12,4 C 69 % 1024,4 hPa 0,0 l/m 2,8 km/h (1 Bft) W-SW 238 0 min 0,000 mm 0,0 UV-I 0 W/m 6,9 C 12,4 C 4,8 km/h (1 Bft) 100,00 %
11.11.2015 05:45 12,4 C 70 % 1024,4 hPa 0,0 l/m 1,9 km/h (1 Bft) W-SW 239 0 min 0,000 mm 0,0 UV-I 0 W/m 7,1 C 12,4 C 3,2 km/h (1 Bft) 100,00 %
11.11.2015 05:46 12,4 C 70 % 1024,3 hPa 0,0 l/m 1,9 km/h (1 Bft) W-SW 239 0 min 0,000 mm 0,0 UV-I 0 W/m 7,1 C 12,4 C 3,2 km/h (1 Bft) 100,00 %
11.11.2015 05:47 12,4 C 70 % 1024,3 hPa 0,0 l/m 2,1 km/h (1 Bft) W-SW 239 0 min 0,000 mm 0,0 UV-I 0 W/m 7,1 C 12,4 C 3,2 km/h (1 Bft) 100,00 %
11.11.2015 05:48 12,4 C 70 % 1024,3 hPa 0,0 l/m 1,9 km/h (1 Bft) W-SW 239 0 min 0,000 mm 0,0 UV-I 0 W/m 7,1 C 12,4 C 3,2 km/h (1 Bft) 100,00 %
11.11.2015 05:49 12,3 C 70 % 1024,3 hPa 0,0 l/m 2,8 km/h (1 Bft) S-SW 212 0 min 0,000 mm 0,0 UV-I 0 W/m 7,0 C 12,3 C 4,8 km/h (1 Bft) 100,00 %
11.11.2015 05:50 12,3 C 70 % 1024,3 hPa 0,0 l/m 2,5 km/h (1 Bft) SW 219 0 min 0,000 mm 0,0 UV-I 0 W/m 7,0 C 12,3 C 4,8 km/h (1 Bft) 96,15 %
11.11.2015 05:51 12,3 C 70 % 1024,3 hPa 0,0 l/m 3,2 km/h (1 Bft) SW 221 0 min 0,000 mm 0,0 UV-I 0 W/m 7,0 C 12,3 C 6,4 km/h (2 Bft) 100,00 %
11.11.2015 05:52 12,3 C 70 % 1024,3 hPa 0,0 l/m 5,8 km/h (2 Bft) SW 218 0 min 0,000 mm 0,0 UV-I 0 W/m 7,0 C 12,3 C 8,0 km/h (2 Bft) 100,00 %
11.11.2015 05:53 12,3 C 69 % 1024,3 hPa 0,0 l/m 6,3 km/h (2 Bft) S-SW 212 0 min 0,000 mm 0,0 UV-I 0 W/m 6,8 C 12,3 C 8,0 km/h (2 Bft) 100,00 %
11.11.2015 05:54 12,4 C 69 % 1024,3 hPa 0,0 l/m 6,5 km/h (2 Bft) SW 232 0 min 0,000 mm 0,0 UV-I 0 W/m 6,9 C 12,4 C 8,0 km/h (2 Bft) 100,00 %
11.11.2015 05:55 12,4 C 69 % 1024,3 hPa 0,0 l/m 6,4 km/h (2 Bft) SW 229 0 min 0,000 mm 0,0 UV-I 0 W/m 6,9 C 12,4 C 8,0 km/h (2 Bft) 100,00 %
11.11.2015 05:56 12,4 C 69 % 1024,2 hPa 0,0 l/m 4,7 km/h (1 Bft) SW 234 0 min 0,000 mm 0,0 UV-I 0 W/m 6,9 C 12,4 C 6,4 km/h (2 Bft) 100,00 %
11.11.2015 05:57 12,4 C 69 % 1024,2 hPa 0,0 l/m 4,3 km/h (1 Bft) SW 227 0 min 0,000 mm 0,0 UV-I 0 W/m 6,9 C 12,4 C 6,4 km/h (2 Bft) 100,00 %
11.11.2015 05:58 12,4 C 69 % 1024,3 hPa 0,0 l/m 4,7 km/h (1 Bft) SW 215 0 min 0,000 mm 0,0 UV-I 0 W/m 6,9 C 12,4 C 6,4 km/h (2 Bft) 100,00 %
11.11.2015 05:59 12,4 C 69 % 1024,3 hPa 0,0 l/m 3,8 km/h (1 Bft) S-SW 205 0 min 0,000 mm 0,0 UV-I 0 W/m 6,9 C 12,4 C 6,4 km/h (2 Bft) 100,00 %
11.11.2015 06:00 12,4 C 69 % 1024,2 hPa 0,0 l/m 5,2 km/h (1 Bft) SW 222 0 min 0,025 mm 0,0 UV-I 0 W/m 6,9 C 12,4 C 8,0 km/h (2 Bft) 100,00 %
11.11.2015 06:01 12,4 C 69 % 1024,2 hPa 0,0 l/m 6,0 km/h (2 Bft) S-SW 208 0 min 0,000 mm 0,0 UV-I 0 W/m 6,9 C 12,4 C 8,0 km/h (2 Bft) 100,00 %
11.11.2015 06:02 12,3 C 70 % 1024,2 hPa 0,0 l/m 4,9 km/h (1 Bft) W-SW 242 0 min 0,000 mm 0,0 UV-I 0 W/m 7,0 C 12,3 C 8,0 km/h (2 Bft) 100,00 %
11.11.2015 06:03 12,3 C 70 % 1024,2 hPa 0,0 l/m 5,1 km/h (1 Bft) SW 224 0 min 0,000 mm 0,0 UV-I 0 W/m 7,0 C 12,3 C 6,4 km/h (2 Bft) 100,00 %
11.11.2015 06:04 12,3 C 70 % 1024,2 hPa 0,0 l/m 4,5 km/h (1 Bft) SW 215 0 min 0,000 mm 0,0 UV-I 0 W/m 7,0 C 12,3 C 6,4 km/h (2 Bft) 99,65 %
11.11.2015 06:05 12,3 C 70 % 1024,2 hPa 0,0 l/m 6,6 km/h (2 Bft) S-SW 203 0 min 0,000 mm 0,0 UV-I 0 W/m 7,0 C 12,2 C 9,7 km/h (2 Bft) 97,56 %
11.11.2015 06:06 12,3 C 70 % 1024,2 hPa 0,0 l/m 5,0 km/h (1 Bft) SW 236 0 min 0,000 mm 0,0 UV-I 0 W/m 7,0 C 12,3 C 8,0 km/h (2 Bft) 100,00 %
11.11.2015 06:07 12,3 C 70 % 1024,2 hPa 0,0 l/m 2,9 km/h (1 Bft) S-SW 213 0 min 0,000 mm 0,0 UV-I 0 W/m 7,0 C 12,3 C 4,8 km/h (1 Bft) 100,00 %
11.11.2015 06:08 12,3 C 70 % 1024,2 hPa 0,0 l/m 2,4 km/h (1 Bft) SW 221 0 min 0,000 mm 0,0 UV-I 0 W/m 7,0 C 12,3 C 4,8 km/h (1 Bft) 100,00 %
11.11.2015 06:09 12,3 C 71 % 1024,2 hPa 0,0 l/m 2,2 km/h (1 Bft) SW 225 0 min 0,000 mm 0,0 UV-I 0 W/m 7,2 C 12,3 C 3,2 km/h (1 Bft) 100,00 %
11.11.2015 06:10 12,3 C 70 % 1024,2 hPa 0,0 l/m 1,8 km/h (1 Bft) W-SW 247 0 min 0,000 mm 0,0 UV-I 0 W/m 7,0 C 12,3 C 3,2 km/h (1 Bft) 100,00 %
11.11.2015 06:11 12,2 C 70 % 1024,2 hPa 0,0 l/m 3,2 km/h (1 Bft) W-SW 255 0 min 0,000 mm 0,0 UV-I 0 W/m 6,9 C 12,2 C 6,4 km/h (2 Bft) 100,00 %
11.11.2015 06:12 12,2 C 70 % 1024,2 hPa 0,0 l/m 3,4 km/h (1 Bft) W 276 0 min 0,000 mm 0,0 UV-I 0 W/m 6,9 C 12,2 C 4,8 km/h (1 Bft) 95,83 %
11.11.2015 06:13 12,2 C 70 % 1024,2 hPa 0,0 l/m 3,4 km/h (1 Bft) W-NW 289 0 min 0,000 mm 0,0 UV-I 0 W/m 6,9 C 12,2 C 4,8 km/h (1 Bft) 100,00 %
11.11.2015 06:14 12,2 C 70 % 1024,2 hPa 0,0 l/m 3,8 km/h (1 Bft) W 280 0 min 0,000 mm 0,0 UV-I 0 W/m 6,9 C 12,2 C 4,8 km/h (1 Bft) 100,00 %
11.11.2015 06:15 12,2 C 70 % 1024,2 hPa 0,0 l/m 2,5 km/h (1 Bft) W-NW 290 0 min 0,000 mm 0,0 UV-I 0 W/m 6,9 C 12,2 C 4,8 km/h (1 Bft) 100,00 %
11.11.2015 06:16 12,2 C 70 % 1024,3 hPa 0,0 l/m 3,7 km/h (1 Bft) W 275 0 min 0,000 mm 0,0 UV-I 0 W/m 6,9 C 12,2 C 4,8 km/h (1 Bft) 100,00 %
11.11.2015 06:17 12,3 C 70 % 1024,3 hPa 0,0 l/m 3,2 km/h (1 Bft) W 281 0 min 0,000 mm 0,0 UV-I 0 W/m 7,0 C 12,3 C 4,8 km/h (1 Bft) 100,00 %
11.11.2015 06:18 12,3 C 69 % 1024,3 hPa 0,0 l/m 5,3 km/h (1 Bft) W-NW 284 0 min 0,000 mm 0,0 UV-I 0 W/m 6,8 C 12,3 C 9,7 km/h (2 Bft) 100,00 %
11.11.2015 06:19 12,3 C 69 % 1024,3 hPa 0,0 l/m 4,5 km/h (1 Bft) W 273 0 min 0,000 mm 0,0 UV-I 0 W/m 6,8 C 12,3 C 6,4 km/h (2 Bft) 100,00 %
11.11.2015 06:20 12,3 C 69 % 1024,3 hPa 0,0 l/m 3,7 km/h (1 Bft) W-SW 250 0 min 0,000 mm 0,0 UV-I 0 W/m 6,8 C 12,3 C 4,8 km/h (1 Bft) 100,00 %
11.11.2015 06:21 12,4 C 69 % 1024,2 hPa 0,0 l/m 4,1 km/h (1 Bft) W 263 0 min 0,000 mm 0,0 UV-I 0 W/m 6,9 C 12,4 C 4,8 km/h (1 Bft) 100,00 %
11.11.2015 06:22 12,4 C 69 % 1024,2 hPa 0,0 l/m 4,0 km/h (1 Bft) W-SW 241 0 min 0,000 mm 0,0 UV-I 0 W/m 6,9 C 12,4 C 4,8 km/h (1 Bft) 100,00 %
11.11.2015 06:23 12,4 C 69 % 1024,1 hPa 0,0 l/m 2,8 km/h (1 Bft) W 265 0 min 0,000 mm 0,0 UV-I 0 W/m 6,9 C 12,4 C 4,8 km/h (1 Bft) 100,00 %
11.11.2015 06:24 12,4 C 69 % 1024,1 hPa 0,0 l/m 4,2 km/h (1 Bft) W 273 0 min 0,000 mm 0,0 UV-I 0 W/m 6,9 C 12,4 C 6,4 km/h (2 Bft) 100,00 %
11.11.2015 06:25 12,4 C 69 % 1024,1 hPa 0,0 l/m 4,8 km/h (1 Bft) W 269 0 min 0,000 mm 0,0 UV-I 0 W/m 6,9 C 12,4 C 6,4 km/h (2 Bft) 100,00 %
11.11.2015 06:26 12,4 C 69 % 1024,1 hPa 0,0 l/m 5,7 km/h (1 Bft) W-SW 248 0 min 0,000 mm 0,0 UV-I 0 W/m 6,9 C 12,4 C 8,0 km/h (2 Bft) 96,15 %
11.11.2015 06:27 12,4 C 68 % 1024,1 hPa 0,0 l/m 7,2 km/h (2 Bft) W-NW 290 0 min 0,000 mm 0,0 UV-I 0 W/m 6,7 C 11,9 C 9,7 km/h (2 Bft) 95,83 %
11.11.2015 06:28 12,4 C 68 % 1024,1 hPa 0,0 l/m 5,0 km/h (1 Bft) W 276 0 min 0,000 mm 0,0 UV-I 0 W/m 6,7 C 12,4 C 9,7 km/h (2 Bft) 100,00 %
11.11.2015 06:29 12,4 C 69 % 1024,1 hPa 0,0 l/m 6,0 km/h (2 Bft) W 269 0 min 0,000 mm 0,0 UV-I 0 W/m 6,9 C 12,4 C 8,0 km/h (2 Bft) 100,00 %
11.11.2015 06:30 12,4 C 70 % 1024,1 hPa 0,0 l/m 4,2 km/h (1 Bft) W 281 0 min 0,000 mm 0,0 UV-I 0 W/m 7,1 C 12,4 C 6,4 km/h (2 Bft) 100,00 %
11.11.2015 06:31 12,4 C 69 % 1024,2 hPa 0,0 l/m 6,6 km/h (2 Bft) W-SW 247 0 min 0,000 mm 0,0 UV-I 0 W/m 6,9 C 12,3 C 11,3 km/h (2 Bft) 100,00 %
11.11.2015 06:32 12,4 C 69 % 1024,1 hPa 0,0 l/m 7,4 km/h (2 Bft) W-SW 244 0 min 0,000 mm 0,0 UV-I 0 W/m 6,9 C 11,7 C 12,9 km/h (3 Bft) 100,00 %
11.11.2015 06:33 12,4 C 70 % 1024,1 hPa 0,0 l/m 8,1 km/h (2 Bft) W 260 0 min 0,000 mm 0,0 UV-I 0 W/m 7,1 C 11,3 C 11,3 km/h (2 Bft) 91,67 %
11.11.2015 06:34 12,4 C 70 % 1024,1 hPa 0,0 l/m 6,0 km/h (2 Bft) W 271 0 min 0,000 mm 0,0 UV-I 0 W/m 7,1 C 12,4 C 9,7 km/h (2 Bft) 100,00 %
11.11.2015 06:35 12,3 C 71 % 1024,1 hPa 0,0 l/m 7,8 km/h (2 Bft) W 280 0 min 0,000 mm 0,0 UV-I 0 W/m 7,2 C 11,4 C 12,9 km/h (3 Bft) 100,00 %
11.11.2015 06:36 12,3 C 71 % 1024,1 hPa 0,0 l/m 7,0 km/h (2 Bft) SW 228 0 min 0,000 mm 0,0 UV-I 0 W/m 7,2 C 11,9 C 12,9 km/h (3 Bft) 100,00 %
11.11.2015 06:37 12,3 C 73 % 1024,1 hPa 0,0 l/m 8,0 km/h (2 Bft) W 269 0 min 0,000 mm 0,0 UV-I 0 W/m 7,6 C 11,3 C 11,3 km/h (2 Bft) 100,00 %
11.11.2015 06:38 12,2 C 73 % 1024,1 hPa 0,0 l/m 8,1 km/h (2 Bft) W-NW 294 0 min 0,000 mm 0,0 UV-I 0 W/m 7,5 C 11,1 C 11,3 km/h (2 Bft) 96,15 %
11.11.2015 06:39 12,2 C 73 % 1024,1 hPa 0,0 l/m 6,8 km/h (2 Bft) W 259 0 min 0,000 mm 0,0 UV-I 0 W/m 7,5 C 11,9 C 11,3 km/h (2 Bft) 100,00 %
11.11.2015 06:40 12,1 C 74 % 1024,1 hPa 0,0 l/m 8,2 km/h (2 Bft) W 267 0 min 0,000 mm 0,0 UV-I 0 W/m 7,6 C 10,9 C 11,3 km/h (2 Bft) 100,00 %
11.11.2015 06:41 12,0 C 74 % 1024,1 hPa 0,0 l/m 6,7 km/h (2 Bft) W 261 0 min 0,000 mm 0,0 UV-I 0 W/m 7,5 C 11,8 C 9,7 km/h (2 Bft) 100,00 %
11.11.2015 06:42 11,9 C 75 % 1024,1 hPa 0,0 l/m 6,8 km/h (2 Bft) W 273 0 min 0,000 mm 0,0 UV-I 0 W/m 7,6 C 11,6 C 11,3 km/h (2 Bft) 96,15 %
11.11.2015 06:43 11,9 C 75 % 1024,1 hPa 0,0 l/m 7,7 km/h (2 Bft) W-NW 298 0 min 0,000 mm 0,0 UV-I 0 W/m 7,6 C 11,0 C 11,3 km/h (2 Bft) 100,00 %
11.11.2015 06:44 11,8 C 75 % 1024,0 hPa 0,0 l/m 5,6 km/h (1 Bft) W-NW 290 0 min 0,000 mm 0,0 UV-I 0 W/m 7,5 C 11,8 C 9,7 km/h (2 Bft) 100,00 %
11.11.2015 06:45 11,8 C 76 % 1024,0 hPa 0,0 l/m 5,0 km/h (1 Bft) W-NW 283 0 min 0,000 mm 0,0 UV-I 0 W/m 7,7 C 11,8 C 9,7 km/h (2 Bft) 100,00 %
11.11.2015 06:46 11,7 C 77 % 1023,9 hPa 0,0 l/m 4,0 km/h (1 Bft) W-NW 288 0 min 0,000 mm 0,0 UV-I 0 W/m 7,8 C 11,7 C 6,4 km/h (2 Bft) 100,00 %
11.11.2015 06:47 11,7 C 77 % 1024,0 hPa 0,0 l/m 4,2 km/h (1 Bft) W-NW 290 0 min 0,000 mm 0,0 UV-I 0 W/m 7,8 C 11,7 C 6,4 km/h (2 Bft) 100,00 %
11.11.2015 06:48 11,7 C 77 % 1024,0 hPa 0,0 l/m 6,0 km/h (2 Bft) W 275 0 min 0,000 mm 0,0 UV-I 0 W/m 7,8 C 11,7 C 6,4 km/h (2 Bft) 100,00 %
11.11.2015 06:49 11,6 C 77 % 1024,0 hPa 0,0 l/m 4,4 km/h (1 Bft) W 280 0 min 0,000 mm 0,0 UV-I 0 W/m 7,7 C 11,6 C 6,4 km/h (2 Bft) 100,00 %
11.11.2015 06:50 11,6 C 78 % 1024,0 hPa 0,0 l/m 5,3 km/h (1 Bft) W-NW 288 0 min 0,000 mm 0,0 UV-I 0 W/m 7,9 C 11,6 C 9,7 km/h (2 Bft) 100,00 %
11.11.2015 06:51 11,6 C 78 % 1024,0 hPa 0,0 l/m 3,4 km/h (1 Bft) W 271 0 min 0,000 mm 0,0 UV-I 0 W/m 7,9 C 11,6 C 4,8 km/h (1 Bft) 100,00 %
11.11.2015 06:52 11,6 C 78 % 1024,0 hPa 0,0 l/m 2,8 km/h (1 Bft) W 278 0 min 0,000 mm 0,0 UV-I 0 W/m 7,9 C 11,6 C 4,8 km/h (1 Bft) 100,00 %
11.11.2015 06:53 11,5 C 79 % 1024,0 hPa 0,0 l/m 2,6 km/h (1 Bft) W 278 0 min 0,000 mm 0,0 UV-I 0 W/m 8,0 C 11,5 C 3,2 km/h (1 Bft) 100,00 %
11.11.2015 06:54 11,4 C 79 % 1024,0 hPa 0,0 l/m 2,8 km/h (1 Bft) W-NW 296 0 min 0,000 mm 0,0 UV-I 0 W/m 7,9 C 11,4 C 4,8 km/h (1 Bft) 100,00 %
11.11.2015 06:55 11,4 C 79 % 1024,0 hPa 0,0 l/m 3,0 km/h (1 Bft) W-NW 296 0 min 0,000 mm 0,0 UV-I 0 W/m 7,9 C 11,4 C 4,8 km/h (1 Bft) 100,00 %
11.11.2015 06:56 11,4 C 79 % 1024,0 hPa 0,0 l/m 2,2 km/h (1 Bft) W-NW 296 0 min 0,000 mm 0,0 UV-I 0 W/m 7,9 C 11,4 C 3,2 km/h (1 Bft) 100,00 %
11.11.2015 06:57 11,4 C 79 % 1024,0 hPa 0,0 l/m 1,4 km/h (1 Bft) W-NW 296 0 min 0,000 mm 0,0 UV-I 0 W/m 7,9 C 11,4 C 3,2 km/h (1 Bft) 100,00 %
11.11.2015 06:58 11,4 C 80 % 1024,1 hPa 0,0 l/m 2,2 km/h (1 Bft) W-NW 292 0 min 0,000 mm 0,0 UV-I 0 W/m 8,1 C 11,4 C 4,8 km/h (1 Bft) 95,83 %
11.11.2015 06:59 11,3 C 80 % 1024,1 hPa 0,0 l/m 3,1 km/h (1 Bft) W 279 0 min 0,000 mm 0,0 UV-I 0 W/m 8,0 C 11,3 C 4,8 km/h (1 Bft) 99,57 %
11.11.2015 07:00 11,3 C 81 % 1024,1 hPa 0,0 l/m 3,3 km/h (1 Bft) W 260 0 min 0,000 mm 0,0 UV-I 0 W/m 8,2 C 11,3 C 4,8 km/h (1 Bft) 100,00 %
11.11.2015 07:01 11,3 C 80 % 1024,1 hPa 0,0 l/m 3,2 km/h (1 Bft) W 275 0 min 0,025 mm 0,0 UV-I 0 W/m 8,0 C 11,3 C 4,8 km/h (1 Bft) 100,00 %
11.11.2015 07:02 11,3 C 80 % 1024,1 hPa 0,0 l/m 2,8 km/h (1 Bft) W-NW 295 0 min 0,000 mm 0,0 UV-I 0 W/m 8,0 C 11,3 C 4,8 km/h (1 Bft) 100,00 %
11.11.2015 07:03 11,3 C 81 % 1024,1 hPa 0,0 l/m 2,4 km/h (1 Bft) W-NW 295 0 min 0,000 mm 0,0 UV-I 0 W/m 8,2 C 11,3 C 3,2 km/h (1 Bft) 100,00 %
11.11.2015 07:04 11,3 C 81 % 1024,1 hPa 0,0 l/m 2,2 km/h (1 Bft) W-NW 294 0 min 0,000 mm 0,0 UV-I 0 W/m 8,2 C 11,3 C 4,8 km/h (1 Bft) 100,00 %
11.11.2015 07:05 11,3 C 80 % 1024,1 hPa 0,0 l/m 3,0 km/h (1 Bft) W 262 0 min 0,000 mm 0,0 UV-I 0 W/m 8,0 C 11,3 C 4,8 km/h (1 Bft) 91,67 %
11.11.2015 07:06 11,3 C 81 % 1024,2 hPa 0,0 l/m 3,9 km/h (1 Bft) W 274 0 min 0,000 mm 0,0 UV-I 0 W/m 8,2 C 11,3 C 4,8 km/h (1 Bft) 100,00 %
11.11.2015 07:07 11,3 C 81 % 1024,2 hPa 0,0 l/m 4,7 km/h (1 Bft) W 274 0 min 0,000 mm 0,0 UV-I 0 W/m 8,2 C 11,3 C 6,4 km/h (2 Bft) 100,00 %
11.11.2015 07:08 11,3 C 81 % 1024,2 hPa 0,0 l/m 3,9 km/h (1 Bft) W 268 0 min 0,000 mm 0,0 UV-I 0 W/m 8,2 C 11,3 C 4,8 km/h (1 Bft) 100,00 %
11.11.2015 07:09 11,3 C 80 % 1024,2 hPa 0,0 l/m 3,9 km/h (1 Bft) W 271 0 min 0,000 mm 0,0 UV-I 2 W/m 8,0 C 11,3 C 4,8 km/h (1 Bft) 100,00 %
11.11.2015 07:10 11,3 C 81 % 1024,2 hPa 0,0 l/m 4,1 km/h (1 Bft) W 265 0 min 0,000 mm 0,0 UV-I 5 W/m 8,2 C 11,3 C 4,8 km/h (1 Bft) 100,00 %
11.11.2015 07:11 11,3 C 80 % 1024,2 hPa 0,0 l/m 4,3 km/h (1 Bft) W-NW 287 0 min 0,000 mm 0,0 UV-I 5 W/m 8,0 C 11,3 C 6,4 km/h (2 Bft) 100,00 %
11.11.2015 07:12 11,4 C 80 % 1024,2 hPa 0,0 l/m 3,7 km/h (1 Bft) W 269 0 min 0,000 mm 0,0 UV-I 5 W/m 8,1 C 11,4 C 4,8 km/h (1 Bft) 100,00 %
11.11.2015 07:13 11,4 C 80 % 1024,2 hPa 0,0 l/m 3,4 km/h (1 Bft) W 271 0 min 0,000 mm 0,0 UV-I 5 W/m 8,1 C 11,4 C 4,8 km/h (1 Bft) 100,00 %
11.11.2015 07:14 11,4 C 80 % 1024,2 hPa 0,0 l/m 3,2 km/h (1 Bft) W 274 0 min 0,000 mm 0,0 UV-I 5 W/m 8,1 C 11,4 C 4,8 km/h (1 Bft) 99,58 %
11.11.2015 07:15 11,4 C 80 % 1024,2 hPa 0,0 l/m 4,2 km/h (1 Bft) W 277 0 min 0,000 mm 0,0 UV-I 5 W/m 8,1 C 11,4 C 6,4 km/h (2 Bft) 100,00 %
11.11.2015 07:16 11,4 C 80 % 1024,1 hPa 0,0 l/m 4,2 km/h (1 Bft) W 267 0 min 0,000 mm 0,0 UV-I 5 W/m 8,1 C 11,4 C 6,4 km/h (2 Bft) 100,00 %
11.11.2015 07:17 11,5 C 80 % 1024,2 hPa 0,0 l/m 4,7 km/h (1 Bft) W 273 0 min 0,000 mm 0,0 UV-I 6 W/m 8,2 C 11,5 C 6,4 km/h (2 Bft) 100,00 %
11.11.2015 07:18 11,4 C 81 % 1024,2 hPa 0,0 l/m 5,1 km/h (1 Bft) W 259 0 min 0,000 mm 0,0 UV-I 7 W/m 8,3 C 11,4 C 6,4 km/h (2 Bft) 93,10 %
11.11.2015 07:19 11,5 C 81 % 1024,2 hPa 0,0 l/m 5,3 km/h (1 Bft) W 275 0 min 0,000 mm 0,0 UV-I 7 W/m 8,4 C 11,5 C 9,7 km/h (2 Bft) 100,00 %
11.11.2015 07:20 11,5 C 81 % 1024,2 hPa 0,0 l/m 5,0 km/h (1 Bft) W-NW 292 0 min 0,000 mm 0,0 UV-I 7 W/m 8,4 C 11,5 C 6,4 km/h (2 Bft) 100,00 %
11.11.2015 07:21 11,5 C 81 % 1024,2 hPa 0,0 l/m 4,7 km/h (1 Bft) W 276 0 min 0,000 mm 0,0 UV-I 7 W/m 8,4 C 11,5 C 6,4 km/h (2 Bft) 100,00 %
11.11.2015 07:22 11,4 C 82 % 1024,2 hPa 0,0 l/m 4,5 km/h (1 Bft) W 274 0 min 0,000 mm 0,0 UV-I 7 W/m 8,4 C 11,4 C 6,4 km/h (2 Bft) 100,00 %
11.11.2015 07:23 11,4 C 82 % 1024,1 hPa 0,0 l/m 5,4 km/h (1 Bft) W 269 0 min 0,000 mm 0,0 UV-I 8 W/m 8,4 C 11,4 C 9,7 km/h (2 Bft) 100,00 %
11.11.2015 07:24 11,4 C 82 % 1024,1 hPa 0,0 l/m 5,3 km/h (1 Bft) W 263 0 min 0,000 mm 0,0 UV-I 9 W/m 8,4 C 11,4 C 6,4 km/h (2 Bft) 100,00 %
11.11.2015 07:25 11,4 C 82 % 1024,1 hPa 0,0 l/m 5,6 km/h (1 Bft) W-SW 251 0 min 0,000 mm 0,0 UV-I 9 W/m 8,4 C 11,4 C 9,7 km/h (2 Bft) 100,00 %
11.11.2015 07:26 11,4 C 82 % 1024,0 hPa 0,0 l/m 4,4 km/h (1 Bft) W 274 0 min 0,000 mm 0,0 UV-I 11 W/m 8,4 C 11,4 C 6,4 km/h (2 Bft) 100,00 %
11.11.2015 07:27 11,3 C 82 % 1024,0 hPa 0,0 l/m 6,0 km/h (2 Bft) W-NW 288 0 min 0,000 mm 0,0 UV-I 11 W/m 8,3 C 11,3 C 8,0 km/h (2 Bft) 93,33 %
11.11.2015 07:28 11,3 C 82 % 1024,0 hPa 0,0 l/m 7,6 km/h (2 Bft) W 273 0 min 0,000 mm 0,0 UV-I 11 W/m 8,3 C 10,5 C 9,7 km/h (2 Bft) 100,00 %
11.11.2015 07:29 11,3 C 82 % 1024,1 hPa 0,0 l/m 6,4 km/h (2 Bft) W-NW 284 0 min 0,000 mm 0,0 UV-I 11 W/m 8,3 C 11,3 C 9,7 km/h (2 Bft) 100,00 %
11.11.2015 07:30 11,3 C 82 % 1024,0 hPa 0,0 l/m 7,8 km/h (2 Bft) W 279 0 min 0,000 mm 0,0 UV-I 11 W/m 8,3 C 10,3 C 12,9 km/h (3 Bft) 100,00 %
11.11.2015 07:31 11,3 C 82 % 1024,1 hPa 0,0 l/m 7,4 km/h (2 Bft) W 281 0 min 0,000 mm 0,0 UV-I 12 W/m 8,3 C 10,6 C 11,3 km/h (2 Bft) 100,00 %
11.11.2015 07:32 11,3 C 82 % 1024,0 hPa 0,0 l/m 7,8 km/h (2 Bft) W 277 0 min 0,000 mm 0,0 UV-I 13 W/m 8,3 C 10,3 C 11,3 km/h (2 Bft) 100,00 %
11.11.2015 07:33 11,3 C 82 % 1024,1 hPa 0,0 l/m 6,4 km/h (2 Bft) W-NW 292 0 min 0,000 mm 0,0 UV-I 14 W/m 8,3 C 11,3 C 9,7 km/h (2 Bft) 100,00 %
11.11.2015 07:34 11,4 C 82 % 1024,1 hPa 0,0 l/m 6,8 km/h (2 Bft) W 266 0 min 0,000 mm 0,0 UV-I 14 W/m 8,4 C 11,1 C 9,7 km/h (2 Bft) 100,00 %
11.11.2015 07:35 11,4 C 82 % 1024,1 hPa 0,0 l/m 7,0 km/h (2 Bft) W 277 0 min 0,000 mm 0,0 UV-I 16 W/m 8,4 C 11,0 C 9,7 km/h (2 Bft) 100,00 %
11.11.2015 07:36 11,4 C 82 % 1024,1 hPa 0,0 l/m 8,3 km/h (2 Bft) W 281 0 min 0,000 mm 0,0 UV-I 16 W/m 8,4 C 10,1 C 11,3 km/h (2 Bft) 100,00 %
11.11.2015 07:37 11,4 C 82 % 1024,1 hPa 0,0 l/m 8,4 km/h (2 Bft) W 273 0 min 0,000 mm 0,0 UV-I 16 W/m 8,4 C 10,1 C 11,3 km/h (2 Bft) 96,15 %
11.11.2015 07:38 11,4 C 82 % 1024,1 hPa 0,0 l/m 8,0 km/h (2 Bft) W-NW 286 0 min 0,000 mm 0,0 UV-I 16 W/m 8,4 C 10,3 C 11,3 km/h (2 Bft) 100,00 %
11.11.2015 07:39 11,4 C 82 % 1024,1 hPa 0,0 l/m 8,4 km/h (2 Bft) W 272 0 min 0,000 mm 0,0 UV-I 17 W/m 8,4 C 10,1 C 12,9 km/h (3 Bft) 100,00 %
11.11.2015 07:40 11,4 C 82 % 1024,1 hPa 0,0 l/m 10,4 km/h (2 Bft) W 277 0 min 0,000 mm 0,0 UV-I 19 W/m 8,4 C 8,9 C 12,9 km/h (3 Bft) 100,00 %
11.11.2015 07:41 11,4 C 81 % 1024,1 hPa 0,0 l/m 7,5 km/h (2 Bft) W-NW 290 0 min 0,000 mm 0,0 UV-I 20 W/m 8,3 C 10,7 C 11,3 km/h (2 Bft) 100,00 %
11.11.2015 07:42 11,5 C 81 % 1024,1 hPa 0,0 l/m 8,1 km/h (2 Bft) W 281 0 min 0,000 mm 0,0 UV-I 23 W/m 8,4 C 10,4 C 11,3 km/h (2 Bft) 100,00 %
11.11.2015 07:43 11,5 C 81 % 1024,2 hPa 0,0 l/m 9,7 km/h (2 Bft) W 271 0 min 0,000 mm 0,0 UV-I 23 W/m 8,4 C 9,4 C 14,5 km/h (3 Bft) 100,00 %
11.11.2015 07:44 11,5 C 81 % 1024,2 hPa 0,0 l/m 8,4 km/h (2 Bft) W 280 0 min 0,000 mm 0,0 UV-I 23 W/m 8,4 C 10,2 C 12,9 km/h (3 Bft) 100,00 %
11.11.2015 07:45 11,6 C 81 % 1024,2 hPa 0,0 l/m 6,9 km/h (2 Bft) W 273 0 min 0,000 mm 0,0 UV-I 23 W/m 8,5 C 11,3 C 9,7 km/h (2 Bft) 100,00 %
11.11.2015 07:46 11,6 C 81 % 1024,2 hPa 0,0 l/m 4,2 km/h (1 Bft) W-SW 256 0 min 0,000 mm 0,0 UV-I 24 W/m 8,5 C 11,6 C 6,4 km/h (2 Bft) 100,00 %
11.11.2015 07:47 11,6 C 81 % 1024,2 hPa 0,0 l/m 8,6 km/h (2 Bft) W 274 0 min 0,000 mm 0,0 UV-I 25 W/m 8,5 C 10,2 C 14,5 km/h (3 Bft) 91,67 %
11.11.2015 07:48 11,6 C 80 % 1024,1 hPa 0,0 l/m 7,2 km/h (2 Bft) W 270 0 min 0,000 mm 0,0 UV-I 25 W/m 8,3 C 11,1 C 12,9 km/h (3 Bft) 100,00 %
11.11.2015 07:49 11,6 C 81 % 1024,2 hPa 0,0 l/m 4,8 km/h (1 Bft) W 269 0 min 0,000 mm 0,0 UV-I 25 W/m 8,5 C 11,6 C 6,4 km/h (2 Bft) 100,00 %
11.11.2015 07:50 11,7 C 80 % 1024,1 hPa 0,0 l/m 6,2 km/h (2 Bft) W-NW 290 0 min 0,000 mm 0,0 UV-I 25 W/m 8,4 C 11,7 C 11,3 km/h (2 Bft) 100,00 %
11.11.2015 07:51 11,7 C 80 % 1024,1 hPa 0,0 l/m 8,1 km/h (2 Bft) W-NW 294 0 min 0,000 mm 0,0 UV-I 26 W/m 8,4 C 10,6 C 12,9 km/h (3 Bft) 100,00 %
11.11.2015 07:52 11,7 C 80 % 1024,2 hPa 0,0 l/m 5,0 km/h (1 Bft) W-NW 294 0 min 0,000 mm 0,0 UV-I 26 W/m 8,4 C 11,7 C 9,7 km/h (2 Bft) 100,00 %
11.11.2015 07:53 11,7 C 80 % 1024,2 hPa 0,0 l/m 4,0 km/h (1 Bft) W-NW 292 0 min 0,000 mm 0,0 UV-I 26 W/m 8,4 C 11,7 C 6,4 km/h (2 Bft) 100,00 %
11.11.2015 07:54 11,7 C 80 % 1024,2 hPa 0,0 l/m 2,8 km/h (1 Bft) W 269 0 min 0,000 mm 0,0 UV-I 28 W/m 8,4 C 11,7 C 6,4 km/h (2 Bft) 100,00 %
11.11.2015 07:55 11,7 C 80 % 1024,3 hPa 0,0 l/m 3,0 km/h (1 Bft) W-NW 293 0 min 0,000 mm 0,0 UV-I 31 W/m 8,4 C 11,7 C 4,8 km/h (1 Bft) 100,00 %
11.11.2015 07:56 11,7 C 80 % 1024,3 hPa 0,0 l/m 0,6 km/h (0 Bft) W-NW 294 0 min 0,000 mm 0,0 UV-I 34 W/m 8,4 C 11,7 C 1,6 km/h (1 Bft) 100,00 %
11.11.2015 07:57 11,7 C 80 % 1024,3 hPa 0,0 l/m 2,9 km/h (1 Bft) W-NW 290 0 min 0,000 mm 0,0 UV-I 36 W/m 8,4 C 11,7 C 4,8 km/h (1 Bft) 100,00 %
11.11.2015 07:58 11,7 C 81 % 1024,3 hPa 0,0 l/m 0,5 km/h (0 Bft) W-NW 290 0 min 0,000 mm 0,0 UV-I 37 W/m 8,5 C 11,7 C 1,6 km/h (1 Bft) 100,00 %
11.11.2015 07:59 11,7 C 81 % 1024,3 hPa 0,0 l/m 0,9 km/h (0 Bft) N-NW 331 0 min 0,000 mm 0,0 UV-I 37 W/m 8,5 C 11,7 C 3,2 km/h (1 Bft) 100,00 %
11.11.2015 08:00 11,6 C 81 % 1024,3 hPa 0,0 l/m 0,4 km/h (0 Bft) N-NW 331 0 min 0,026 mm 0,0 UV-I 35 W/m 8,5 C 11,6 C 1,6 km/h (1 Bft) 100,00 %
11.11.2015 08:01 11,6 C 82 % 1024,3 hPa 0,0 l/m 0,3 km/h (0 Bft) N-NW 331 0 min 0,000 mm 0,0 UV-I 33 W/m 8,6 C 11,6 C 1,6 km/h (1 Bft) 96,30 %
11.11.2015 08:02 11,6 C 82 % 1024,4 hPa 0,0 l/m 0,5 km/h (0 Bft) N-NW 331 0 min 0,000 mm 0,0 UV-I 34 W/m 8,6 C 11,6 C 1,6 km/h (1 Bft) 100,00 %
11.11.2015 08:03 11,5 C 82 % 1024,3 hPa 0,0 l/m 0,0 km/h (0 Bft) N-NW 331 0 min 0,000 mm 0,0 UV-I 36 W/m 8,5 C 11,5 C 0,0 km/h (0 Bft) 100,00 %
11.11.2015 08:04 11,5 C 82 % 1024,3 hPa 0,0 l/m 0,2 km/h (0 Bft) N-NW 345 0 min 0,000 mm 0,0 UV-I 37 W/m 8,5 C 11,5 C 1,6 km/h (1 Bft) 100,00 %
11.11.2015 08:05 11,5 C 81 % 1024,3 hPa 0,0 l/m 2,4 km/h (1 Bft) NW 306 0 min 0,000 mm 0,0 UV-I 39 W/m 8,4 C 11,5 C 3,2 km/h (1 Bft) 96,15 %
11.11.2015 08:06 11,5 C 81 % 1024,3 hPa 0,0 l/m 1,0 km/h (0 Bft) NW 306 0 min 0,000 mm 0,0 UV-I 39 W/m 8,4 C 11,5 C 3,2 km/h (1 Bft) 91,67 %
11.11.2015 08:07 11,6 C 81 % 1024,4 hPa 0,0 l/m 0,9 km/h (0 Bft) NW 308 0 min 0,000 mm 0,0 UV-I 42 W/m 8,5 C 11,6 C 3,2 km/h (1 Bft) 100,00 %
11.11.2015 08:08 11,5 C 81 % 1024,4 hPa 0,0 l/m 0,5 km/h (0 Bft) NW 308 0 min 0,000 mm 0,0 UV-I 47 W/m 8,4 C 11,5 C 1,6 km/h (1 Bft) 100,00 %
11.11.2015 08:09 11,4 C 83 % 1024,4 hPa 0,0 l/m 0,7 km/h (0 Bft) N-NW 344 0 min 0,000 mm 0,0 UV-I 49 W/m 8,6 C 11,4 C 3,2 km/h (1 Bft) 100,00 %
11.11.2015 08:10 11,4 C 83 % 1024,4 hPa 0,0 l/m 0,3 km/h (0 Bft) N-NW 344 0 min 0,000 mm 0,0 UV-I 49 W/m 8,6 C 11,4 C 1,6 km/h (1 Bft) 100,00 %
11.11.2015 08:11 11,3 C 84 % 1024,4 hPa 0,0 l/m 1,5 km/h (1 Bft) N 355 0 min 0,000 mm 0,0 UV-I 47 W/m 8,7 C 11,3 C 3,2 km/h (1 Bft) 93,10 %
11.11.2015 08:12 11,3 C 84 % 1024,4 hPa 0,0 l/m 1,6 km/h (1 Bft) N 11 0 min 0,000 mm 0,0 UV-I 49 W/m 8,7 C 11,3 C 3,2 km/h (1 Bft) 100,00 %
11.11.2015 08:13 11,3 C 84 % 1024,4 hPa 0,0 l/m 2,4 km/h (1 Bft) N-NO 16 0 min 0,000 mm 0,0 UV-I 48 W/m 8,7 C 11,3 C 4,8 km/h (1 Bft) 100,00 %
11.11.2015 08:14 11,3 C 84 % 1024,4 hPa 0,0 l/m 2,2 km/h (1 Bft) N 10 0 min 0,000 mm 0,0 UV-I 46 W/m 8,7 C 11,3 C 3,2 km/h (1 Bft) 100,00 %
11.11.2015 08:15 11,3 C 84 % 1024,5 hPa 0,0 l/m 2,2 km/h (1 Bft) N 355 0 min 0,000 mm 0,0 UV-I 46 W/m 8,7 C 11,3 C 3,2 km/h (1 Bft) 92,86 %
11.11.2015 08:16 11,3 C 84 % 1024,6 hPa 0,0 l/m 2,6 km/h (1 Bft) N 9 0 min 0,000 mm 0,0 UV-I 47 W/m 8,7 C 11,3 C 3,2 km/h (1 Bft) 100,00 %
11.11.2015 08:17 11,3 C 84 % 1024,6 hPa 0,0 l/m 2,2 km/h (1 Bft) N 11 0 min 0,000 mm 0,0 UV-I 47 W/m 8,7 C 11,3 C 3,2 km/h (1 Bft) 100,00 %
11.11.2015 08:18 11,3 C 85 % 1024,6 hPa 0,0 l/m 3,4 km/h (1 Bft) N 9 0 min 0,000 mm 0,0 UV-I 48 W/m 8,9 C 11,3 C 4,8 km/h (1 Bft) 100,00 %
11.11.2015 08:19 11,3 C 84 % 1024,6 hPa 0,0 l/m 1,4 km/h (1 Bft) N 5 0 min 0,000 mm 0,0 UV-I 52 W/m 8,7 C 11,3 C 3,2 km/h (1 Bft) 100,00 %
11.11.2015 08:20 11,3 C 85 % 1024,6 hPa 0,0 l/m 2,1 km/h (1 Bft) N 11 0 min 0,000 mm 0,0 UV-I 56 W/m 8,9 C 11,3 C 3,2 km/h (1 Bft) 100,00 %
11.11.2015 08:21 11,3 C 84 % 1024,6 hPa 0,0 l/m 0,8 km/h (0 Bft) NO 35 0 min 0,000 mm 0,0 UV-I 61 W/m 8,7 C 11,3 C 3,2 km/h (1 Bft) 100,00 %
11.11.2015 08:22 11,3 C 84 % 1024,6 hPa 0,0 l/m 2,5 km/h (1 Bft) N 11 0 min 0,000 mm 0,0 UV-I 69 W/m 8,7 C 11,3 C 4,8 km/h (1 Bft) 100,00 %
11.11.2015 08:23 11,3 C 84 % 1024,6 hPa 0,0 l/m 2,6 km/h (1 Bft) N 11 0 min 0,000 mm 0,0 UV-I 74 W/m 8,7 C 11,3 C 4,8 km/h (1 Bft) 100,00 %
11.11.2015 08:24 11,3 C 84 % 1024,6 hPa 0,0 l/m 2,0 km/h (1 Bft) N 360 0 min 0,000 mm 0,0 UV-I 73 W/m 8,7 C 11,3 C 3,2 km/h (1 Bft) 95,83 %
11.11.2015 08:25 11,4 C 84 % 1024,7 hPa 0,0 l/m 1,2 km/h (1 Bft) N 360 0 min 0,000 mm 0,0 UV-I 68 W/m 8,8 C 11,4 C 3,2 km/h (1 Bft) 100,00 %
11.11.2015 08:26 11,4 C 84 % 1024,7 hPa 0,0 l/m 0,5 km/h (0 Bft) N 360 0 min 0,000 mm 0,0 UV-I 62 W/m 8,8 C 11,4 C 1,6 km/h (1 Bft) 100,00 %
11.11.2015 08:27 11,4 C 84 % 1024,6 hPa 0,0 l/m 1,4 km/h (1 Bft) N 360 0 min 0,000 mm 0,0 UV-I 63 W/m 8,8 C 11,4 C 3,2 km/h (1 Bft) 100,00 %
11.11.2015 08:28 11,4 C 84 % 1024,7 hPa 0,0 l/m 0,8 km/h (0 Bft) N 360 0 min 0,000 mm 0,0 UV-I 68 W/m 8,8 C 11,4 C 1,6 km/h (1 Bft) 100,00 %
11.11.2015 08:29 11,4 C 84 % 1024,7 hPa 0,0 l/m 1,0 km/h (0 Bft) N 360 0 min 0,000 mm 0,0 UV-I 74 W/m 8,8 C 11,4 C 1,6 km/h (1 Bft) 100,00 %
11.11.2015 08:30 11,4 C 84 % 1024,7 hPa 0,0 l/m 3,0 km/h (1 Bft) W-NW 283 0 min 0,000 mm 0,0 UV-I 80 W/m 8,8 C 11,4 C 4,8 km/h (1 Bft) 96,55 %
11.11.2015 08:31 11,4 C 84 % 1024,7 hPa 0,0 l/m 2,2 km/h (1 Bft) NW 316 0 min 0,000 mm 0,0 UV-I 83 W/m 8,8 C 11,4 C 3,2 km/h (1 Bft) 100,00 %
11.11.2015 08:32 11,5 C 84 % 1024,7 hPa 0,0 l/m 2,4 km/h (1 Bft) N-NW 342 0 min 0,000 mm 0,0 UV-I 79 W/m 8,9 C 11,5 C 3,2 km/h (1 Bft) 100,00 %
11.11.2015 08:33 11,5 C 84 % 1024,7 hPa 0,0 l/m 0,9 km/h (0 Bft) N-NW 342 0 min 0,000 mm 0,0 UV-I 75 W/m 8,9 C 11,5 C 1,6 km/h (1 Bft) 95,83 %
11.11.2015 08:34 11,6 C 85 % 1024,7 hPa 0,0 l/m 0,7 km/h (0 Bft) N-NW 342 0 min 0,000 mm 0,0 UV-I 72 W/m 9,2 C 11,6 C 1,6 km/h (1 Bft) 100,00 %
11.11.2015 08:35 11,6 C 84 % 1024,8 hPa 0,0 l/m 1,5 km/h (1 Bft) N-NW 342 0 min 0,000 mm 0,0 UV-I 70 W/m 9,0 C 11,6 C 3,2 km/h (1 Bft) 100,00 %
11.11.2015 08:36 11,5 C 85 % 1024,8 hPa 0,0 l/m 1,3 km/h (1 Bft) NW 318 0 min 0,000 mm 0,0 UV-I 68 W/m 9,1 C 11,5 C 3,2 km/h (1 Bft) 100,00 %
11.11.2015 08:37 11,6 C 84 % 1024,8 hPa 0,0 l/m 1,1 km/h (1 Bft) N-NW 348 0 min 0,000 mm 0,0 UV-I 67 W/m 9,0 C 11,6 C 1,6 km/h (1 Bft) 100,00 %
11.11.2015 08:38 11,6 C 84 % 1024,8 hPa 0,0 l/m 1,9 km/h (1 Bft) N-NW 327 0 min 0,000 mm 0,0 UV-I 68 W/m 9,0 C 11,6 C 3,2 km/h (1 Bft) 100,00 %
11.11.2015 08:39 11,6 C 84 % 1024,8 hPa 0,0 l/m 0,7 km/h (0 Bft) N-NW 327 0 min 0,000 mm 0,0 UV-I 72 W/m 9,0 C 11,6 C 3,2 km/h (1 Bft) 100,00 %
11.11.2015 08:40 11,6 C 85 % 1024,8 hPa 0,0 l/m 0,1 km/h (0 Bft) N-NW 327 0 min 0,000 mm 0,0 UV-I 78 W/m 9,2 C 11,6 C 1,6 km/h (1 Bft) 95,65 %
11.11.2015 08:41 11,6 C 85 % 1024,8 hPa 0,0 l/m 0,3 km/h (0 Bft) N-NW 327 0 min 0,000 mm 0,0 UV-I 84 W/m 9,2 C 11,6 C 1,6 km/h (1 Bft) 95,83 %
11.11.2015 08:42 11,6 C 85 % 1024,8 hPa 0,0 l/m 0,2 km/h (0 Bft) N-NW 327 0 min 0,000 mm 0,0 UV-I 86 W/m 9,2 C 11,6 C 1,6 km/h (1 Bft) 95,83 %
11.11.2015 08:43 11,6 C 85 % 1024,8 hPa 0,0 l/m 0,1 km/h (0 Bft) N-NW 327 0 min 0,000 mm 0,0 UV-I 86 W/m 9,2 C 11,6 C 1,6 km/h (1 Bft) 100,00 %
11.11.2015 08:44 11,6 C 85 % 1024,9 hPa 0,0 l/m 0,4 km/h (0 Bft) N-NW 327 0 min 0,000 mm 0,0 UV-I 84 W/m 9,2 C 11,6 C 1,6 km/h (1 Bft) 100,00 %
11.11.2015 08:45 11,7 C 84 % 1024,9 hPa 0,0 l/m 0,7 km/h (0 Bft) N-NW 328 0 min 0,000 mm 0,0 UV-I 79 W/m 9,1 C 11,7 C 3,2 km/h (1 Bft) 100,00 %
11.11.2015 08:46 11,7 C 84 % 1024,9 hPa 0,0 l/m 1,2 km/h (1 Bft) N-NO 21 0 min 0,000 mm 0,0 UV-I 76 W/m 9,1 C 11,7 C 3,2 km/h (1 Bft) 100,00 %
11.11.2015 08:47 11,7 C 85 % 1024,9 hPa 0,0 l/m 1,7 km/h (1 Bft) N-NO 20 0 min 0,000 mm 0,0 UV-I 76 W/m 9,3 C 11,7 C 3,2 km/h (1 Bft) 100,00 %
11.11.2015 08:48 11,7 C 85 % 1024,9 hPa 0,0 l/m 1,4 km/h (1 Bft) N 349 0 min 0,000 mm 0,0 UV-I 74 W/m 9,3 C 11,7 C 3,2 km/h (1 Bft) 100,00 %
11.11.2015 08:49 11,7 C 85 % 1024,9 hPa 0,0 l/m 0,6 km/h (0 Bft) N 5 0 min 0,000 mm 0,0 UV-I 75 W/m 9,3 C 11,7 C 1,6 km/h (1 Bft) 100,00 %
11.11.2015 08:50 11,7 C 85 % 1024,9 hPa 0,0 l/m 0,5 km/h (0 Bft) N 350 0 min 0,000 mm 0,0 UV-I 79 W/m 9,3 C 11,7 C 1,6 km/h (1 Bft) 100,00 %
11.11.2015 08:51 11,7 C 85 % 1025,0 hPa 0,0 l/m 0,5 km/h (0 Bft) N 350 0 min 0,000 mm 0,0 UV-I 90 W/m 9,3 C 11,7 C 1,6 km/h (1 Bft) 100,00 %
11.11.2015 08:52 11,7 C 85 % 1025,0 hPa 0,0 l/m 0,8 km/h (0 Bft) NW 316 0 min 0,000 mm 0,0 UV-I 89 W/m 9,3 C 11,7 C 3,2 km/h (1 Bft) 100,00 %
11.11.2015 08:53 11,7 C 85 % 1024,9 hPa 0,0 l/m 1,3 km/h (1 Bft) NW 306 0 min 0,000 mm 0,0 UV-I 118 W/m 9,3 C 11,7 C 3,2 km/h (1 Bft) 100,00 %
11.11.2015 08:54 11,7 C 85 % 1025,0 hPa 0,0 l/m 0,6 km/h (0 Bft) NW 306 1 min 0,000 mm 0,0 UV-I 137 W/m 9,3 C 11,7 C 1,6 km/h (1 Bft) 100,00 %
11.11.2015 08:55 11,7 C 85 % 1025,0 hPa 0,0 l/m 0,9 km/h (0 Bft) NW 305 0 min 0,000 mm 0,0 UV-I 132 W/m 9,3 C 11,7 C 3,2 km/h (1 Bft) 100,00 %
11.11.2015 08:56 11,8 C 85 % 1025,0 hPa 0,0 l/m 2,7 km/h (1 Bft) NW 317 0 min 0,000 mm 0,0 UV-I 133 W/m 9,4 C 11,8 C 4,8 km/h (1 Bft) 100,00 %
11.11.2015 08:57 11,8 C 85 % 1025,0 hPa 0,0 l/m 0,5 km/h (0 Bft) NW 317 1 min 0,000 mm 0,0 UV-I 163 W/m 9,4 C 11,8 C 1,6 km/h (1 Bft) 100,00 %
11.11.2015 08:58 11,9 C 85 % 1025,0 hPa 0,0 l/m 0,0 km/h (0 Bft) NW 317 1 min 0,000 mm 0,0 UV-I 156 W/m 9,5 C 11,9 C 0,0 km/h (0 Bft) 100,00 %
11.11.2015 08:59 11,9 C 85 % 1025,0 hPa 0,0 l/m 0,4 km/h (0 Bft) N-NW 329 0 min 0,000 mm 0,0 UV-I 129 W/m 9,5 C 11,9 C 1,6 km/h (1 Bft) 95,65 %
11.11.2015 09:00 12,0 C 86 % 1025,0 hPa 0,0 l/m 1,8 km/h (1 Bft) N-NW 348 1 min 0,051 mm 0,0 UV-I 159 W/m 9,7 C 12,0 C 3,2 km/h (1 Bft) 100,00 %
11.11.2015 09:01 12,1 C 85 % 1025,0 hPa 0,0 l/m 1,3 km/h (1 Bft) N-NW 331 1 min 0,000 mm 0,0 UV-I 144 W/m 9,7 C 12,1 C 3,2 km/h (1 Bft) 100,00 %
11.11.2015 09:02 12,1 C 85 % 1025,0 hPa 0,0 l/m 1,1 km/h (1 Bft) W 280 0 min 0,000 mm 0,0 UV-I 139 W/m 9,7 C 12,1 C 4,8 km/h (1 Bft) 100,00 %
11.11.2015 09:03 12,1 C 84 % 1025,1 hPa 0,0 l/m 2,3 km/h (1 Bft) W-NW 288 0 min 0,000 mm 0,0 UV-I 140 W/m 9,5 C 12,1 C 4,8 km/h (1 Bft) 100,00 %
11.11.2015 09:04 12,1 C 84 % 1025,1 hPa 0,0 l/m 2,3 km/h (1 Bft) N-NO 12 0 min 0,000 mm 0,0 UV-I 133 W/m 9,5 C 12,1 C 3,2 km/h (1 Bft) 100,00 %
11.11.2015 09:05 12,1 C 84 % 1025,1 hPa 0,0 l/m 1,5 km/h (1 Bft) N-NO 13 0 min 0,000 mm 0,0 UV-I 122 W/m 9,5 C 12,1 C 3,2 km/h (1 Bft) 100,00 %
11.11.2015 09:06 12,1 C 84 % 1025,1 hPa 0,0 l/m 0,9 km/h (0 Bft) N 11 0 min 0,000 mm 0,0 UV-I 130 W/m 9,5 C 12,1 C 1,6 km/h (1 Bft) 100,00 %
11.11.2015 09:07 12,2 C 84 % 1025,1 hPa 0,0 l/m 0,4 km/h (0 Bft) N 11 0 min 0,000 mm 0,0 UV-I 141 W/m 9,6 C 12,2 C 1,6 km/h (1 Bft) 100,00 %
11.11.2015 09:08 12,2 C 84 % 1025,1 hPa 0,0 l/m 0,9 km/h (0 Bft) N 11 0 min 0,000 mm 0,0 UV-I 132 W/m 9,6 C 12,2 C 1,6 km/h (1 Bft) 100,00 %
11.11.2015 09:09 12,2 C 85 % 1025,1 hPa 0,0 l/m 0,4 km/h (0 Bft) N 11 0 min 0,000 mm 0,0 UV-I 105 W/m 9,8 C 12,2 C 1,6 km/h (1 Bft) 100,00 %
11.11.2015 09:10 12,2 C 85 % 1025,1 hPa 0,0 l/m 1,5 km/h (1 Bft) W 274 0 min 0,000 mm 0,0 UV-I 104 W/m 9,8 C 12,2 C 4,8 km/h (1 Bft) 100,00 %
11.11.2015 09:11 12,3 C 84 % 1025,1 hPa 0,0 l/m 1,4 km/h (1 Bft) N 360 0 min 0,000 mm 0,0 UV-I 100 W/m 9,7 C 12,3 C 3,2 km/h (1 Bft) 100,00 %
11.11.2015 09:12 12,3 C 84 % 1025,1 hPa 0,0 l/m 2,2 km/h (1 Bft) N-NW 330 0 min 0,000 mm 0,0 UV-I 105 W/m 9,7 C 12,3 C 4,8 km/h (1 Bft) 100,00 %
11.11.2015 09:13 12,3 C 85 % 1025,1 hPa 0,0 l/m 1,0 km/h (0 Bft) N-NW 348 0 min 0,000 mm 0,0 UV-I 108 W/m 9,9 C 12,3 C 3,2 km/h (1 Bft) 100,00 %
11.11.2015 09:14 12,3 C 84 % 1025,1 hPa 0,0 l/m 1,6 km/h (1 Bft) N 355 0 min 0,000 mm 0,0 UV-I 116 W/m 9,7 C 12,3 C 3,2 km/h (1 Bft) 100,00 %
11.11.2015 09:15 12,3 C 84 % 1025,1 hPa 0,0 l/m 3,1 km/h (1 Bft) NW 318 0 min 0,000 mm 0,0 UV-I 128 W/m 9,7 C 12,3 C 4,8 km/h (1 Bft) 100,00 %
11.11.2015 09:16 12,3 C 84 % 1025,1 hPa 0,0 l/m 2,8 km/h (1 Bft) W 273 0 min 0,000 mm 0,0 UV-I 145 W/m 9,7 C 12,3 C 6,4 km/h (2 Bft) 100,00 %
11.11.2015 09:17 12,3 C 84 % 1025,1 hPa 0,0 l/m 4,7 km/h (1 Bft) W-NW 290 0 min 0,000 mm 0,0 UV-I 152 W/m 9,7 C 12,3 C 8,0 km/h (2 Bft) 100,00 %
11.11.2015 09:18 12,3 C 84 % 1025,1 hPa 0,0 l/m 2,4 km/h (1 Bft) W 273 0 min 0,000 mm 0,1 UV-I 153 W/m 9,7 C 12,3 C 4,8 km/h (1 Bft) 100,00 %
11.11.2015 09:19 12,3 C 84 % 1025,1 hPa 0,0 l/m 4,0 km/h (1 Bft) SW 236 0 min 0,000 mm 0,5 UV-I 157 W/m 9,7 C 12,3 C 4,8 km/h (1 Bft) 100,00 %
11.11.2015 09:20 12,3 C 84 % 1025,1 hPa 0,0 l/m 5,0 km/h (1 Bft) W 269 1 min 0,000 mm 0,5 UV-I 169 W/m 9,7 C 12,3 C 8,0 km/h (2 Bft) 100,00 %
11.11.2015 09:21 12,4 C 84 % 1025,1 hPa 0,0 l/m 4,0 km/h (1 Bft) W 280 1 min 0,000 mm 0,5 UV-I 195 W/m 9,8 C 12,4 C 4,8 km/h (1 Bft) 100,00 %
11.11.2015 09:22 12,4 C 84 % 1025,1 hPa 0,0 l/m 2,3 km/h (1 Bft) W-SW 254 1 min 0,000 mm 0,5 UV-I 213 W/m 9,8 C 12,4 C 3,2 km/h (1 Bft) 100,00 %
11.11.2015 09:23 12,5 C 84 % 1025,1 hPa 0,0 l/m 3,0 km/h (1 Bft) W-NW 293 1 min 0,000 mm 0,5 UV-I 208 W/m 9,9 C 12,5 C 4,8 km/h (1 Bft) 100,00 %
11.11.2015 09:24 12,6 C 84 % 1025,1 hPa 0,0 l/m 3,9 km/h (1 Bft) W-NW 293 1 min 0,000 mm 0,5 UV-I 204 W/m 10,0 C 12,6 C 6,4 km/h (2 Bft) 100,00 %
11.11.2015 09:25 12,6 C 84 % 1025,1 hPa 0,0 l/m 2,4 km/h (1 Bft) W 271 1 min 0,000 mm 0,6 UV-I 213 W/m 10,0 C 12,6 C 4,8 km/h (1 Bft) 100,00 %
11.11.2015 09:26 12,7 C 84 % 1025,2 hPa 0,0 l/m 3,7 km/h (1 Bft) W 264 1 min 0,000 mm 0,6 UV-I 213 W/m 10,1 C 12,7 C 4,8 km/h (1 Bft) 100,00 %
11.11.2015 09:27 12,8 C 83 % 1025,1 hPa 0,0 l/m 5,6 km/h (1 Bft) W 265 1 min 0,000 mm 0,6 UV-I 207 W/m 10,0 C 12,8 C 9,7 km/h (2 Bft) 100,00 %
11.11.2015 09:28 12,8 C 83 % 1025,1 hPa 0,0 l/m 4,5 km/h (1 Bft) W 276 1 min 0,000 mm 0,6 UV-I 230 W/m 10,0 C 12,8 C 6,4 km/h (2 Bft) 100,00 %
11.11.2015 09:29 12,9 C 83 % 1025,2 hPa 0,0 l/m 5,7 km/h (1 Bft) W 278 1 min 0,000 mm 0,6 UV-I 233 W/m 10,1 C 12,9 C 9,7 km/h (2 Bft) 92,31 %
11.11.2015 09:30 12,9 C 83 % 1025,2 hPa 0,0 l/m 5,3 km/h (1 Bft) W 279 1 min 0,000 mm 0,6 UV-I 194 W/m 10,1 C 12,9 C 8,0 km/h (2 Bft) 100,00 %
11.11.2015 09:31 13,0 C 82 % 1025,2 hPa 0,0 l/m 5,2 km/h (1 Bft) W 259 1 min 0,000 mm 0,6 UV-I 181 W/m 10,0 C 13,0 C 11,3 km/h (2 Bft) 100,00 %
11.11.2015 09:32 13,0 C 82 % 1025,2 hPa 0,0 l/m 5,1 km/h (1 Bft) W 275 1 min 0,000 mm 0,6 UV-I 183 W/m 10,0 C 13,0 C 11,3 km/h (2 Bft) 100,00 %
11.11.2015 09:33 13,0 C 82 % 1025,2 hPa 0,0 l/m 4,7 km/h (1 Bft) W-NW 290 0 min 0,000 mm 0,6 UV-I 171 W/m 10,0 C 13,0 C 11,3 km/h (2 Bft) 100,00 %
11.11.2015 09:34 13,0 C 82 % 1025,3 hPa 0,0 l/m 8,2 km/h (2 Bft) W-NW 288 0 min 0,000 mm 0,6 UV-I 167 W/m 10,0 C 11,9 C 12,9 km/h (3 Bft) 100,00 %
11.11.2015 09:35 13,0 C 82 % 1025,3 hPa 0,0 l/m 6,3 km/h (2 Bft) W 273 0 min 0,000 mm 0,6 UV-I 148 W/m 10,0 C 13,0 C 9,7 km/h (2 Bft) 96,15 %
11.11.2015 09:36 13,0 C 82 % 1025,3 hPa 0,0 l/m 3,0 km/h (1 Bft) N 11 0 min 0,000 mm 0,6 UV-I 149 W/m 10,0 C 13,0 C 4,8 km/h (1 Bft) 100,00 %
11.11.2015 09:37 13,0 C 82 % 1025,3 hPa 0,0 l/m 2,6 km/h (1 Bft) NW 323 0 min 0,000 mm 0,6 UV-I 142 W/m 10,0 C 13,0 C 4,8 km/h (1 Bft) 100,00 %
11.11.2015 09:38 13,1 C 82 % 1025,3 hPa 0,0 l/m 3,3 km/h (1 Bft) NW 304 0 min 0,000 mm 0,6 UV-I 136 W/m 10,1 C 13,1 C 4,8 km/h (1 Bft) 100,00 %
11.11.2015 09:39 13,1 C 83 % 1025,3 hPa 0,0 l/m 2,3 km/h (1 Bft) N 11 0 min 0,000 mm 0,5 UV-I 128 W/m 10,3 C 13,1 C 3,2 km/h (1 Bft) 100,00 %
11.11.2015 09:40 13,1 C 82 % 1025,3 hPa 0,0 l/m 2,6 km/h (1 Bft) N-NW 347 0 min 0,000 mm 0,5 UV-I 127 W/m 10,1 C 13,1 C 3,2 km/h (1 Bft) 100,00 %
11.11.2015 09:41 13,1 C 83 % 1025,3 hPa 0,0 l/m 2,5 km/h (1 Bft) W 266 0 min 0,000 mm 0,5 UV-I 123 W/m 10,3 C 13,1 C 4,8 km/h (1 Bft) 100,00 %
11.11.2015 09:42 13,1 C 83 % 1025,4 hPa 0,0 l/m 1,9 km/h (1 Bft) N 355 0 min 0,000 mm 0,3 UV-I 119 W/m 10,3 C 13,1 C 3,2 km/h (1 Bft) 100,00 %
11.11.2015 09:43 13,1 C 84 % 1025,4 hPa 0,0 l/m 1,0 km/h (0 Bft) N 355 0 min 0,000 mm 0,0 UV-I 115 W/m 10,5 C 13,1 C 1,6 km/h (1 Bft) 100,00 %
11.11.2015 09:44 13,1 C 84 % 1025,4 hPa 0,0 l/m 1,1 km/h (1 Bft) N 355 0 min 0,000 mm 0,0 UV-I 117 W/m 10,5 C 13,1 C 3,2 km/h (1 Bft) 100,00 %
11.11.2015 09:45 13,2 C 83 % 1025,4 hPa 0,0 l/m 3,5 km/h (1 Bft) N 5 0 min 0,000 mm 0,0 UV-I 118 W/m 10,4 C 13,2 C 4,8 km/h (1 Bft) 100,00 %
11.11.2015 09:46 13,1 C 83 % 1025,4 hPa 0,0 l/m 2,4 km/h (1 Bft) N 9 0 min 0,000 mm 0,0 UV-I 110 W/m 10,3 C 13,1 C 4,8 km/h (1 Bft) 100,00 %
11.11.2015 09:47 13,1 C 83 % 1025,4 hPa 0,0 l/m 1,0 km/h (0 Bft) N-NW 346 0 min 0,000 mm 0,0 UV-I 103 W/m 10,3 C 13,1 C 1,6 km/h (1 Bft) 100,00 %
11.11.2015 09:48 13,1 C 83 % 1025,4 hPa 0,0 l/m 2,6 km/h (1 Bft) N 5 0 min 0,000 mm 0,0 UV-I 99 W/m 10,3 C 13,1 C 4,8 km/h (1 Bft) 100,00 %
11.11.2015 09:49 13,1 C 82 % 1025,4 hPa 0,0 l/m 3,1 km/h (1 Bft) N 11 0 min 0,000 mm 0,0 UV-I 97 W/m 10,1 C 13,1 C 4,8 km/h (1 Bft) 100,00 %
11.11.2015 09:50 13,1 C 82 % 1025,4 hPa 0,0 l/m 2,0 km/h (1 Bft) N 350 0 min 0,000 mm 0,0 UV-I 98 W/m 10,1 C 13,1 C 3,2 km/h (1 Bft) 100,00 %
11.11.2015 09:51 13,1 C 82 % 1025,4 hPa 0,0 l/m 0,3 km/h (0 Bft) N 350 0 min 0,000 mm 0,0 UV-I 102 W/m 10,1 C 13,1 C 1,6 km/h (1 Bft) 100,00 %
11.11.2015 09:52 13,1 C 82 % 1025,4 hPa 0,0 l/m 1,6 km/h (1 Bft) N-NO 16 0 min 0,000 mm 0,0 UV-I 102 W/m 10,1 C 13,1 C 3,2 km/h (1 Bft) 100,00 %
11.11.2015 09:53 13,1 C 82 % 1025,4 hPa 0,0 l/m 2,4 km/h (1 Bft) N-NW 340 0 min 0,000 mm 0,5 UV-I 104 W/m 10,1 C 13,1 C 6,4 km/h (2 Bft) 100,00 %
11.11.2015 09:54 13,1 C 82 % 1025,4 hPa 0,0 l/m 1,9 km/h (1 Bft) N-NO 24 0 min 0,000 mm 0,5 UV-I 106 W/m 10,1 C 13,1 C 3,2 km/h (1 Bft) 100,00 %
11.11.2015 09:55 13,1 C 82 % 1025,4 hPa 0,0 l/m 1,4 km/h (1 Bft) N-NW 331 0 min 0,000 mm 0,5 UV-I 111 W/m 10,1 C 13,1 C 3,2 km/h (1 Bft) 95,83 %
11.11.2015 09:56 13,2 C 82 % 1025,4 hPa 0,0 l/m 1,4 km/h (1 Bft) N-NO 22 0 min 0,000 mm 0,5 UV-I 117 W/m 10,2 C 13,2 C 3,2 km/h (1 Bft) 100,00 %
11.11.2015 09:57 13,2 C 83 % 1025,4 hPa 0,0 l/m 1,9 km/h (1 Bft) N 9 0 min 0,000 mm 0,6 UV-I 121 W/m 10,4 C 13,2 C 3,2 km/h (1 Bft) 100,00 %
11.11.2015 09:58 13,2 C 84 % 1025,4 hPa 0,0 l/m 3,2 km/h (1 Bft) NW 310 0 min 0,000 mm 0,6 UV-I 126 W/m 10,6 C 13,2 C 4,8 km/h (1 Bft) 94,12 %
11.11.2015 09:59 13,2 C 82 % 1025,4 hPa 0,0 l/m 3,0 km/h (1 Bft) N-NW 336 0 min 0,000 mm 0,6 UV-I 133 W/m 10,2 C 13,2 C 4,8 km/h (1 Bft) 95,83 %
11.11.2015 10:00 13,2 C 82 % 1025,4 hPa 0,0 l/m 1,8 km/h (1 Bft) N-NW 338 0 min 0,076 mm 0,6 UV-I 139 W/m 10,2 C 13,2 C 3,2 km/h (1 Bft) 100,00 %
11.11.2015 10:01 13,3 C 82 % 1025,4 hPa 0,0 l/m 0,6 km/h (0 Bft) N-NW 338 0 min 0,000 mm 0,6 UV-I 142 W/m 10,3 C 13,3 C 1,6 km/h (1 Bft) 100,00 %
11.11.2015 10:02 13,3 C 81 % 1025,5 hPa 0,0 l/m 1,9 km/h (1 Bft) N-NW 345 0 min 0,000 mm 0,6 UV-I 141 W/m 10,1 C 13,3 C 4,8 km/h (1 Bft) 95,83 %
11.11.2015 10:03 13,3 C 81 % 1025,4 hPa 0,0 l/m 2,4 km/h (1 Bft) N 11 0 min 0,000 mm 0,6 UV-I 141 W/m 10,1 C 13,3 C 4,8 km/h (1 Bft) 100,00 %
11.11.2015 10:04 13,3 C 81 % 1025,4 hPa 0,0 l/m 1,9 km/h (1 Bft) W-NW 289 0 min 0,000 mm 0,6 UV-I 138 W/m 10,1 C 13,3 C 4,8 km/h (1 Bft) 100,00 %
11.11.2015 10:05 13,3 C 81 % 1025,4 hPa 0,0 l/m 2,1 km/h (1 Bft) N-NW 333 0 min 0,000 mm 0,6 UV-I 135 W/m 10,1 C 13,3 C 3,2 km/h (1 Bft) 100,00 %
11.11.2015 10:06 13,3 C 80 % 1025,5 hPa 0,0 l/m 2,3 km/h (1 Bft) N 360 0 min 0,000 mm 0,6 UV-I 140 W/m 9,9 C 13,3 C 3,2 km/h (1 Bft) 100,00 %
11.11.2015 10:07 13,4 C 80 % 1025,4 hPa 0,0 l/m 1,7 km/h (1 Bft) NW 325 0 min 0,000 mm 0,7 UV-I 149 W/m 10,0 C 13,4 C 3,2 km/h (1 Bft) 100,00 %
11.11.2015 10:08 13,4 C 82 % 1025,5 hPa 0,0 l/m 0,6 km/h (0 Bft) W-NW 287 0 min 0,000 mm 0,7 UV-I 155 W/m 10,4 C 13,4 C 1,6 km/h (1 Bft) 100,00 %
11.11.2015 10:09 13,4 C 80 % 1025,5 hPa 0,0 l/m 1,3 km/h (1 Bft) NW 324 0 min 0,000 mm 0,7 UV-I 155 W/m 10,0 C 13,4 C 3,2 km/h (1 Bft) 100,00 %
11.11.2015 10:10 13,4 C 79 % 1025,5 hPa 0,0 l/m 3,4 km/h (1 Bft) W-SW 244 0 min 0,000 mm 0,6 UV-I 151 W/m 9,8 C 13,4 C 6,4 km/h (2 Bft) 100,00 %
11.11.2015 10:11 13,5 C 78 % 1025,5 hPa 0,0 l/m 3,4 km/h (1 Bft) W-NW 287 0 min 0,000 mm 0,6 UV-I 146 W/m 9,7 C 13,5 C 6,4 km/h (2 Bft) 100,00 %
11.11.2015 10:12 13,5 C 79 % 1025,5 hPa 0,0 l/m 1,6 km/h (1 Bft) W-NW 284 0 min 0,000 mm 0,6 UV-I 143 W/m 9,9 C 13,5 C 3,2 km/h (1 Bft) 100,00 %
11.11.2015 10:13 13,6 C 78 % 1025,5 hPa 0,0 l/m 3,2 km/h (1 Bft) W 279 0 min 0,000 mm 0,7 UV-I 142 W/m 9,8 C 13,6 C 4,8 km/h (1 Bft) 100,00 %
11.11.2015 10:14 13,6 C 77 % 1025,5 hPa 0,0 l/m 4,0 km/h (1 Bft) W-NW 296 0 min 0,000 mm 0,7 UV-I 146 W/m 9,6 C 13,6 C 6,4 km/h (2 Bft) 100,00 %
11.11.2015 10:15 13,6 C 77 % 1025,5 hPa 0,0 l/m 2,7 km/h (1 Bft) W-NW 293 0 min 0,000 mm 0,7 UV-I 154 W/m 9,6 C 13,6 C 4,8 km/h (1 Bft) 100,00 %
11.11.2015 10:16 13,6 C 77 % 1025,5 hPa 0,0 l/m 2,5 km/h (1 Bft) N 11 0 min 0,000 mm 0,7 UV-I 159 W/m 9,6 C 13,6 C 4,8 km/h (1 Bft) 100,00 %
11.11.2015 10:17 13,6 C 77 % 1025,5 hPa 0,0 l/m 3,5 km/h (1 Bft) W 276 0 min 0,000 mm 0,7 UV-I 165 W/m 9,6 C 13,6 C 6,4 km/h (2 Bft) 100,00 %
11.11.2015 10:18 13,6 C 76 % 1025,5 hPa 0,0 l/m 2,4 km/h (1 Bft) W-NW 291 0 min 0,000 mm 0,7 UV-I 166 W/m 9,4 C 13,6 C 6,4 km/h (2 Bft) 100,00 %
11.11.2015 10:19 13,7 C 76 % 1025,5 hPa 0,0 l/m 2,8 km/h (1 Bft) W-NW 285 0 min 0,000 mm 0,8 UV-I 168 W/m 9,5 C 13,7 C 4,8 km/h (1 Bft) 100,00 %
11.11.2015 10:20 13,7 C 75 % 1025,5 hPa 0,0 l/m 0,9 km/h (0 Bft) NW 305 0 min 0,000 mm 0,8 UV-I 174 W/m 9,3 C 13,7 C 3,2 km/h (1 Bft) 100,00 %
11.11.2015 10:21 13,7 C 75 % 1025,5 hPa 0,0 l/m 2,5 km/h (1 Bft) N 355 0 min 0,000 mm 0,8 UV-I 183 W/m 9,3 C 13,7 C 8,0 km/h (2 Bft) 100,00 %
11.11.2015 10:22 13,7 C 73 % 1025,5 hPa 0,0 l/m 7,5 km/h (2 Bft) W 268 0 min 0,000 mm 0,8 UV-I 195 W/m 8,9 C 13,0 C 16,1 km/h (3 Bft) 100,00 %
11.11.2015 10:23 13,7 C 72 % 1025,5 hPa 0,0 l/m 5,1 km/h (1 Bft) W 277 0 min 0,000 mm 0,9 UV-I 207 W/m 8,7 C 13,7 C 6,4 km/h (2 Bft) 100,00 %
11.11.2015 10:24 13,8 C 73 % 1025,5 hPa 0,0 l/m 1,6 km/h (1 Bft) W 271 1 min 0,000 mm 0,9 UV-I 217 W/m 9,0 C 13,8 C 3,2 km/h (1 Bft) 95,83 %
11.11.2015 10:25 13,8 C 72 % 1025,4 hPa 0,0 l/m 5,0 km/h (1 Bft) W-NW 292 1 min 0,000 mm 0,9 UV-I 215 W/m 8,8 C 13,8 C 9,7 km/h (2 Bft) 95,65 %
11.11.2015 10:26 13,8 C 73 % 1025,5 hPa 0,0 l/m 2,5 km/h (1 Bft) W 275 1 min 0,000 mm 0,9 UV-I 216 W/m 9,0 C 13,8 C 4,8 km/h (1 Bft) 100,00 %
11.11.2015 10:27 13,8 C 74 % 1025,5 hPa 0,0 l/m 2,0 km/h (1 Bft) W-NW 287 1 min 0,000 mm 0,9 UV-I 222 W/m 9,2 C 13,8 C 4,8 km/h (1 Bft) 100,00 %
11.11.2015 10:28 13,9 C 73 % 1025,5 hPa 0,0 l/m 5,3 km/h (1 Bft) W 269 1 min 0,000 mm 0,9 UV-I 227 W/m 9,1 C 13,9 C 8,0 km/h (2 Bft) 96,15 %
11.11.2015 10:29 13,9 C 73 % 1025,5 hPa 0,0 l/m 4,3 km/h (1 Bft) W-NW 297 1 min 0,000 mm 0,9 UV-I 222 W/m 9,1 C 13,9 C 6,4 km/h (2 Bft) 100,00 %
11.11.2015 10:30 14,0 C 71 % 1025,6 hPa 0,0 l/m 1,7 km/h (1 Bft) W-NW 298 1 min 0,000 mm 0,9 UV-I 219 W/m 8,8 C 14,0 C 4,8 km/h (1 Bft) 100,00 %
11.11.2015 10:31 14,0 C 72 % 1025,6 hPa 0,0 l/m 0,9 km/h (0 Bft) W-SW 244 1 min 0,000 mm 0,9 UV-I 216 W/m 9,0 C 14,0 C 3,2 km/h (1 Bft) 100,00 %
11.11.2015 10:32 14,1 C 72 % 1025,4 hPa 0,0 l/m 3,6 km/h (1 Bft) SW 236 1 min 0,000 mm 0,9 UV-I 222 W/m 9,1 C 14,1 C 6,4 km/h (2 Bft) 95,65 %
11.11.2015 10:33 14,1 C 71 % 1025,5 hPa 0,0 l/m 4,8 km/h (1 Bft) W-NW 294 1 min 0,000 mm 0,9 UV-I 235 W/m 8,9 C 14,1 C 8,0 km/h (2 Bft) 100,00 %
11.11.2015 10:34 14,1 C 71 % 1025,5 hPa 0,0 l/m 8,2 km/h (2 Bft) NW 309 1 min 0,000 mm 0,9 UV-I 244 W/m 8,9 C 13,0 C 11,3 km/h (2 Bft) 100,00 %
11.11.2015 10:35 14,1 C 71 % 1025,5 hPa 0,0 l/m 4,1 km/h (1 Bft) W-SW 258 1 min 0,000 mm 0,8 UV-I 240 W/m 8,9 C 14,1 C 8,0 km/h (2 Bft) 100,00 %
11.11.2015 10:36 14,1 C 71 % 1025,5 hPa 0,0 l/m 3,5 km/h (1 Bft) SW 225 1 min 0,000 mm 0,8 UV-I 235 W/m 8,9 C 14,1 C 6,4 km/h (2 Bft) 100,00 %
11.11.2015 10:37 14,2 C 71 % 1025,6 hPa 0,0 l/m 3,9 km/h (1 Bft) W-SW 257 1 min 0,000 mm 0,8 UV-I 234 W/m 9,0 C 14,2 C 6,4 km/h (2 Bft) 95,83 %
11.11.2015 10:38 14,2 C 72 % 1025,5 hPa 0,0 l/m 5,7 km/h (1 Bft) W-NW 282 1 min 0,000 mm 0,8 UV-I 237 W/m 9,2 C 14,2 C 16,1 km/h (3 Bft) 96,15 %
11.11.2015 10:39 14,3 C 70 % 1025,5 hPa 0,0 l/m 6,2 km/h (2 Bft) W-SW 238 1 min 0,000 mm 0,8 UV-I 224 W/m 8,9 C 14,3 C 9,7 km/h (2 Bft) 100,00 %
11.11.2015 10:40 14,3 C 70 % 1025,5 hPa 0,0 l/m 6,4 km/h (2 Bft) W 265 1 min 0,000 mm 0,8 UV-I 217 W/m 8,9 C 14,3 C 9,7 km/h (2 Bft) 100,00 %
11.11.2015 10:41 14,3 C 71 % 1025,5 hPa 0,0 l/m 3,0 km/h (1 Bft) S-SW 200 0 min 0,000 mm 0,8 UV-I 204 W/m 9,1 C 14,3 C 6,4 km/h (2 Bft) 100,00 %
11.11.2015 10:42 14,3 C 71 % 1025,5 hPa 0,0 l/m 1,7 km/h (1 Bft) W-NW 288 0 min 0,000 mm 0,8 UV-I 193 W/m 9,1 C 14,3 C 3,2 km/h (1 Bft) 100,00 %
11.11.2015 10:43 14,3 C 71 % 1025,5 hPa 0,0 l/m 3,9 km/h (1 Bft) W-SW 258 0 min 0,000 mm 0,8 UV-I 184 W/m 9,1 C 14,3 C 9,7 km/h (2 Bft) 100,00 %
11.11.2015 10:44 14,3 C 70 % 1025,5 hPa 0,0 l/m 3,5 km/h (1 Bft) NW 325 0 min 0,000 mm 0,8 UV-I 186 W/m 8,9 C 14,3 C 9,7 km/h (2 Bft) 95,83 %
11.11.2015 10:45 14,3 C 72 % 1025,4 hPa 0,0 l/m 2,9 km/h (1 Bft) W-NW 284 0 min 0,000 mm 0,8 UV-I 193 W/m 9,3 C 14,3 C 6,4 km/h (2 Bft) 100,00 %
11.11.2015 10:46 14,3 C 70 % 1025,4 hPa 0,0 l/m 3,3 km/h (1 Bft) W 275 0 min 0,000 mm 0,8 UV-I 199 W/m 8,9 C 14,3 C 6,4 km/h (2 Bft) 100,00 %
11.11.2015 10:47 14,3 C 71 % 1025,4 hPa 0,0 l/m 3,4 km/h (1 Bft) W 264 0 min 0,000 mm 0,8 UV-I 195 W/m 9,1 C 14,3 C 4,8 km/h (1 Bft) 100,00 %
11.11.2015 10:48 14,3 C 71 % 1025,5 hPa 0,0 l/m 2,2 km/h (1 Bft) W-NW 299 0 min 0,000 mm 0,8 UV-I 188 W/m 9,1 C 14,3 C 4,8 km/h (1 Bft) 95,83 %
11.11.2015 10:49 14,3 C 71 % 1025,5 hPa 0,0 l/m 2,1 km/h (1 Bft) W-NW 288 0 min 0,000 mm 0,8 UV-I 186 W/m 9,1 C 14,3 C 3,2 km/h (1 Bft) 96,15 %
11.11.2015 10:50 14,4 C 73 % 1025,4 hPa 0,0 l/m 1,3 km/h (1 Bft) W-NW 287 0 min 0,000 mm 0,8 UV-I 193 W/m 9,6 C 14,4 C 3,2 km/h (1 Bft) 100,00 %
11.11.2015 10:51 14,4 C 73 % 1025,4 hPa 0,0 l/m 4,4 km/h (1 Bft) NW 313 0 min 0,000 mm 0,8 UV-I 198 W/m 9,6 C 14,4 C 6,4 km/h (2 Bft) 100,00 %
11.11.2015 10:52 14,4 C 71 % 1025,4 hPa 0,0 l/m 3,8 km/h (1 Bft) W-SW 252 0 min 0,000 mm 0,8 UV-I 199 W/m 9,2 C 14,4 C 6,4 km/h (2 Bft) 100,00 %
11.11.2015 10:53 14,4 C 71 % 1025,4 hPa 0,0 l/m 3,3 km/h (1 Bft) W 266 0 min 0,000 mm 0,8 UV-I 199 W/m 9,2 C 14,4 C 4,8 km/h (1 Bft) 100,00 %
11.11.2015 10:54 14,4 C 71 % 1025,4 hPa 0,0 l/m 3,2 km/h (1 Bft) W-NW 287 0 min 0,000 mm 0,8 UV-I 198 W/m 9,2 C 14,4 C 4,8 km/h (1 Bft) 100,00 %
11.11.2015 10:55 14,4 C 72 % 1025,4 hPa 0,0 l/m 2,6 km/h (1 Bft) W 271 0 min 0,000 mm 0,8 UV-I 193 W/m 9,4 C 14,4 C 4,8 km/h (1 Bft) 100,00 %
11.11.2015 10:56 14,4 C 73 % 1025,4 hPa 0,0 l/m 3,1 km/h (1 Bft) W 271 0 min 0,000 mm 0,8 UV-I 184 W/m 9,6 C 14,4 C 4,8 km/h (1 Bft) 100,00 %
11.11.2015 10:57 14,5 C 72 % 1025,4 hPa 0,0 l/m 4,7 km/h (1 Bft) W 265 0 min 0,000 mm 0,8 UV-I 177 W/m 9,5 C 14,5 C 6,4 km/h (2 Bft) 99,46 %
11.11.2015 10:58 14,5 C 72 % 1025,3 hPa 0,0 l/m 2,7 km/h (1 Bft) W 265 0 min 0,000 mm 0,8 UV-I 172 W/m 9,5 C 14,5 C 4,8 km/h (1 Bft) 97,37 %
11.11.2015 10:59 14,5 C 73 % 1025,3 hPa 0,0 l/m 3,9 km/h (1 Bft) W-NW 285 0 min 0,000 mm 0,8 UV-I 160 W/m 9,7 C 14,5 C 6,4 km/h (2 Bft) 96,55 %
11.11.2015 11:00 14,6 C 72 % 1025,3 hPa 0,0 l/m 2,2 km/h (1 Bft) NW 321 0 min 0,101 mm 0,8 UV-I 150 W/m 9,6 C 14,6 C 3,2 km/h (1 Bft) 100,00 %
11.11.2015 11:01 14,6 C 72 % 1025,3 hPa 0,0 l/m 7,8 km/h (2 Bft) W 267 0 min 0,000 mm 0,8 UV-I 138 W/m 9,6 C 13,8 C 12,9 km/h (3 Bft) 100,00 %
11.11.2015 11:02 14,6 C 72 % 1025,3 hPa 0,0 l/m 5,9 km/h (2 Bft) W-SW 246 0 min 0,000 mm 0,8 UV-I 132 W/m 9,6 C 14,6 C 11,3 km/h (2 Bft) 100,00 %
11.11.2015 11:03 14,5 C 73 % 1025,3 hPa 0,0 l/m 3,9 km/h (1 Bft) W 269 0 min 0,000 mm 0,8 UV-I 133 W/m 9,7 C 14,5 C 6,4 km/h (2 Bft) 100,00 %
11.11.2015 11:04 14,5 C 73 % 1025,3 hPa 0,0 l/m 5,6 km/h (1 Bft) NO 46 0 min 0,000 mm 0,9 UV-I 137 W/m 9,7 C 14,5 C 9,7 km/h (2 Bft) 100,00 %
11.11.2015 11:05 14,5 C 73 % 1025,3 hPa 0,0 l/m 3,8 km/h (1 Bft) W-NW 298 0 min 0,000 mm 0,9 UV-I 140 W/m 9,7 C 14,5 C 6,4 km/h (2 Bft) 100,00 %
11.11.2015 11:06 14,5 C 74 % 1025,3 hPa 0,0 l/m 4,6 km/h (1 Bft) W 274 0 min 0,000 mm 0,9 UV-I 139 W/m 9,9 C 14,5 C 6,4 km/h (2 Bft) 100,00 %
11.11.2015 11:07 14,5 C 74 % 1025,3 hPa 0,0 l/m 6,3 km/h (2 Bft) W 265 0 min 0,000 mm 0,9 UV-I 137 W/m 9,9 C 14,5 C 9,7 km/h (2 Bft) 100,00 %
11.11.2015 11:08 14,4 C 74 % 1025,3 hPa 0,0 l/m 5,6 km/h (1 Bft) W-SW 256 0 min 0,000 mm 0,9 UV-I 137 W/m 9,8 C 14,4 C 9,7 km/h (2 Bft) 100,00 %
11.11.2015 11:09 14,4 C 74 % 1025,2 hPa 0,0 l/m 5,4 km/h (1 Bft) W-SW 256 0 min 0,000 mm 0,9 UV-I 138 W/m 9,8 C 14,4 C 12,9 km/h (3 Bft) 100,00 %
11.11.2015 11:10 14,4 C 74 % 1025,2 hPa 0,0 l/m 8,0 km/h (2 Bft) W-SW 254 0 min 0,000 mm 0,9 UV-I 135 W/m 9,8 C 13,5 C 12,9 km/h (3 Bft) 100,00 %
11.11.2015 11:11 14,4 C 74 % 1025,2 hPa 0,0 l/m 5,6 km/h (1 Bft) W-SW 240 0 min 0,000 mm 0,9 UV-I 140 W/m 9,8 C 14,4 C 11,3 km/h (2 Bft) 100,00 %
11.11.2015 11:12 14,4 C 74 % 1025,2 hPa 0,0 l/m 3,5 km/h (1 Bft) W 279 0 min 0,000 mm 1,0 UV-I 141 W/m 9,8 C 14,4 C 6,4 km/h (2 Bft) 100,00 %
11.11.2015 11:13 14,4 C 73 % 1025,2 hPa 0,0 l/m 7,8 km/h (2 Bft) W 272 0 min 0,000 mm 1,0 UV-I 136 W/m 9,6 C 13,6 C 11,3 km/h (2 Bft) 100,00 %
11.11.2015 11:14 14,4 C 73 % 1025,2 hPa 0,0 l/m 4,3 km/h (1 Bft) W-NW 286 0 min 0,000 mm 1,0 UV-I 154 W/m 9,6 C 14,4 C 6,4 km/h (2 Bft) 96,15 %
11.11.2015 11:15 14,4 C 73 % 1025,2 hPa 0,0 l/m 7,1 km/h (2 Bft) W-NW 288 0 min 0,000 mm 1,1 UV-I 190 W/m 9,6 C 14,0 C 14,5 km/h (3 Bft) 100,00 %
11.11.2015 11:16 14,4 C 73 % 1025,3 hPa 0,0 l/m 4,8 km/h (1 Bft) W 278 0 min 0,000 mm 1,2 UV-I 190 W/m 9,6 C 14,4 C 6,4 km/h (2 Bft) 100,00 %
11.11.2015 11:17 14,4 C 73 % 1025,3 hPa 0,0 l/m 7,5 km/h (2 Bft) W-SW 257 1 min 0,000 mm 1,1 UV-I 245 W/m 9,6 C 13,8 C 12,9 km/h (3 Bft) 100,00 %
11.11.2015 11:18 14,5 C 73 % 1025,2 hPa 0,0 l/m 6,8 km/h (2 Bft) S-SW 207 0 min 0,000 mm 1,1 UV-I 222 W/m 9,7 C 14,3 C 11,3 km/h (2 Bft) 100,00 %
11.11.2015 11:19 14,6 C 72 % 1025,2 hPa 0,0 l/m 5,2 km/h (1 Bft) N-NW 329 1 min 0,000 mm 1,1 UV-I 229 W/m 9,6 C 14,6 C 9,7 km/h (2 Bft) 100,00 %
11.11.2015 11:20 14,6 C 72 % 1025,2 hPa 0,0 l/m 5,5 km/h (1 Bft) W-NW 288 1 min 0,000 mm 1,2 UV-I 238 W/m 9,6 C 14,6 C 9,7 km/h (2 Bft) 100,00 %
11.11.2015 11:21 14,6 C 72 % 1025,2 hPa 0,0 l/m 4,3 km/h (1 Bft) W-NW 282 0 min 0,000 mm 1,1 UV-I 213 W/m 9,6 C 14,6 C 11,3 km/h (2 Bft) 100,00 %
11.11.2015 11:22 14,6 C 71 % 1025,2 hPa 0,0 l/m 2,0 km/h (1 Bft) W 275 0 min 0,000 mm 1,1 UV-I 209 W/m 9,4 C 14,6 C 3,2 km/h (1 Bft) 100,00 %
11.11.2015 11:23 14,7 C 71 % 1025,1 hPa 0,0 l/m 2,5 km/h (1 Bft) W-SW 257 0 min 0,000 mm 1,1 UV-I 205 W/m 9,5 C 14,7 C 6,4 km/h (2 Bft) 96,15 %
11.11.2015 11:24 14,7 C 72 % 1025,1 hPa 0,0 l/m 3,5 km/h (1 Bft) W-NW 298 0 min 0,000 mm 1,1 UV-I 219 W/m 9,7 C 14,7 C 6,4 km/h (2 Bft) 100,00 %
11.11.2015 11:25 14,7 C 72 % 1025,2 hPa 0,0 l/m 3,6 km/h (1 Bft) W-NW 286 0 min 0,000 mm 1,2 UV-I 225 W/m 9,7 C 14,7 C 6,4 km/h (2 Bft) 100,00 %
11.11.2015 11:26 14,7 C 73 % 1025,1 hPa 0,0 l/m 4,5 km/h (1 Bft) NW 325 0 min 0,000 mm 1,3 UV-I 225 W/m 9,9 C 14,7 C 6,4 km/h (2 Bft) 100,00 %
11.11.2015 11:27 14,8 C 72 % 1025,1 hPa 0,0 l/m 7,5 km/h (2 Bft) W-NW 301 1 min 0,000 mm 1,4 UV-I 404 W/m 9,8 C 14,2 C 16,1 km/h (3 Bft) 100,00 %
11.11.2015 11:28 14,9 C 71 % 1025,2 hPa 0,0 l/m 3,2 km/h (1 Bft) W-NW 290 1 min 0,000 mm 1,5 UV-I 563 W/m 9,7 C 14,9 C 4,8 km/h (1 Bft) 91,67 %
11.11.2015 11:29 15,1 C 70 % 1025,2 hPa 0,0 l/m 4,3 km/h (1 Bft) W 281 1 min 0,000 mm 1,5 UV-I 570 W/m 9,7 C 15,1 C 6,4 km/h (2 Bft) 100,00 %
11.11.2015 11:30 15,3 C 70 % 1025,2 hPa 0,0 l/m 3,6 km/h (1 Bft) W-NW 300 1 min 0,000 mm 1,5 UV-I 570 W/m 9,9 C 15,3 C 6,4 km/h (2 Bft) 95,83 %
11.11.2015 11:31 15,3 C 67 % 1025,1 hPa 0,0 l/m 4,3 km/h (1 Bft) NW 315 1 min 0,000 mm 1,5 UV-I 572 W/m 9,2 C 15,3 C 6,4 km/h (2 Bft) 100,00 %
11.11.2015 11:32 15,4 C 68 % 1025,2 hPa 0,0 l/m 4,3 km/h (1 Bft) W-NW 294 1 min 0,000 mm 1,5 UV-I 575 W/m 9,5 C 15,4 C 6,4 km/h (2 Bft) 100,00 %
11.11.2015 11:33 15,5 C 67 % 1025,1 hPa 0,0 l/m 3,9 km/h (1 Bft) W 265 1 min 0,000 mm 1,6 UV-I 564 W/m 9,4 C 15,5 C 8,0 km/h (2 Bft) 100,00 %
11.11.2015 11:34 15,6 C 66 % 1025,1 hPa 0,0 l/m 6,0 km/h (2 Bft) W 275 1 min 0,000 mm 1,6 UV-I 546 W/m 9,3 C 15,6 C 9,7 km/h (2 Bft) 100,00 %
11.11.2015 11:35 15,6 C 67 % 1025,1 hPa 0,0 l/m 7,2 km/h (2 Bft) W 271 1 min 0,000 mm 1,6 UV-I 525 W/m 9,5 C 15,2 C 11,3 km/h (2 Bft) 100,00 %
11.11.2015 11:36 15,6 C 67 % 1025,1 hPa 0,0 l/m 4,5 km/h (1 Bft) W 266 1 min 0,000 mm 1,5 UV-I 499 W/m 9,5 C 15,6 C 9,7 km/h (2 Bft) 100,00 %
11.11.2015 11:37 15,7 C 68 % 1025,1 hPa 0,0 l/m 3,7 km/h (1 Bft) NW 310 1 min 0,000 mm 1,6 UV-I 501 W/m 9,8 C 15,7 C 6,4 km/h (2 Bft) 100,00 %
11.11.2015 11:38 15,8 C 68 % 1025,2 hPa 0,0 l/m 4,8 km/h (1 Bft) N 355 1 min 0,000 mm 1,6 UV-I 501 W/m 9,9 C 15,8 C 9,7 km/h (2 Bft) 100,00 %
11.11.2015 11:39 15,8 C 67 % 1025,1 hPa 0,0 l/m 4,4 km/h (1 Bft) N 355 1 min 0,000 mm 1,6 UV-I 508 W/m 9,7 C 15,8 C 6,4 km/h (2 Bft) 100,00 %
11.11.2015 11:40 15,8 C 68 % 1025,1 hPa 0,0 l/m 2,4 km/h (1 Bft) N-NO 20 1 min 0,000 mm 1,6 UV-I 510 W/m 9,9 C 15,8 C 4,8 km/h (1 Bft) 100,00 %
11.11.2015 11:41 15,8 C 71 % 1025,2 hPa 0,0 l/m 2,9 km/h (1 Bft) NW 309 1 min 0,000 mm 1,6 UV-I 518 W/m 10,6 C 15,8 C 6,4 km/h (2 Bft) 100,00 %
11.11.2015 11:42 15,8 C 67 % 1025,2 hPa 0,0 l/m 1,9 km/h (1 Bft) N 355 1 min 0,000 mm 1,6 UV-I 530 W/m 9,7 C 15,8 C 4,8 km/h (1 Bft) 100,00 %
11.11.2015 11:43 15,8 C 67 % 1025,2 hPa 0,0 l/m 2,3 km/h (1 Bft) W 260 1 min 0,000 mm 1,6 UV-I 509 W/m 9,7 C 15,8 C 8,0 km/h (2 Bft) 96,15 %
11.11.2015 11:44 15,8 C 67 % 1025,1 hPa 0,0 l/m 2,7 km/h (1 Bft) W 265 1 min 0,000 mm 1,6 UV-I 550 W/m 9,7 C 15,8 C 4,8 km/h (1 Bft) 95,83 %
11.11.2015 11:45 15,9 C 68 % 1025,1 hPa 0,0 l/m 2,7 km/h (1 Bft) N 9 1 min 0,000 mm 1,6 UV-I 547 W/m 10,0 C 15,9 C 3,2 km/h (1 Bft) 100,00 %
11.11.2015 11:46 15,9 C 66 % 1025,2 hPa 0,0 l/m 2,7 km/h (1 Bft) N 11 1 min 0,000 mm 1,6 UV-I 543 W/m 9,6 C 15,9 C 6,4 km/h (2 Bft) 100,00 %
11.11.2015 11:47 15,9 C 67 % 1025,1 hPa 0,0 l/m 3,2 km/h (1 Bft) SW 223 1 min 0,000 mm 1,6 UV-I 538 W/m 9,8 C 15,9 C 4,8 km/h (1 Bft) 100,00 %
11.11.2015 11:48 16,0 C 69 % 1025,2 hPa 0,0 l/m 1,9 km/h (1 Bft) N 5 1 min 0,000 mm 1,6 UV-I 543 W/m 10,3 C 16,0 C 3,2 km/h (1 Bft) 100,00 %
11.11.2015 11:49 16,1 C 67 % 1025,2 hPa 0,0 l/m 5,2 km/h (1 Bft) W 275 1 min 0,000 mm 1,6 UV-I 562 W/m 10,0 C 16,1 C 11,3 km/h (2 Bft) 100,00 %
11.11.2015 11:50 16,1 C 63 % 1025,2 hPa 0,0 l/m 6,5 km/h (2 Bft) W-SW 256 1 min 0,000 mm 1,6 UV-I 577 W/m 9,1 C 16,1 C 9,7 km/h (2 Bft) 100,00 %
11.11.2015 11:51 16,0 C 64 % 1025,2 hPa 0,0 l/m 1,1 km/h (1 Bft) N-NO 28 1 min 0,000 mm 1,6 UV-I 587 W/m 9,2 C 16,0 C 3,2 km/h (1 Bft) 95,83 %
11.11.2015 11:52 16,1 C 65 % 1025,2 hPa 0,0 l/m 2,4 km/h (1 Bft) W-NW 296 1 min 0,000 mm 1,4 UV-I 587 W/m 9,5 C 16,1 C 3,2 km/h (1 Bft) 100,00 %
11.11.2015 11:53 16,1 C 67 % 1025,2 hPa 0,0 l/m 2,8 km/h (1 Bft) SW 226 1 min 0,000 mm 1,4 UV-I 365 W/m 10,0 C 16,1 C 8,0 km/h (2 Bft) 100,00 %
11.11.2015 11:54 16,1 C 65 % 1025,2 hPa 0,0 l/m 2,4 km/h (1 Bft) N-NW 341 1 min 0,000 mm 1,6 UV-I 322 W/m 9,5 C 16,1 C 4,8 km/h (1 Bft) 100,00 %
11.11.2015 11:55 16,1 C 67 % 1025,2 hPa 0,0 l/m 1,3 km/h (1 Bft) NW 309 1 min 0,000 mm 1,5 UV-I 476 W/m 10,0 C 16,1 C 6,4 km/h (2 Bft) 100,00 %
11.11.2015 11:56 16,1 C 62 % 1025,2 hPa 0,0 l/m 6,7 km/h (2 Bft) W-NW 292 1 min 0,000 mm 1,6 UV-I 476 W/m 8,8 C 16,0 C 9,7 km/h (2 Bft) 92,86 %
11.11.2015 11:57 15,9 C 61 % 1025,2 hPa 0,0 l/m 3,8 km/h (1 Bft) N-NW 329 1 min 0,000 mm 1,6 UV-I 453 W/m 8,4 C 15,9 C 6,4 km/h (2 Bft) 100,00 %
11.11.2015 11:58 15,8 C 62 % 1025,2 hPa 0,0 l/m 1,8 km/h (1 Bft) W-NW 287 1 min 0,000 mm 1,6 UV-I 434 W/m 8,5 C 15,8 C 3,2 km/h (1 Bft) 96,15 %
11.11.2015 11:59 15,8 C 66 % 1025,2 hPa 0,0 l/m 1,2 km/h (1 Bft) W 281 1 min 0,000 mm 1,5 UV-I 421 W/m 9,5 C 15,8 C 4,8 km/h (1 Bft) 100,00 %
11.11.2015 12:00 15,9 C 63 % 1025,2 hPa 0,0 l/m 5,3 km/h (1 Bft) W 265 1 min 0,000 mm 1,6 UV-I 488 W/m 8,9 C 15,9 C 14,5 km/h (3 Bft) 100,00 %
11.11.2015 12:01 15,9 C 61 % 1025,2 hPa 0,0 l/m 8,7 km/h (2 Bft) W-NW 286 1 min 0,204 mm 1,4 UV-I 505 W/m 8,4 C 14,7 C 12,9 km/h (3 Bft) 96,55 %
11.11.2015 12:02 15,8 C 61 % 1025,2 hPa 0,0 l/m 4,3 km/h (1 Bft) W-NW 294 1 min 0,000 mm 1,5 UV-I 453 W/m 8,3 C 15,8 C 6,4 km/h (2 Bft) 95,83 %
11.11.2015 12:03 15,8 C 63 % 1025,3 hPa 0,0 l/m 3,0 km/h (1 Bft) SW 229 1 min 0,000 mm 1,5 UV-I 465 W/m 8,8 C 15,8 C 4,8 km/h (1 Bft) 100,00 %
11.11.2015 12:04 15,8 C 64 % 1025,2 hPa 0,0 l/m 3,3 km/h (1 Bft) W-NW 298 1 min 0,000 mm 1,5 UV-I 405 W/m 9,0 C 15,8 C 6,4 km/h (2 Bft) 100,00 %
11.11.2015 12:05 15,8 C 63 % 1025,2 hPa 0,0 l/m 4,4 km/h (1 Bft) W 275 1 min 0,000 mm 1,5 UV-I 378 W/m 8,8 C 15,8 C 8,0 km/h (2 Bft) 96,15 %
11.11.2015 12:06 15,8 C 63 % 1025,1 hPa 0,0 l/m 2,9 km/h (1 Bft) SW 220 1 min 0,000 mm 1,4 UV-I 466 W/m 8,8 C 15,8 C 4,8 km/h (1 Bft) 100,00 %
11.11.2015 12:07 15,8 C 61 % 1025,1 hPa 0,0 l/m 2,5 km/h (1 Bft) W-NW 302 1 min 0,000 mm 1,3 UV-I 408 W/m 8,3 C 15,8 C 4,8 km/h (1 Bft) 100,00 %
11.11.2015 12:08 15,8 C 62 % 1025,1 hPa 0,0 l/m 1,8 km/h (1 Bft) W-NW 286 1 min 0,000 mm 1,4 UV-I 234 W/m 8,5 C 15,8 C 3,2 km/h (1 Bft) 100,00 %
11.11.2015 12:09 15,8 C 64 % 1025,1 hPa 0,0 l/m 2,7 km/h (1 Bft) NW 325 1 min 0,000 mm 1,5 UV-I 234 W/m 9,0 C 15,8 C 4,8 km/h (1 Bft) 100,00 %
11.11.2015 12:10 15,8 C 63 % 1025,1 hPa 0,0 l/m 0,1 km/h (0 Bft) NW 314 1 min 0,000 mm 1,4 UV-I 263 W/m 8,8 C 15,8 C 1,6 km/h (1 Bft) 100,00 %
11.11.2015 12:11 15,7 C 63 % 1025,1 hPa 0,0 l/m 3,0 km/h (1 Bft) N 9 1 min 0,000 mm 1,4 UV-I 278 W/m 8,7 C 15,7 C 6,4 km/h (2 Bft) 100,00 %
11.11.2015 12:12 15,7 C 64 % 1025,2 hPa 0,0 l/m 1,5 km/h (1 Bft) NO 34 1 min 0,000 mm 1,5 UV-I 425 W/m 8,9 C 15,7 C 3,2 km/h (1 Bft) 100,00 %
11.11.2015 12:13 15,7 C 64 % 1025,1 hPa 0,0 l/m 1,9 km/h (1 Bft) N-NO 13 1 min 0,000 mm 1,4 UV-I 462 W/m 8,9 C 15,7 C 4,8 km/h (1 Bft) 100,00 %
11.11.2015 12:14 15,7 C 63 % 1025,2 hPa 0,0 l/m 1,6 km/h (1 Bft) N-NO 17 1 min 0,000 mm 1,4 UV-I 437 W/m 8,7 C 15,7 C 4,8 km/h (1 Bft) 100,00 %
11.11.2015 12:15 15,8 C 63 % 1025,2 hPa 0,0 l/m 2,0 km/h (1 Bft) NW 309 1 min 0,000 mm 1,3 UV-I 356 W/m 8,8 C 15,8 C 4,8 km/h (1 Bft) 100,00 %
11.11.2015 12:16 15,7 C 62 % 1025,2 hPa 0,0 l/m 2,1 km/h (1 Bft) N-NW 336 1 min 0,000 mm 1,4 UV-I 315 W/m 8,4 C 15,7 C 3,2 km/h (1 Bft) 100,00 %
11.11.2015 12:17 15,8 C 64 % 1025,2 hPa 0,0 l/m 1,1 km/h (1 Bft) SW 230 1 min 0,000 mm 1,5 UV-I 430 W/m 9,0 C 15,8 C 1,6 km/h (1 Bft) 100,00 %
11.11.2015 12:18 15,9 C 66 % 1025,2 hPa 0,0 l/m 1,4 km/h (1 Bft) W-SW 258 1 min 0,000 mm 1,5 UV-I 429 W/m 9,6 C 15,9 C 4,8 km/h (1 Bft) 100,00 %
11.11.2015 12:19 15,9 C 64 % 1025,2 hPa 0,0 l/m 2,0 km/h (1 Bft) N 11 1 min 0,000 mm 1,5 UV-I 416 W/m 9,1 C 15,9 C 4,8 km/h (1 Bft) 100,00 %
11.11.2015 12:20 15,9 C 62 % 1025,2 hPa 0,0 l/m 1,5 km/h (1 Bft) N 11 1 min 0,000 mm 1,5 UV-I 404 W/m 8,6 C 15,9 C 3,2 km/h (1 Bft) 96,15 %
11.11.2015 12:21 15,9 C 63 % 1025,2 hPa 0,0 l/m 2,3 km/h (1 Bft) N-NO 15 1 min 0,000 mm 1,5 UV-I 396 W/m 8,9 C 15,9 C 3,2 km/h (1 Bft) 100,00 %
11.11.2015 12:22 15,9 C 64 % 1025,1 hPa 0,0 l/m 1,5 km/h (1 Bft) N-NO 13 1 min 0,000 mm 1,5 UV-I 396 W/m 9,1 C 15,9 C 3,2 km/h (1 Bft) 100,00 %
11.11.2015 12:23 15,9 C 62 % 1025,1 hPa 0,0 l/m 0,6 km/h (0 Bft) N-NO 14 1 min 0,000 mm 1,5 UV-I 391 W/m 8,6 C 15,9 C 1,6 km/h (1 Bft) 100,00 %
11.11.2015 12:24 15,9 C 63 % 1025,1 hPa 0,0 l/m 0,3 km/h (0 Bft) N-NO 13 1 min 0,000 mm 1,5 UV-I 388 W/m 8,9 C 15,9 C 1,6 km/h (1 Bft) 100,00 %
11.11.2015 12:25 16,0 C 64 % 1025,1 hPa 0,0 l/m 0,0 km/h (0 Bft) N-NO 13 1 min 0,000 mm 1,5 UV-I 388 W/m 9,2 C 16,0 C 0,0 km/h (0 Bft) 91,67 %
11.11.2015 12:26 16,1 C 63 % 1025,1 hPa 0,0 l/m 0,8 km/h (0 Bft) N-NO 13 1 min 0,000 mm 1,5 UV-I 388 W/m 9,1 C 16,1 C 1,6 km/h (1 Bft) 100,00 %
11.11.2015 12:27 16,1 C 65 % 1025,1 hPa 0,0 l/m 1,8 km/h (1 Bft) W 281 1 min 0,000 mm 1,5 UV-I 387 W/m 9,5 C 16,1 C 3,2 km/h (1 Bft) 100,00 %
11.11.2015 12:28 16,2 C 62 % 1025,1 hPa 0,0 l/m 1,9 km/h (1 Bft) W-NW 296 1 min 0,000 mm 1,4 UV-I 388 W/m 8,9 C 16,2 C 3,2 km/h (1 Bft) 100,00 %
11.11.2015 12:29 16,1 C 61 % 1025,1 hPa 0,0 l/m 1,2 km/h (1 Bft) NW 316 1 min 0,000 mm 1,4 UV-I 387 W/m 8,6 C 16,1 C 6,4 km/h (2 Bft) 100,00 %
11.11.2015 12:30 16,1 C 59 % 1025,1 hPa 0,0 l/m 2,7 km/h (1 Bft) N 9 1 min 0,000 mm 1,4 UV-I 387 W/m 8,1 C 16,1 C 4,8 km/h (1 Bft) 100,00 %
11.11.2015 12:31 16,0 C 61 % 1025,1 hPa 0,0 l/m 3,0 km/h (1 Bft) N 9 1 min 0,000 mm 1,4 UV-I 387 W/m 8,5 C 16,0 C 4,8 km/h (1 Bft) 95,83 %
11.11.2015 12:32 16,0 C 63 % 1025,1 hPa 0,0 l/m 2,4 km/h (1 Bft) N 11 1 min 0,000 mm 1,4 UV-I 387 W/m 9,0 C 16,0 C 4,8 km/h (1 Bft) 100,00 %
11.11.2015 12:33 16,0 C 60 % 1025,1 hPa 0,0 l/m 5,5 km/h (1 Bft) W-SW 253 1 min 0,000 mm 1,4 UV-I 387 W/m 8,2 C 16,0 C 9,7 km/h (2 Bft) 100,00 %
11.11.2015 12:34 16,0 C 62 % 1025,1 hPa 0,0 l/m 2,7 km/h (1 Bft) W-NW 297 1 min 0,000 mm 1,4 UV-I 385 W/m 8,7 C 16,0 C 4,8 km/h (1 Bft) 100,00 %
11.11.2015 12:35 16,0 C 60 % 1025,1 hPa 0,0 l/m 1,8 km/h (1 Bft) W-NW 284 1 min 0,000 mm 1,4 UV-I 385 W/m 8,2 C 16,0 C 3,2 km/h (1 Bft) 100,00 %
11.11.2015 12:36 16,0 C 61 % 1025,1 hPa 0,0 l/m 1,9 km/h (1 Bft) W-NW 300 1 min 0,000 mm 1,4 UV-I 384 W/m 8,5 C 16,0 C 3,2 km/h (1 Bft) 100,00 %
11.11.2015 12:37 16,0 C 60 % 1025,1 hPa 0,0 l/m 4,1 km/h (1 Bft) W 276 1 min 0,000 mm 1,4 UV-I 387 W/m 8,2 C 16,0 C 6,4 km/h (2 Bft) 96,55 %
11.11.2015 12:38 16,0 C 60 % 1025,2 hPa 0,0 l/m 2,5 km/h (1 Bft) N-NW 338 1 min 0,000 mm 1,4 UV-I 388 W/m 8,2 C 16,0 C 4,8 km/h (1 Bft) 100,00 %
11.11.2015 12:39 16,0 C 60 % 1025,1 hPa 0,0 l/m 3,9 km/h (1 Bft) W-SW 247 1 min 0,000 mm 1,4 UV-I 382 W/m 8,2 C 16,0 C 6,4 km/h (2 Bft) 100,00 %
11.11.2015 12:40 16,0 C 62 % 1025,1 hPa 0,0 l/m 2,8 km/h (1 Bft) NW 321 1 min 0,000 mm 1,4 UV-I 381 W/m 8,7 C 16,0 C 4,8 km/h (1 Bft) 100,00 %
11.11.2015 12:41 16,1 C 61 % 1025,1 hPa 0,0 l/m 5,1 km/h (1 Bft) W 273 1 min 0,000 mm 1,4 UV-I 381 W/m 8,6 C 16,1 C 9,7 km/h (2 Bft) 100,00 %
11.11.2015 12:42 16,0 C 59 % 1025,0 hPa 0,0 l/m 3,9 km/h (1 Bft) W-NW 289 1 min 0,000 mm 1,4 UV-I 381 W/m 8,0 C 16,0 C 6,4 km/h (2 Bft) 100,00 %
11.11.2015 12:43 16,0 C 60 % 1025,0 hPa 0,0 l/m 5,1 km/h (1 Bft) W 272 1 min 0,000 mm 1,4 UV-I 384 W/m 8,2 C 16,0 C 9,7 km/h (2 Bft) 100,00 %
11.11.2015 12:44 16,0 C 60 % 1025,0 hPa 0,0 l/m 4,8 km/h (1 Bft) W 273 1 min 0,000 mm 1,4 UV-I 379 W/m 8,2 C 16,0 C 9,7 km/h (2 Bft) 100,00 %
11.11.2015 12:45 16,1 C 62 % 1025,0 hPa 0,0 l/m 2,8 km/h (1 Bft) NW 322 1 min 0,000 mm 1,4 UV-I 376 W/m 8,8 C 16,1 C 6,4 km/h (2 Bft) 100,00 %
11.11.2015 12:46 16,1 C 62 % 1025,0 hPa 0,0 l/m 4,9 km/h (1 Bft) W 263 1 min 0,000 mm 1,4 UV-I 376 W/m 8,8 C 16,1 C 8,0 km/h (2 Bft) 100,00 %
11.11.2015 12:47 16,1 C 62 % 1025,0 hPa 0,0 l/m 4,1 km/h (1 Bft) W-SW 257 1 min 0,000 mm 1,3 UV-I 374 W/m 8,8 C 16,1 C 8,0 km/h (2 Bft) 100,00 %
11.11.2015 12:48 16,1 C 61 % 1025,0 hPa 0,0 l/m 4,5 km/h (1 Bft) W-NW 292 1 min 0,000 mm 1,3 UV-I 372 W/m 8,6 C 16,1 C 9,7 km/h (2 Bft) 100,00 %
11.11.2015 12:49 16,1 C 62 % 1025,0 hPa 0,0 l/m 1,1 km/h (1 Bft) N-NW 329 1 min 0,000 mm 1,3 UV-I 372 W/m 8,8 C 16,1 C 1,6 km/h (1 Bft) 100,00 %
11.11.2015 12:50 16,2 C 66 % 1024,9 hPa 0,0 l/m 0,5 km/h (0 Bft) NO 51 1 min 0,000 mm 1,3 UV-I 373 W/m 9,8 C 16,2 C 1,6 km/h (1 Bft) 100,00 %
11.11.2015 12:51 16,3 C 62 % 1025,0 hPa 0,0 l/m 1,5 km/h (1 Bft) W-SW 251 1 min 0,000 mm 1,3 UV-I 372 W/m 9,0 C 16,3 C 3,2 km/h (1 Bft) 100,00 %
11.11.2015 12:52 16,3 C 63 % 1025,0 hPa 0,0 l/m 2,4 km/h (1 Bft) N 355 1 min 0,000 mm 1,3 UV-I 369 W/m 9,2 C 16,3 C 3,2 km/h (1 Bft) 100,00 %
11.11.2015 12:53 16,2 C 63 % 1025,0 hPa 0,0 l/m 2,8 km/h (1 Bft) N 355 1 min 0,000 mm 1,3 UV-I 369 W/m 9,1 C 16,2 C 4,8 km/h (1 Bft) 96,15 %
11.11.2015 12:54 16,2 C 63 % 1025,0 hPa 0,0 l/m 3,0 km/h (1 Bft) N 5 1 min 0,000 mm 1,3 UV-I 367 W/m 9,1 C 16,2 C 4,8 km/h (1 Bft) 100,00 %
11.11.2015 12:55 16,1 C 64 % 1024,9 hPa 0,0 l/m 4,1 km/h (1 Bft) N-NO 15 1 min 0,000 mm 1,3 UV-I 366 W/m 9,3 C 16,1 C 8,0 km/h (2 Bft) 100,00 %
11.11.2015 12:56 16,1 C 66 % 1025,0 hPa 0,0 l/m 3,5 km/h (1 Bft) N 10 1 min 0,000 mm 1,3 UV-I 364 W/m 9,7 C 16,1 C 6,4 km/h (2 Bft) 100,00 %
11.11.2015 12:57 16,1 C 69 % 1025,0 hPa 0,0 l/m 2,5 km/h (1 Bft) N 11 1 min 0,000 mm 1,3 UV-I 364 W/m 10,4 C 16,1 C 4,8 km/h (1 Bft) 100,00 %
11.11.2015 12:58 16,1 C 67 % 1025,0 hPa 0,0 l/m 3,0 km/h (1 Bft) NW 322 1 min 0,000 mm 1,3 UV-I 364 W/m 10,0 C 16,1 C 6,4 km/h (2 Bft) 100,00 %
11.11.2015 12:59 15,9 C 67 % 1025,0 hPa 0,0 l/m 3,4 km/h (1 Bft) NW 313 1 min 0,000 mm 1,3 UV-I 360 W/m 9,8 C 15,9 C 8,0 km/h (2 Bft) 95,83 %
11.11.2015 13:00 15,9 C 68 % 1025,0 hPa 0,0 l/m 1,5 km/h (1 Bft) N-NW 346 1 min 0,228 mm 1,3 UV-I 360 W/m 10,0 C 15,9 C 4,8 km/h (1 Bft) 96,15 %
11.11.2015 13:01 15,9 C 67 % 1025,0 hPa 0,0 l/m 3,2 km/h (1 Bft) NW 315 1 min 0,000 mm 1,3 UV-I 357 W/m 9,8 C 15,9 C 6,4 km/h (2 Bft) 100,00 %
11.11.2015 13:02 15,9 C 68 % 1025,0 hPa 0,0 l/m 3,9 km/h (1 Bft) N-NO 25 1 min 0,000 mm 1,2 UV-I 356 W/m 10,0 C 15,9 C 6,4 km/h (2 Bft) 100,00 %
11.11.2015 13:03 15,8 C 68 % 1024,9 hPa 0,0 l/m 4,7 km/h (1 Bft) W-NW 288 1 min 0,000 mm 1,2 UV-I 349 W/m 9,9 C 15,8 C 6,4 km/h (2 Bft) 100,00 %
11.11.2015 13:04 15,8 C 67 % 1024,9 hPa 0,0 l/m 3,9 km/h (1 Bft) N 9 1 min 0,000 mm 1,2 UV-I 357 W/m 9,7 C 15,8 C 6,4 km/h (2 Bft) 96,15 %
11.11.2015 13:05 15,7 C 67 % 1024,9 hPa 0,0 l/m 4,2 km/h (1 Bft) W-NW 300 1 min 0,000 mm 1,2 UV-I 350 W/m 9,6 C 15,7 C 12,9 km/h (3 Bft) 100,00 %
11.11.2015 13:06 15,7 C 67 % 1024,9 hPa 0,0 l/m 5,7 km/h (1 Bft) W 273 1 min 0,000 mm 1,2 UV-I 352 W/m 9,6 C 15,7 C 9,7 km/h (2 Bft) 100,00 %
11.11.2015 13:07 15,7 C 68 % 1024,9 hPa 0,0 l/m 3,9 km/h (1 Bft) N 355 1 min 0,000 mm 1,2 UV-I 352 W/m 9,8 C 15,7 C 4,8 km/h (1 Bft) 100,00 %
11.11.2015 13:08 15,7 C 69 % 1024,9 hPa 0,0 l/m 3,2 km/h (1 Bft) NW 313 1 min 0,000 mm 1,2 UV-I 352 W/m 10,0 C 15,7 C 4,8 km/h (1 Bft) 100,00 %
11.11.2015 13:09 15,6 C 70 % 1024,9 hPa 0,0 l/m 4,4 km/h (1 Bft) N 360 1 min 0,000 mm 1,2 UV-I 349 W/m 10,1 C 15,6 C 6,4 km/h (2 Bft) 100,00 %
11.11.2015 13:10 15,6 C 71 % 1024,8 hPa 0,0 l/m 3,9 km/h (1 Bft) N-NO 12 1 min 0,000 mm 1,2 UV-I 349 W/m 10,4 C 15,6 C 6,4 km/h (2 Bft) 100,00 %
11.11.2015 13:11 15,5 C 69 % 1024,8 hPa 0,0 l/m 3,6 km/h (1 Bft) N 5 1 min 0,000 mm 1,2 UV-I 344 W/m 9,8 C 15,5 C 6,4 km/h (2 Bft) 100,00 %
11.11.2015 13:12 15,5 C 70 % 1024,9 hPa 0,0 l/m 3,0 km/h (1 Bft) N 11 1 min 0,000 mm 1,2 UV-I 346 W/m 10,1 C 15,5 C 4,8 km/h (1 Bft) 96,43 %
11.11.2015 13:13 15,5 C 69 % 1024,9 hPa 0,0 l/m 3,7 km/h (1 Bft) N-NW 345 1 min 0,000 mm 1,2 UV-I 346 W/m 9,8 C 15,5 C 4,8 km/h (1 Bft) 95,83 %
11.11.2015 13:14 15,4 C 69 % 1024,9 hPa 0,0 l/m 3,5 km/h (1 Bft) N 355 1 min 0,000 mm 1,2 UV-I 345 W/m 9,7 C 15,4 C 6,4 km/h (2 Bft) 100,00 %
11.11.2015 13:15 15,4 C 71 % 1024,9 hPa 0,0 l/m 3,9 km/h (1 Bft) N 11 1 min 0,000 mm 1,2 UV-I 344 W/m 10,2 C 15,4 C 6,4 km/h (2 Bft) 100,00 %
11.11.2015 13:16 15,4 C 70 % 1024,9 hPa 0,0 l/m 3,3 km/h (1 Bft) N-NW 336 1 min 0,000 mm 1,2 UV-I 345 W/m 10,0 C 15,4 C 4,8 km/h (1 Bft) 100,00 %
11.11.2015 13:17 15,4 C 71 % 1024,9 hPa 0,0 l/m 3,8 km/h (1 Bft) N-NO 17 1 min 0,000 mm 1,1 UV-I 344 W/m 10,2 C 15,4 C 6,4 km/h (2 Bft) 100,00 %
11.11.2015 13:18 15,4 C 72 % 1024,9 hPa 0,0 l/m 4,3 km/h (1 Bft) N-NO 14 1 min 0,000 mm 1,1 UV-I 342 W/m 10,4 C 15,4 C 6,4 km/h (2 Bft) 100,00 %
11.11.2015 13:19 15,4 C 70 % 1024,9 hPa 0,0 l/m 4,4 km/h (1 Bft) N 355 1 min 0,000 mm 1,1 UV-I 338 W/m 10,0 C 15,4 C 6,4 km/h (2 Bft) 100,00 %
11.11.2015 13:20 15,4 C 70 % 1024,9 hPa 0,0 l/m 3,7 km/h (1 Bft) W 267 1 min 0,000 mm 1,1 UV-I 336 W/m 10,0 C 15,4 C 6,4 km/h (2 Bft) 100,00 %
11.11.2015 13:21 15,4 C 70 % 1024,8 hPa 0,0 l/m 5,4 km/h (1 Bft) N 350 1 min 0,000 mm 1,1 UV-I 334 W/m 10,0 C 15,4 C 6,4 km/h (2 Bft) 96,55 %
11.11.2015 13:22 15,4 C 69 % 1024,9 hPa 0,0 l/m 5,3 km/h (1 Bft) W-NW 284 1 min 0,000 mm 1,1 UV-I 336 W/m 9,7 C 15,4 C 8,0 km/h (2 Bft) 95,83 %
11.11.2015 13:23 15,3 C 71 % 1024,8 hPa 0,0 l/m 4,5 km/h (1 Bft) N 11 1 min 0,000 mm 1,1 UV-I 334 W/m 10,1 C 15,3 C 6,4 km/h (2 Bft) 100,00 %
11.11.2015 13:24 15,3 C 70 % 1024,8 hPa 0,0 l/m 2,7 km/h (1 Bft) N-NW 329 1 min 0,000 mm 1,1 UV-I 332 W/m 9,9 C 15,3 C 4,8 km/h (1 Bft) 100,00 %
11.11.2015 13:25 15,3 C 70 % 1024,9 hPa 0,0 l/m 2,7 km/h (1 Bft) NW 314 1 min 0,000 mm 1,1 UV-I 331 W/m 9,9 C 15,3 C 9,7 km/h (2 Bft) 100,00 %
11.11.2015 13:26 15,3 C 70 % 1024,8 hPa 0,0 l/m 3,2 km/h (1 Bft) N-NW 344 1 min 0,000 mm 1,1 UV-I 329 W/m 9,9 C 15,3 C 6,4 km/h (2 Bft) 100,00 %
11.11.2015 13:27 15,4 C 71 % 1024,8 hPa 0,0 l/m 4,1 km/h (1 Bft) N 11 1 min 0,000 mm 1,1 UV-I 329 W/m 10,2 C 15,4 C 6,4 km/h (2 Bft) 100,00 %
11.11.2015 13:28 15,4 C 70 % 1024,8 hPa 0,0 l/m 5,2 km/h (1 Bft) N 10 1 min 0,000 mm 1,1 UV-I 323 W/m 10,0 C 15,4 C 9,7 km/h (2 Bft) 97,22 %
11.11.2015 13:29 15,4 C 70 % 1024,8 hPa 0,0 l/m 3,2 km/h (1 Bft) N 9 1 min 0,000 mm 1,0 UV-I 320 W/m 10,0 C 15,4 C 4,8 km/h (1 Bft) 100,00 %
11.11.2015 13:30 15,4 C 71 % 1024,8 hPa 0,0 l/m 3,8 km/h (1 Bft) W 277 1 min 0,000 mm 1,0 UV-I 320 W/m 10,2 C 15,4 C 4,8 km/h (1 Bft) 100,00 %
11.11.2015 13:31 15,4 C 71 % 1024,8 hPa 0,0 l/m 2,1 km/h (1 Bft) N 9 1 min 0,000 mm 1,0 UV-I 318 W/m 10,2 C 15,4 C 3,2 km/h (1 Bft) 95,65 %
11.11.2015 13:32 15,4 C 71 % 1024,8 hPa 0,0 l/m 2,5 km/h (1 Bft) N-NO 26 1 min 0,000 mm 1,0 UV-I 315 W/m 10,2 C 15,4 C 3,2 km/h (1 Bft) 100,00 %
11.11.2015 13:33 15,4 C 72 % 1024,8 hPa 0,0 l/m 4,2 km/h (1 Bft) N 350 1 min 0,000 mm 1,0 UV-I 319 W/m 10,4 C 15,4 C 8,0 km/h (2 Bft) 100,00 %
11.11.2015 13:34 15,4 C 71 % 1024,8 hPa 0,0 l/m 3,1 km/h (1 Bft) N 9 1 min 0,000 mm 1,0 UV-I 320 W/m 10,2 C 15,4 C 4,8 km/h (1 Bft) 100,00 %
11.11.2015 13:35 15,4 C 72 % 1024,8 hPa 0,0 l/m 2,1 km/h (1 Bft) N-NW 333 1 min 0,000 mm 1,0 UV-I 317 W/m 10,4 C 15,4 C 3,2 km/h (1 Bft) 100,00 %
11.11.2015 13:36 15,4 C 70 % 1024,7 hPa 0,0 l/m 2,7 km/h (1 Bft) N-NO 15 1 min 0,000 mm 1,0 UV-I 315 W/m 10,0 C 15,4 C 4,8 km/h (1 Bft) 100,00 %
11.11.2015 13:37 15,4 C 70 % 1024,8 hPa 0,0 l/m 2,6 km/h (1 Bft) N-NO 15 1 min 0,000 mm 1,0 UV-I 312 W/m 10,0 C 15,4 C 6,4 km/h (2 Bft) 100,00 %
11.11.2015 13:38 15,4 C 71 % 1024,7 hPa 0,0 l/m 2,5 km/h (1 Bft) N-NW 334 1 min 0,000 mm 1,0 UV-I 309 W/m 10,2 C 15,4 C 4,8 km/h (1 Bft) 100,00 %
11.11.2015 13:39 15,5 C 71 % 1024,8 hPa 0,0 l/m 2,0 km/h (1 Bft) W-NW 284 1 min 0,000 mm 1,0 UV-I 309 W/m 10,3 C 15,5 C 4,8 km/h (1 Bft) 100,00 %
11.11.2015 13:40 15,6 C 70 % 1024,7 hPa 0,0 l/m 3,6 km/h (1 Bft) W-NW 303 1 min 0,000 mm 1,0 UV-I 309 W/m 10,1 C 15,6 C 6,4 km/h (2 Bft) 100,00 %
11.11.2015 13:41 15,6 C 70 % 1024,7 hPa 0,0 l/m 2,4 km/h (1 Bft) NW 308 1 min 0,000 mm 1,0 UV-I 309 W/m 10,1 C 15,6 C 4,8 km/h (1 Bft) 100,00 %
11.11.2015 13:42 15,6 C 70 % 1024,7 hPa 0,0 l/m 0,9 km/h (0 Bft) NW 308 1 min 0,000 mm 0,9 UV-I 307 W/m 10,1 C 15,6 C 1,6 km/h (1 Bft) 100,00 %
11.11.2015 13:43 15,7 C 69 % 1024,7 hPa 0,0 l/m 3,9 km/h (1 Bft) W-NW 286 1 min 0,000 mm 0,9 UV-I 305 W/m 10,0 C 15,7 C 6,4 km/h (2 Bft) 100,00 %
11.11.2015 13:44 15,7 C 69 % 1024,7 hPa 0,0 l/m 4,6 km/h (1 Bft) W 275 1 min 0,000 mm 0,9 UV-I 304 W/m 10,0 C 15,7 C 6,4 km/h (2 Bft) 100,00 %
11.11.2015 13:45 15,6 C 69 % 1024,7 hPa 0,0 l/m 3,3 km/h (1 Bft) W 267 1 min 0,000 mm 0,9 UV-I 304 W/m 9,9 C 15,6 C 4,8 km/h (1 Bft) 100,00 %
11.11.2015 13:46 15,7 C 69 % 1024,7 hPa 0,0 l/m 4,1 km/h (1 Bft) W-NW 301 1 min 0,000 mm 0,9 UV-I 308 W/m 10,0 C 15,7 C 6,4 km/h (2 Bft) 100,00 %
11.11.2015 13:47 15,7 C 70 % 1024,7 hPa 0,0 l/m 4,7 km/h (1 Bft) W 271 1 min 0,000 mm 0,9 UV-I 305 W/m 10,2 C 15,7 C 6,4 km/h (2 Bft) 100,00 %
11.11.2015 13:48 15,7 C 69 % 1024,7 hPa 0,0 l/m 2,8 km/h (1 Bft) W-SW 257 1 min 0,000 mm 0,9 UV-I 303 W/m 10,0 C 15,7 C 4,8 km/h (1 Bft) 100,00 %
11.11.2015 13:49 15,8 C 71 % 1024,8 hPa 0,0 l/m 1,3 km/h (1 Bft) NW 311 1 min 0,000 mm 0,9 UV-I 301 W/m 10,6 C 15,8 C 3,2 km/h (1 Bft) 100,00 %
11.11.2015 13:50 15,8 C 70 % 1024,7 hPa 0,0 l/m 1,3 km/h (1 Bft) W-NW 285 1 min 0,000 mm 0,9 UV-I 301 W/m 10,3 C 15,8 C 3,2 km/h (1 Bft) 100,00 %
11.11.2015 13:51 15,8 C 70 % 1024,7 hPa 0,0 l/m 1,1 km/h (1 Bft) N-NW 337 1 min 0,000 mm 0,9 UV-I 297 W/m 10,3 C 15,8 C 3,2 km/h (1 Bft) 95,83 %
11.11.2015 13:52 15,9 C 71 % 1024,7 hPa 0,0 l/m 4,6 km/h (1 Bft) W-NW 282 1 min 0,000 mm 0,9 UV-I 297 W/m 10,6 C 15,9 C 9,7 km/h (2 Bft) 95,65 %
11.11.2015 13:53 15,9 C 69 % 1024,7 hPa 0,0 l/m 2,5 km/h (1 Bft) N-NO 14 1 min 0,000 mm 0,9 UV-I 295 W/m 10,2 C 15,9 C 4,8 km/h (1 Bft) 100,00 %
11.11.2015 13:54 15,9 C 70 % 1024,7 hPa 0,0 l/m 0,5 km/h (0 Bft) W 274 1 min 0,000 mm 0,9 UV-I 294 W/m 10,4 C 15,9 C 1,6 km/h (1 Bft) 100,00 %
11.11.2015 13:55 15,8 C 70 % 1024,7 hPa 0,0 l/m 1,4 km/h (1 Bft) NW 307 1 min 0,000 mm 0,8 UV-I 293 W/m 10,3 C 15,8 C 3,2 km/h (1 Bft) 100,00 %
11.11.2015 13:56 15,9 C 71 % 1024,7 hPa 0,0 l/m 1,3 km/h (1 Bft) N-NW 332 1 min 0,000 mm 0,8 UV-I 292 W/m 10,6 C 15,9 C 3,2 km/h (1 Bft) 100,00 %
11.11.2015 13:57 15,9 C 70 % 1024,7 hPa 0,0 l/m 1,7 km/h (1 Bft) W 281 1 min 0,000 mm 0,8 UV-I 288 W/m 10,4 C 15,9 C 3,2 km/h (1 Bft) 100,00 %
11.11.2015 13:58 15,9 C 70 % 1024,8 hPa 0,0 l/m 3,9 km/h (1 Bft) O 90 1 min 0,000 mm 0,8 UV-I 286 W/m 10,4 C 15,9 C 6,4 km/h (2 Bft) 96,15 %
11.11.2015 13:59 15,9 C 70 % 1024,7 hPa 0,0 l/m 2,3 km/h (1 Bft) NW 325 1 min 0,000 mm 0,8 UV-I 280 W/m 10,4 C 15,9 C 4,8 km/h (1 Bft) 100,00 %
11.11.2015 14:00 15,9 C 71 % 1024,7 hPa 0,0 l/m 2,9 km/h (1 Bft) W-NW 297 1 min 0,178 mm 0,8 UV-I 279 W/m 10,6 C 15,9 C 4,8 km/h (1 Bft) 91,30 %
11.11.2015 14:01 15,9 C 71 % 1024,7 hPa 0,0 l/m 4,8 km/h (1 Bft) W-NW 284 1 min 0,000 mm 0,8 UV-I 280 W/m 10,6 C 15,9 C 11,3 km/h (2 Bft) 100,00 %
11.11.2015 14:02 15,9 C 70 % 1024,7 hPa 0,0 l/m 3,5 km/h (1 Bft) W-NW 288 1 min 0,000 mm 0,8 UV-I 279 W/m 10,4 C 15,9 C 4,8 km/h (1 Bft) 91,67 %
11.11.2015 14:03 15,9 C 71 % 1024,7 hPa 0,0 l/m 2,8 km/h (1 Bft) W 279 1 min 0,000 mm 0,8 UV-I 278 W/m 10,6 C 15,9 C 4,8 km/h (1 Bft) 100,00 %
11.11.2015 14:04 15,9 C 71 % 1024,7 hPa 0,0 l/m 2,7 km/h (1 Bft) W-SW 255 1 min 0,000 mm 0,8 UV-I 276 W/m 10,6 C 15,9 C 4,8 km/h (1 Bft) 100,00 %
11.11.2015 14:05 16,0 C 72 % 1024,7 hPa 0,0 l/m 2,3 km/h (1 Bft) W-NW 284 1 min 0,000 mm 0,8 UV-I 276 W/m 11,0 C 16,0 C 4,8 km/h (1 Bft) 95,65 %
11.11.2015 14:06 16,0 C 71 % 1024,7 hPa 0,0 l/m 1,0 km/h (0 Bft) W-NW 298 1 min 0,000 mm 0,8 UV-I 275 W/m 10,7 C 16,0 C 3,2 km/h (1 Bft) 100,00 %
11.11.2015 14:07 16,1 C 71 % 1024,6 hPa 0,0 l/m 2,4 km/h (1 Bft) SW 223 1 min 0,000 mm 0,7 UV-I 272 W/m 10,8 C 16,1 C 4,8 km/h (1 Bft) 100,00 %
11.11.2015 14:08 16,1 C 71 % 1024,6 hPa 0,0 l/m 2,0 km/h (1 Bft) W-SW 242 1 min 0,000 mm 0,7 UV-I 270 W/m 10,8 C 16,1 C 3,2 km/h (1 Bft) 100,00 %
11.11.2015 14:09 16,2 C 72 % 1024,6 hPa 0,0 l/m 2,8 km/h (1 Bft) W 272 1 min 0,000 mm 0,7 UV-I 267 W/m 11,1 C 16,2 C 4,8 km/h (1 Bft) 100,00 %
11.11.2015 14:10 16,2 C 72 % 1024,6 hPa 0,0 l/m 0,8 km/h (0 Bft) W-NW 294 1 min 0,000 mm 0,7 UV-I 266 W/m 11,1 C 16,2 C 1,6 km/h (1 Bft) 100,00 %
11.11.2015 14:11 16,2 C 72 % 1024,6 hPa 0,0 l/m 1,9 km/h (1 Bft) W-NW 302 1 min 0,000 mm 0,7 UV-I 265 W/m 11,1 C 16,2 C 3,2 km/h (1 Bft) 96,15 %
11.11.2015 14:12 16,2 C 72 % 1024,6 hPa 0,0 l/m 3,4 km/h (1 Bft) W-SW 258 1 min 0,000 mm 0,7 UV-I 264 W/m 11,1 C 16,2 C 6,4 km/h (2 Bft) 100,00 %
11.11.2015 14:13 16,2 C 71 % 1024,6 hPa 0,0 l/m 3,8 km/h (1 Bft) W 275 1 min 0,000 mm 0,7 UV-I 263 W/m 10,9 C 16,2 C 6,4 km/h (2 Bft) 99,36 %
11.11.2015 14:14 16,2 C 71 % 1024,6 hPa 0,0 l/m 3,2 km/h (1 Bft) W-NW 299 1 min 0,000 mm 0,7 UV-I 260 W/m 10,9 C 16,2 C 6,4 km/h (2 Bft) 100,00 %
11.11.2015 14:15 16,1 C 72 % 1024,6 hPa 0,0 l/m 2,0 km/h (1 Bft) W-NW 283 1 min 0,000 mm 0,7 UV-I 260 W/m 11,0 C 16,1 C 3,2 km/h (1 Bft) 100,00 %
11.11.2015 14:16 16,2 C 72 % 1024,6 hPa 0,0 l/m 3,1 km/h (1 Bft) SW 232 1 min 0,000 mm 0,7 UV-I 258 W/m 11,1 C 16,2 C 4,8 km/h (1 Bft) 95,83 %
11.11.2015 14:17 16,1 C 72 % 1024,6 hPa 0,0 l/m 6,5 km/h (2 Bft) W 275 1 min 0,000 mm 0,7 UV-I 256 W/m 11,0 C 16,1 C 11,3 km/h (2 Bft) 100,00 %
11.11.2015 14:18 16,1 C 72 % 1024,6 hPa 0,0 l/m 4,4 km/h (1 Bft) W 273 1 min 0,000 mm 0,7 UV-I 254 W/m 11,0 C 16,1 C 6,4 km/h (2 Bft) 100,00 %
11.11.2015 14:19 16,1 C 72 % 1024,6 hPa 0,0 l/m 8,9 km/h (2 Bft) W 278 1 min 0,000 mm 0,6 UV-I 253 W/m 11,0 C 14,8 C 12,9 km/h (3 Bft) 96,55 %
11.11.2015 14:20 16,1 C 72 % 1024,5 hPa 0,0 l/m 5,2 km/h (1 Bft) W 262 1 min 0,000 mm 0,6 UV-I 251 W/m 11,0 C 16,1 C 9,7 km/h (2 Bft) 100,00 %
11.11.2015 14:21 16,1 C 72 % 1024,6 hPa 0,0 l/m 4,5 km/h (1 Bft) W-SW 256 1 min 0,000 mm 0,6 UV-I 250 W/m 11,0 C 16,1 C 6,4 km/h (2 Bft) 91,67 %
11.11.2015 14:22 16,1 C 72 % 1024,6 hPa 0,0 l/m 3,6 km/h (1 Bft) W-SW 246 1 min 0,000 mm 0,6 UV-I 248 W/m 11,0 C 16,1 C 4,8 km/h (1 Bft) 100,00 %
11.11.2015 14:23 16,1 C 72 % 1024,5 hPa 0,0 l/m 4,5 km/h (1 Bft) W-NW 299 1 min 0,000 mm 0,6 UV-I 246 W/m 11,0 C 16,1 C 9,7 km/h (2 Bft) 100,00 %
11.11.2015 14:24 16,1 C 72 % 1024,6 hPa 0,0 l/m 2,3 km/h (1 Bft) W 273 1 min 0,000 mm 0,6 UV-I 244 W/m 11,0 C 16,1 C 3,2 km/h (1 Bft) 100,00 %
11.11.2015 14:25 16,1 C 72 % 1024,6 hPa 0,0 l/m 3,6 km/h (1 Bft) NW 319 1 min 0,000 mm 0,6 UV-I 242 W/m 11,0 C 16,1 C 4,8 km/h (1 Bft) 100,00 %
11.11.2015 14:26 16,2 C 73 % 1024,5 hPa 0,0 l/m 5,2 km/h (1 Bft) W-NW 300 1 min 0,000 mm 0,6 UV-I 239 W/m 11,4 C 16,2 C 9,7 km/h (2 Bft) 100,00 %
11.11.2015 14:27 16,1 C 72 % 1024,5 hPa 0,0 l/m 4,7 km/h (1 Bft) W-SW 242 1 min 0,000 mm 0,6 UV-I 237 W/m 11,0 C 16,1 C 8,0 km/h (2 Bft) 100,00 %
11.11.2015 14:28 16,1 C 72 % 1024,5 hPa 0,0 l/m 3,1 km/h (1 Bft) W 280 1 min 0,000 mm 0,6 UV-I 235 W/m 11,0 C 16,1 C 6,4 km/h (2 Bft) 100,00 %
11.11.2015 14:29 16,1 C 72 % 1024,6 hPa 0,0 l/m 3,0 km/h (1 Bft) SW 229 1 min 0,000 mm 0,6 UV-I 233 W/m 11,0 C 16,1 C 8,0 km/h (2 Bft) 100,00 %
11.11.2015 14:30 16,1 C 72 % 1024,6 hPa 0,0 l/m 4,7 km/h (1 Bft) N 351 1 min 0,000 mm 0,6 UV-I 232 W/m 11,0 C 16,1 C 6,4 km/h (2 Bft) 95,65 %
11.11.2015 14:31 16,1 C 72 % 1024,5 hPa 0,0 l/m 2,3 km/h (1 Bft) W-SW 248 1 min 0,000 mm 0,5 UV-I 228 W/m 11,0 C 16,1 C 3,2 km/h (1 Bft) 100,00 %
11.11.2015 14:32 16,1 C 73 % 1024,6 hPa 0,0 l/m 2,5 km/h (1 Bft) W-SW 252 1 min 0,000 mm 0,5 UV-I 225 W/m 11,3 C 16,1 C 4,8 km/h (1 Bft) 100,00 %
11.11.2015 14:33 16,1 C 72 % 1024,6 hPa 0,0 l/m 4,5 km/h (1 Bft) NW 323 1 min 0,000 mm 0,5 UV-I 223 W/m 11,0 C 16,1 C 6,4 km/h (2 Bft) 100,00 %
11.11.2015 14:34 16,0 C 72 % 1024,5 hPa 0,0 l/m 5,1 km/h (1 Bft) W-SW 256 1 min 0,000 mm 0,5 UV-I 221 W/m 11,0 C 16,0 C 6,4 km/h (2 Bft) 96,15 %
11.11.2015 14:35 15,9 C 71 % 1024,5 hPa 0,0 l/m 4,5 km/h (1 Bft) W-NW 283 1 min 0,000 mm 0,5 UV-I 219 W/m 10,6 C 15,9 C 6,4 km/h (2 Bft) 100,00 %
11.11.2015 14:36 15,8 C 72 % 1024,6 hPa 0,0 l/m 3,4 km/h (1 Bft) W-NW 285 1 min 0,000 mm 0,5 UV-I 217 W/m 10,8 C 15,8 C 6,4 km/h (2 Bft) 95,65 %
11.11.2015 14:37 15,8 C 72 % 1024,4 hPa 0,0 l/m 1,8 km/h (1 Bft) W-NW 289 1 min 0,000 mm 0,5 UV-I 216 W/m 10,8 C 15,8 C 4,8 km/h (1 Bft) 95,83 %
11.11.2015 14:38 15,8 C 74 % 1024,4 hPa 0,0 l/m 2,5 km/h (1 Bft) W-NW 288 1 min 0,000 mm 0,5 UV-I 216 W/m 11,2 C 15,8 C 6,4 km/h (2 Bft) 100,00 %
11.11.2015 14:39 15,8 C 73 % 1024,4 hPa 0,0 l/m 4,1 km/h (1 Bft) S-SW 206 1 min 0,000 mm 0,5 UV-I 214 W/m 11,0 C 15,8 C 6,4 km/h (2 Bft) 100,00 %
11.11.2015 14:40 15,8 C 73 % 1024,4 hPa 0,0 l/m 3,3 km/h (1 Bft) W 275 1 min 0,000 mm 0,5 UV-I 213 W/m 11,0 C 15,8 C 4,8 km/h (1 Bft) 100,00 %
11.11.2015 14:41 15,8 C 72 % 1024,5 hPa 0,0 l/m 3,3 km/h (1 Bft) N 350 1 min 0,000 mm 0,5 UV-I 209 W/m 10,8 C 15,8 C 6,4 km/h (2 Bft) 96,55 %
11.11.2015 14:42 15,8 C 72 % 1024,5 hPa 0,0 l/m 4,7 km/h (1 Bft) N-NO 12 1 min 0,000 mm 0,5 UV-I 207 W/m 10,8 C 15,8 C 11,3 km/h (2 Bft) 95,83 %
11.11.2015 14:43 15,7 C 73 % 1024,5 hPa 0,0 l/m 2,0 km/h (1 Bft) NW 315 1 min 0,000 mm 0,2 UV-I 198 W/m 10,9 C 15,7 C 4,8 km/h (1 Bft) 100,00 %
11.11.2015 14:44 15,7 C 72 % 1024,5 hPa 0,0 l/m 4,4 km/h (1 Bft) W 263 1 min 0,000 mm 0,0 UV-I 134 W/m 10,7 C 15,7 C 6,4 km/h (2 Bft) 100,00 %
11.11.2015 14:45 15,7 C 73 % 1024,4 hPa 0,0 l/m 2,2 km/h (1 Bft) N 5 1 min 0,000 mm 0,0 UV-I 134 W/m 10,9 C 15,7 C 4,8 km/h (1 Bft) 100,00 %
11.11.2015 14:46 15,6 C 73 % 1024,5 hPa 0,0 l/m 5,0 km/h (1 Bft) W 279 0 min 0,000 mm 0,0 UV-I 74 W/m 10,8 C 15,6 C 12,9 km/h (3 Bft) 100,00 %
11.11.2015 14:47 15,6 C 73 % 1024,5 hPa 0,0 l/m 5,6 km/h (1 Bft) W-NW 286 0 min 0,000 mm 0,0 UV-I 74 W/m 10,8 C 15,6 C 11,3 km/h (2 Bft) 100,00 %
11.11.2015 14:48 15,4 C 73 % 1024,5 hPa 0,0 l/m 7,0 km/h (2 Bft) W-SW 256 0 min 0,000 mm 0,0 UV-I 55 W/m 10,6 C 15,1 C 12,9 km/h (3 Bft) 100,00 %
11.11.2015 14:49 15,3 C 73 % 1024,5 hPa 0,0 l/m 4,5 km/h (1 Bft) W 267 0 min 0,000 mm 0,0 UV-I 68 W/m 10,5 C 15,3 C 8,0 km/h (2 Bft) 100,00 %
11.11.2015 14:50 15,2 C 74 % 1024,6 hPa 0,0 l/m 4,1 km/h (1 Bft) W 259 0 min 0,000 mm 0,0 UV-I 92 W/m 10,6 C 15,2 C 6,4 km/h (2 Bft) 95,83 %
11.11.2015 14:51 15,2 C 74 % 1024,5 hPa 0,0 l/m 2,2 km/h (1 Bft) W 279 1 min 0,000 mm 0,0 UV-I 134 W/m 10,6 C 15,2 C 4,8 km/h (1 Bft) 100,00 %
11.11.2015 14:52 15,2 C 74 % 1024,5 hPa 0,0 l/m 2,3 km/h (1 Bft) W-SW 258 1 min 0,000 mm 0,0 UV-I 177 W/m 10,6 C 15,2 C 4,8 km/h (1 Bft) 100,00 %
11.11.2015 14:53 15,2 C 75 % 1024,4 hPa 0,0 l/m 3,9 km/h (1 Bft) N-NO 24 1 min 0,000 mm 0,0 UV-I 178 W/m 10,8 C 15,2 C 9,7 km/h (2 Bft) 100,00 %
11.11.2015 14:54 15,2 C 75 % 1024,4 hPa 0,0 l/m 2,1 km/h (1 Bft) S-SW 199 1 min 0,000 mm 0,0 UV-I 174 W/m 10,8 C 15,2 C 3,2 km/h (1 Bft) 100,00 %
11.11.2015 14:55 15,2 C 75 % 1024,4 hPa 0,0 l/m 2,5 km/h (1 Bft) NW 311 1 min 0,000 mm 0,0 UV-I 174 W/m 10,8 C 15,2 C 4,8 km/h (1 Bft) 100,00 %
11.11.2015 14:56 15,3 C 75 % 1024,4 hPa 0,0 l/m 2,7 km/h (1 Bft) NW 311 1 min 0,000 mm 0,0 UV-I 170 W/m 10,9 C 15,3 C 4,8 km/h (1 Bft) 100,00 %
11.11.2015 14:57 15,3 C 75 % 1024,5 hPa 0,0 l/m 3,0 km/h (1 Bft) NW 308 1 min 0,000 mm 0,0 UV-I 164 W/m 10,9 C 15,3 C 6,4 km/h (2 Bft) 100,00 %
11.11.2015 14:58 15,3 C 75 % 1024,4 hPa 0,0 l/m 5,5 km/h (1 Bft) W-NW 290 1 min 0,000 mm 0,0 UV-I 159 W/m 10,9 C 15,3 C 6,4 km/h (2 Bft) 100,00 %
11.11.2015 14:59 15,2 C 75 % 1024,4 hPa 0,0 l/m 3,4 km/h (1 Bft) S 191 1 min 0,000 mm 0,0 UV-I 161 W/m 10,8 C 15,2 C 6,4 km/h (2 Bft) 100,00 %
11.11.2015 15:00 15,2 C 75 % 1024,4 hPa 0,0 l/m 2,4 km/h (1 Bft) W-SW 255 1 min 0,000 mm 0,0 UV-I 157 W/m 10,8 C 15,2 C 4,8 km/h (1 Bft) 100,00 %
11.11.2015 15:01 15,2 C 75 % 1024,4 hPa 0,0 l/m 4,3 km/h (1 Bft) W 281 1 min 0,127 mm 0,0 UV-I 155 W/m 10,8 C 15,2 C 6,4 km/h (2 Bft) 100,00 %
11.11.2015 15:02 15,2 C 75 % 1024,4 hPa 0,0 l/m 4,8 km/h (1 Bft) W 266 1 min 0,000 mm 0,0 UV-I 130 W/m 10,8 C 15,2 C 9,7 km/h (2 Bft) 100,00 %
11.11.2015 15:03 15,2 C 74 % 1024,4 hPa 0,0 l/m 2,2 km/h (1 Bft) W-NW 288 1 min 0,000 mm 0,0 UV-I 153 W/m 10,6 C 15,2 C 4,8 km/h (1 Bft) 100,00 %
11.11.2015 15:04 15,2 C 75 % 1024,4 hPa 0,0 l/m 3,0 km/h (1 Bft) NW 304 1 min 0,000 mm 0,0 UV-I 149 W/m 10,8 C 15,2 C 6,4 km/h (2 Bft) 100,00 %
11.11.2015 15:05 15,2 C 75 % 1024,4 hPa 0,0 l/m 1,6 km/h (1 Bft) W-NW 297 1 min 0,000 mm 0,0 UV-I 145 W/m 10,8 C 15,2 C 3,2 km/h (1 Bft) 100,00 %
11.11.2015 15:06 15,2 C 76 % 1024,4 hPa 0,0 l/m 1,0 km/h (0 Bft) W 277 1 min 0,000 mm 0,0 UV-I 146 W/m 11,0 C 15,2 C 3,2 km/h (1 Bft) 100,00 %
11.11.2015 15:07 15,2 C 76 % 1024,4 hPa 0,0 l/m 3,3 km/h (1 Bft) W-NW 288 1 min 0,000 mm 0,0 UV-I 148 W/m 11,0 C 15,2 C 6,4 km/h (2 Bft) 100,00 %
11.11.2015 15:08 15,2 C 75 % 1024,4 hPa 0,0 l/m 2,4 km/h (1 Bft) SW 219 1 min 0,000 mm 0,0 UV-I 144 W/m 10,8 C 15,2 C 4,8 km/h (1 Bft) 100,00 %
11.11.2015 15:09 15,2 C 75 % 1024,4 hPa 0,0 l/m 3,9 km/h (1 Bft) W-NW 299 1 min 0,000 mm 0,0 UV-I 142 W/m 10,8 C 15,2 C 6,4 km/h (2 Bft) 96,30 %
11.11.2015 15:10 15,2 C 75 % 1024,5 hPa 0,0 l/m 2,2 km/h (1 Bft) S-SW 211 1 min 0,000 mm 0,0 UV-I 140 W/m 10,8 C 15,2 C 3,2 km/h (1 Bft) 100,00 %
11.11.2015 15:11 15,2 C 76 % 1024,4 hPa 0,0 l/m 2,5 km/h (1 Bft) SW 222 1 min 0,000 mm 0,0 UV-I 136 W/m 11,0 C 15,2 C 4,8 km/h (1 Bft) 100,00 %
11.11.2015 15:12 15,2 C 75 % 1024,4 hPa 0,0 l/m 1,1 km/h (1 Bft) SW 222 1 min 0,000 mm 0,0 UV-I 134 W/m 10,8 C 15,2 C 1,6 km/h (1 Bft) 100,00 %
11.11.2015 15:13 15,2 C 76 % 1024,4 hPa 0,0 l/m 0,3 km/h (0 Bft) SW 222 1 min 0,000 mm 0,0 UV-I 130 W/m 11,0 C 15,2 C 1,6 km/h (1 Bft) 100,00 %
11.11.2015 15:14 15,2 C 75 % 1024,4 hPa 0,0 l/m 1,7 km/h (1 Bft) W-NW 287 1 min 0,000 mm 0,0 UV-I 125 W/m 10,8 C 15,2 C 3,2 km/h (1 Bft) 96,15 %
11.11.2015 15:15 15,2 C 75 % 1024,4 hPa 0,0 l/m 3,2 km/h (1 Bft) W 275 1 min 0,000 mm 0,0 UV-I 116 W/m 10,8 C 15,2 C 4,8 km/h (1 Bft) 95,83 %
11.11.2015 15:16 15,2 C 76 % 1024,4 hPa 0,0 l/m 0,7 km/h (0 Bft) W 275 1 min 0,000 mm 0,0 UV-I 121 W/m 11,0 C 15,2 C 1,6 km/h (1 Bft) 95,65 %
11.11.2015 15:17 15,2 C 76 % 1024,5 hPa 0,0 l/m 1,3 km/h (1 Bft) W 275 1 min 0,000 mm 0,0 UV-I 106 W/m 11,0 C 15,2 C 3,2 km/h (1 Bft) 100,00 %
11.11.2015 15:18 15,1 C 75 % 1024,4 hPa 0,0 l/m 2,0 km/h (1 Bft) W 275 1 min 0,000 mm 0,0 UV-I 108 W/m 10,7 C 15,1 C 3,2 km/h (1 Bft) 100,00 %
11.11.2015 15:19 15,1 C 75 % 1024,4 hPa 0,0 l/m 2,7 km/h (1 Bft) NW 307 1 min 0,000 mm 0,0 UV-I 113 W/m 10,7 C 15,1 C 4,8 km/h (1 Bft) 100,00 %
11.11.2015 15:20 15,1 C 76 % 1024,4 hPa 0,0 l/m 3,9 km/h (1 Bft) W 277 1 min 0,000 mm 0,0 UV-I 110 W/m 10,9 C 15,1 C 6,4 km/h (2 Bft) 100,00 %
11.11.2015 15:21 15,1 C 75 % 1024,4 hPa 0,0 l/m 0,6 km/h (0 Bft) W-NW 288 1 min 0,000 mm 0,0 UV-I 108 W/m 10,7 C 15,1 C 3,2 km/h (1 Bft) 100,00 %
11.11.2015 15:22 15,1 C 76 % 1024,4 hPa 0,0 l/m 0,4 km/h (0 Bft) W-NW 289 1 min 0,000 mm 0,0 UV-I 106 W/m 10,9 C 15,1 C 1,6 km/h (1 Bft) 100,00 %
11.11.2015 15:23 15,1 C 76 % 1024,4 hPa 0,0 l/m 2,2 km/h (1 Bft) W 265 1 min 0,000 mm 0,0 UV-I 104 W/m 10,9 C 15,1 C 4,8 km/h (1 Bft) 100,00 %
11.11.2015 15:24 15,1 C 76 % 1024,4 hPa 0,0 l/m 2,7 km/h (1 Bft) SW 217 1 min 0,000 mm 0,0 UV-I 102 W/m 10,9 C 15,1 C 3,2 km/h (1 Bft) 100,00 %
11.11.2015 15:25 15,1 C 76 % 1024,4 hPa 0,0 l/m 2,0 km/h (1 Bft) W-NW 292 1 min 0,000 mm 0,0 UV-I 100 W/m 10,9 C 15,1 C 3,2 km/h (1 Bft) 100,00 %
11.11.2015 15:26 15,1 C 77 % 1024,4 hPa 0,0 l/m 1,8 km/h (1 Bft) W 279 1 min 0,000 mm 0,0 UV-I 98 W/m 11,1 C 15,1 C 6,4 km/h (2 Bft) 100,00 %
11.11.2015 15:27 15,0 C 76 % 1024,3 hPa 0,0 l/m 4,2 km/h (1 Bft) NW 306 1 min 0,000 mm 0,0 UV-I 97 W/m 10,8 C 15,0 C 8,0 km/h (2 Bft) 100,00 %
11.11.2015 15:28 15,0 C 76 % 1024,3 hPa 0,0 l/m 1,9 km/h (1 Bft) W-SW 245 1 min 0,000 mm 0,0 UV-I 96 W/m 10,8 C 15,0 C 3,2 km/h (1 Bft) 100,00 %
11.11.2015 15:29 14,9 C 77 % 1024,3 hPa 0,0 l/m 0,7 km/h (0 Bft) W-SW 245 1 min 0,000 mm 0,0 UV-I 94 W/m 10,9 C 14,9 C 3,2 km/h (1 Bft) 100,00 %
11.11.2015 15:30 14,9 C 76 % 1024,3 hPa 0,0 l/m 1,1 km/h (1 Bft) W-SW 245 1 min 0,000 mm 0,0 UV-I 93 W/m 10,7 C 14,9 C 3,2 km/h (1 Bft) 100,00 %
11.11.2015 15:31 14,9 C 77 % 1024,4 hPa 0,0 l/m 0,7 km/h (0 Bft) NW 320 1 min 0,000 mm 0,0 UV-I 91 W/m 10,9 C 14,9 C 3,2 km/h (1 Bft) 100,00 %
11.11.2015 15:32 15,0 C 76 % 1024,4 hPa 0,0 l/m 1,3 km/h (1 Bft) NW 320 1 min 0,000 mm 0,0 UV-I 90 W/m 10,8 C 15,0 C 3,2 km/h (1 Bft) 100,00 %
11.11.2015 15:33 15,0 C 76 % 1024,4 hPa 0,0 l/m 3,0 km/h (1 Bft) W-NW 286 1 min 0,000 mm 0,0 UV-I 87 W/m 10,8 C 15,0 C 4,8 km/h (1 Bft) 100,00 %
11.11.2015 15:34 15,0 C 76 % 1024,4 hPa 0,0 l/m 2,9 km/h (1 Bft) W-NW 300 1 min 0,000 mm 0,0 UV-I 82 W/m 10,8 C 15,0 C 4,8 km/h (1 Bft) 100,00 %
11.11.2015 15:35 14,9 C 77 % 1024,4 hPa 0,0 l/m 0,9 km/h (0 Bft) W-NW 300 1 min 0,000 mm 0,0 UV-I 79 W/m 10,9 C 14,9 C 1,6 km/h (1 Bft) 100,00 %
11.11.2015 15:36 14,9 C 77 % 1024,4 hPa 0,0 l/m 2,8 km/h (1 Bft) S-SW 198 1 min 0,000 mm 0,0 UV-I 74 W/m 10,9 C 14,9 C 4,8 km/h (1 Bft) 100,00 %
11.11.2015 15:37 14,9 C 76 % 1024,4 hPa 0,0 l/m 3,2 km/h (1 Bft) SW 227 1 min 0,000 mm 0,0 UV-I 72 W/m 10,7 C 14,9 C 4,8 km/h (1 Bft) 100,00 %
11.11.2015 15:38 14,9 C 77 % 1024,4 hPa 0,0 l/m 2,0 km/h (1 Bft) SW 227 1 min 0,000 mm 0,0 UV-I 70 W/m 10,9 C 14,9 C 3,2 km/h (1 Bft) 100,00 %
11.11.2015 15:39 14,9 C 77 % 1024,4 hPa 0,0 l/m 0,7 km/h (0 Bft) SW 227 1 min 0,000 mm 0,0 UV-I 68 W/m 10,9 C 14,9 C 1,6 km/h (1 Bft) 100,00 %
11.11.2015 15:40 14,9 C 77 % 1024,4 hPa 0,0 l/m 0,5 km/h (0 Bft) N 9 1 min 0,000 mm 0,0 UV-I 66 W/m 10,9 C 14,9 C 1,6 km/h (1 Bft) 100,00 %
11.11.2015 15:41 14,8 C 77 % 1024,4 hPa 0,0 l/m 1,5 km/h (1 Bft) W-NW 291 1 min 0,000 mm 0,0 UV-I 63 W/m 10,8 C 14,8 C 4,8 km/h (1 Bft) 100,00 %
11.11.2015 15:42 14,8 C 76 % 1024,4 hPa 0,0 l/m 1,5 km/h (1 Bft) W-SW 253 0 min 0,000 mm 0,0 UV-I 58 W/m 10,6 C 14,8 C 3,2 km/h (1 Bft) 100,00 %
11.11.2015 15:43 14,8 C 77 % 1024,5 hPa 0,0 l/m 0,4 km/h (0 Bft) W 263 0 min 0,000 mm 0,0 UV-I 56 W/m 10,8 C 14,8 C 3,2 km/h (1 Bft) 100,00 %
11.11.2015 15:44 14,8 C 77 % 1024,4 hPa 0,0 l/m 1,9 km/h (1 Bft) W 263 0 min 0,000 mm 0,0 UV-I 54 W/m 10,8 C 14,8 C 3,2 km/h (1 Bft) 100,00 %
11.11.2015 15:45 14,8 C 77 % 1024,5 hPa 0,0 l/m 1,7 km/h (1 Bft) N-NO 17 0 min 0,000 mm 0,0 UV-I 52 W/m 10,8 C 14,8 C 3,2 km/h (1 Bft) 100,00 %
11.11.2015 15:46 14,8 C 77 % 1024,5 hPa 0,0 l/m 1,8 km/h (1 Bft) W-NW 301 0 min 0,000 mm 0,0 UV-I 50 W/m 10,8 C 14,8 C 3,2 km/h (1 Bft) 100,00 %
11.11.2015 15:47 14,8 C 76 % 1024,4 hPa 0,0 l/m 0,8 km/h (0 Bft) W-NW 301 0 min 0,000 mm 0,0 UV-I 48 W/m 10,6 C 14,8 C 3,2 km/h (1 Bft) 100,00 %
11.11.2015 15:48 14,8 C 77 % 1024,4 hPa 0,0 l/m 0,9 km/h (0 Bft) W-NW 302 0 min 0,000 mm 0,0 UV-I 44 W/m 10,8 C 14,8 C 1,6 km/h (1 Bft) 95,65 %
11.11.2015 15:49 14,7 C 77 % 1024,5 hPa 0,0 l/m 2,7 km/h (1 Bft) N-NO 15 0 min 0,000 mm 0,0 UV-I 42 W/m 10,7 C 14,7 C 4,8 km/h (1 Bft) 100,00 %
11.11.2015 15:50 14,7 C 77 % 1024,4 hPa 0,0 l/m 1,5 km/h (1 Bft) W 277 0 min 0,000 mm 0,0 UV-I 42 W/m 10,7 C 14,7 C 3,2 km/h (1 Bft) 100,00 %
11.11.2015 15:51 14,7 C 77 % 1024,4 hPa 0,0 l/m 1,0 km/h (0 Bft) NW 323 0 min 0,000 mm 0,0 UV-I 39 W/m 10,7 C 14,7 C 3,2 km/h (1 Bft) 100,00 %
11.11.2015 15:52 14,7 C 78 % 1024,4 hPa 0,0 l/m 0,1 km/h (0 Bft) NW 316 0 min 0,000 mm 0,0 UV-I 33 W/m 10,9 C 14,7 C 1,6 km/h (1 Bft) 100,00 %
11.11.2015 15:53 14,6 C 78 % 1024,4 hPa 0,0 l/m 0,5 km/h (0 Bft) N-NW 327 0 min 0,000 mm 0,0 UV-I 35 W/m 10,8 C 14,6 C 1,6 km/h (1 Bft) 100,00 %
11.11.2015 15:54 14,6 C 78 % 1024,4 hPa 0,0 l/m 2,2 km/h (1 Bft) N 5 0 min 0,000 mm 0,0 UV-I 35 W/m 10,8 C 14,6 C 3,2 km/h (1 Bft) 100,00 %
11.11.2015 15:55 14,6 C 78 % 1024,4 hPa 0,0 l/m 1,3 km/h (1 Bft) N 5 0 min 0,000 mm 0,0 UV-I 28 W/m 10,8 C 14,6 C 3,2 km/h (1 Bft) 100,00 %
11.11.2015 15:56 14,6 C 78 % 1024,4 hPa 0,0 l/m 0,7 km/h (0 Bft) N 5 0 min 0,000 mm 0,0 UV-I 29 W/m 10,8 C 14,6 C 1,6 km/h (1 Bft) 100,00 %
11.11.2015 15:57 14,4 C 78 % 1024,4 hPa 0,0 l/m 0,0 km/h (0 Bft) N 5 0 min 0,000 mm 0,0 UV-I 28 W/m 10,6 C 14,4 C 0,0 km/h (0 Bft) 100,00 %
11.11.2015 15:58 14,4 C 79 % 1024,4 hPa 0,0 l/m 0,1 km/h (0 Bft) N 5 0 min 0,000 mm 0,0 UV-I 27 W/m 10,8 C 14,4 C 1,6 km/h (1 Bft) 100,00 %
11.11.2015 15:59 14,3 C 78 % 1024,4 hPa 0,0 l/m 1,4 km/h (1 Bft) W-SW 245 0 min 0,000 mm 0,0 UV-I 25 W/m 10,5 C 14,3 C 3,2 km/h (1 Bft) 100,00 %
11.11.2015 16:00 14,3 C 79 % 1024,4 hPa 0,0 l/m 1,2 km/h (1 Bft) W-SW 245 0 min 0,000 mm 0,0 UV-I 25 W/m 10,7 C 14,3 C 3,2 km/h (1 Bft) 100,00 %
11.11.2015 16:01 14,3 C 79 % 1024,4 hPa 0,0 l/m 0,2 km/h (0 Bft) W-SW 245 0 min 0,051 mm 0,0 UV-I 24 W/m 10,7 C 14,3 C 1,6 km/h (1 Bft) 96,15 %
11.11.2015 16:02 14,3 C 79 % 1024,4 hPa 0,0 l/m 0,3 km/h (0 Bft) W-SW 245 0 min 0,000 mm 0,0 UV-I 22 W/m 10,7 C 14,3 C 1,6 km/h (1 Bft) 100,00 %
11.11.2015 16:03 14,4 C 78 % 1024,5 hPa 0,0 l/m 0,0 km/h (0 Bft) W-SW 245 0 min 0,000 mm 0,0 UV-I 21 W/m 10,6 C 14,4 C 0,0 km/h (0 Bft) 100,00 %
11.11.2015 16:04 14,3 C 79 % 1024,6 hPa 0,0 l/m 0,0 km/h (0 Bft) W-SW 245 0 min 0,000 mm 0,0 UV-I 20 W/m 10,7 C 14,3 C 0,0 km/h (0 Bft) 95,83 %
11.11.2015 16:05 14,3 C 79 % 1024,6 hPa 0,0 l/m 0,0 km/h (0 Bft) W-SW 245 0 min 0,000 mm 0,0 UV-I 19 W/m 10,7 C 14,3 C 0,0 km/h (0 Bft) 91,30 %
11.11.2015 16:06 14,3 C 79 % 1024,6 hPa 0,0 l/m 0,0 km/h (0 Bft) W-SW 245 0 min 0,000 mm 0,0 UV-I 18 W/m 10,7 C 14,3 C 0,0 km/h (0 Bft) 95,83 %
11.11.2015 16:07 14,3 C 79 % 1024,6 hPa 0,0 l/m 0,0 km/h (0 Bft) W-SW 245 0 min 0,000 mm 0,0 UV-I 18 W/m 10,7 C 14,3 C 0,0 km/h (0 Bft) 100,00 %
11.11.2015 16:08 14,2 C 79 % 1024,6 hPa 0,0 l/m 0,3 km/h (0 Bft) W-SW 245 0 min 0,000 mm 0,0 UV-I 16 W/m 10,6 C 14,2 C 1,6 km/h (1 Bft) 100,00 %
11.11.2015 16:09 14,2 C 79 % 1024,6 hPa 0,0 l/m 0,4 km/h (0 Bft) W-SW 245 0 min 0,000 mm 0,0 UV-I 16 W/m 10,6 C 14,2 C 1,6 km/h (1 Bft) 100,00 %
11.11.2015 16:10 14,2 C 79 % 1024,6 hPa 0,0 l/m 0,5 km/h (0 Bft) W-SW 245 0 min 0,000 mm 0,0 UV-I 15 W/m 10,6 C 14,2 C 1,6 km/h (1 Bft) 100,00 %
11.11.2015 16:11 14,2 C 79 % 1024,5 hPa 0,0 l/m 0,0 km/h (0 Bft) W-SW 245 0 min 0,000 mm 0,0 UV-I 14 W/m 10,6 C 14,2 C 0,0 km/h (0 Bft) 95,65 %
11.11.2015 16:12 14,2 C 79 % 1024,5 hPa 0,0 l/m 0,3 km/h (0 Bft) W-SW 245 0 min 0,000 mm 0,0 UV-I 14 W/m 10,6 C 14,2 C 1,6 km/h (1 Bft) 100,00 %
11.11.2015 16:13 14,2 C 79 % 1024,6 hPa 0,0 l/m 0,1 km/h (0 Bft) W-SW 245 0 min 0,000 mm 0,0 UV-I 14 W/m 10,6 C 14,2 C 1,6 km/h (1 Bft) 100,00 %
11.11.2015 16:14 14,2 C 78 % 1024,5 hPa 0,0 l/m 1,1 km/h (1 Bft) W-SW 245 0 min 0,000 mm 0,0 UV-I 12 W/m 10,4 C 14,2 C 1,6 km/h (1 Bft) 100,00 %
11.11.2015 16:15 14,2 C 79 % 1024,5 hPa 0,0 l/m 1,6 km/h (1 Bft) SW 215 0 min 0,000 mm 0,0 UV-I 12 W/m 10,6 C 14,2 C 3,2 km/h (1 Bft) 100,00 %
11.11.2015 16:16 14,2 C 79 % 1024,6 hPa 0,0 l/m 0,8 km/h (0 Bft) SW 215 0 min 0,000 mm 0,0 UV-I 12 W/m 10,6 C 14,2 C 1,6 km/h (1 Bft) 100,00 %
11.11.2015 16:17 14,1 C 79 % 1024,5 hPa 0,0 l/m 1,4 km/h (1 Bft) SW 215 0 min 0,000 mm 0,0 UV-I 12 W/m 10,5 C 14,1 C 1,6 km/h (1 Bft) 100,00 %
11.11.2015 16:18 13,9 C 80 % 1024,5 hPa 0,0 l/m 1,1 km/h (1 Bft) S-SW 211 1 min 0,000 mm 0,0 UV-I 12 W/m 10,5 C 13,9 C 1,6 km/h (1 Bft) 100,00 %
11.11.2015 16:19 13,8 C 80 % 1024,5 hPa 0,0 l/m 1,0 km/h (0 Bft) S-SW 211 1 min 0,000 mm 0,0 UV-I 11 W/m 10,4 C 13,8 C 1,6 km/h (1 Bft) 100,00 %
11.11.2015 16:20 13,7 C 81 % 1024,5 hPa 0,0 l/m 1,2 km/h (1 Bft) S-SW 211 0 min 0,000 mm 0,0 UV-I 11 W/m 10,5 C 13,7 C 1,6 km/h (1 Bft) 100,00 %
11.11.2015 16:21 13,6 C 81 % 1024,4 hPa 0,0 l/m 0,5 km/h (0 Bft) S-SW 211 0 min 0,000 mm 0,0 UV-I 11 W/m 10,4 C 13,6 C 1,6 km/h (1 Bft) 100,00 %
11.11.2015 16:22 13,5 C 82 % 1024,5 hPa 0,0 l/m 0,0 km/h (0 Bft) S-SW 211 0 min 0,000 mm 0,0 UV-I 11 W/m 10,5 C 13,5 C 0,0 km/h (0 Bft) 100,00 %
11.11.2015 16:23 13,4 C 82 % 1024,5 hPa 0,0 l/m 0,0 km/h (0 Bft) S-SW 211 0 min 0,000 mm 0,0 UV-I 9 W/m 10,4 C 13,4 C 0,0 km/h (0 Bft) 100,00 %
11.11.2015 16:24 13,5 C 82 % 1024,4 hPa 0,0 l/m 0,0 km/h (0 Bft) S-SW 211 0 min 0,000 mm 0,0 UV-I 9 W/m 10,5 C 13,5 C 0,0 km/h (0 Bft) 95,65 %
11.11.2015 16:25 13,5 C 81 % 1024,4 hPa 0,0 l/m 0,0 km/h (0 Bft) S-SW 211 0 min 0,000 mm 0,0 UV-I 9 W/m 10,3 C 13,5 C 0,0 km/h (0 Bft) 100,00 %
11.11.2015 16:26 13,4 C 82 % 1024,4 hPa 0,0 l/m 0,0 km/h (0 Bft) S-SW 211 0 min 0,000 mm 0,0 UV-I 9 W/m 10,4 C 13,4 C 0,0 km/h (0 Bft) 96,55 %
11.11.2015 16:27 13,4 C 82 % 1024,4 hPa 0,0 l/m 0,0 km/h (0 Bft) S-SW 211 0 min 0,000 mm 0,0 UV-I 9 W/m 10,4 C 13,4 C 0,0 km/h (0 Bft) 100,00 %
11.11.2015 16:28 13,4 C 82 % 1024,4 hPa 0,0 l/m 0,0 km/h (0 Bft) S-SW 211 0 min 0,000 mm 0,0 UV-I 8 W/m 10,4 C 13,4 C 0,0 km/h (0 Bft) 100,00 %
11.11.2015 16:29 13,3 C 82 % 1024,4 hPa 0,0 l/m 0,0 km/h (0 Bft) S-SW 211 0 min 0,000 mm 0,0 UV-I 7 W/m 10,3 C 13,3 C 0,0 km/h (0 Bft) 95,83 %
11.11.2015 16:30 13,3 C 82 % 1024,5 hPa 0,0 l/m 0,0 km/h (0 Bft) S-SW 211 0 min 0,000 mm 0,0 UV-I 7 W/m 10,3 C 13,3 C 0,0 km/h (0 Bft) 100,00 %
11.11.2015 16:31 13,3 C 82 % 1024,4 hPa 0,0 l/m 0,0 km/h (0 Bft) S-SW 211 0 min 0,000 mm 0,0 UV-I 7 W/m 10,3 C 13,3 C 0,0 km/h (0 Bft) 100,00 %
11.11.2015 16:32 13,2 C 82 % 1024,5 hPa 0,0 l/m 0,0 km/h (0 Bft) S-SW 211 0 min 0,000 mm 0,0 UV-I 7 W/m 10,2 C 13,2 C 0,0 km/h (0 Bft) 100,00 %
11.11.2015 16:33 13,1 C 82 % 1024,4 hPa 0,0 l/m 0,0 km/h (0 Bft) S-SW 211 0 min 0,000 mm 0,0 UV-I 7 W/m 10,1 C 13,1 C 0,0 km/h (0 Bft) 95,83 %
11.11.2015 16:34 12,9 C 83 % 1024,4 hPa 0,0 l/m 0,1 km/h (0 Bft) S-SW 211 0 min 0,000 mm 0,0 UV-I 5 W/m 10,1 C 12,9 C 1,6 km/h (1 Bft) 100,00 %
11.11.2015 16:35 12,8 C 84 % 1024,4 hPa 0,0 l/m 0,5 km/h (0 Bft) S-SW 211 0 min 0,000 mm 0,0 UV-I 5 W/m 10,2 C 12,8 C 1,6 km/h (1 Bft) 100,00 %
11.11.2015 16:36 12,7 C 84 % 1024,4 hPa 0,0 l/m 1,6 km/h (1 Bft) S-SW 211 0 min 0,000 mm 0,0 UV-I 5 W/m 10,1 C 12,7 C 1,6 km/h (1 Bft) 100,00 %
11.11.2015 16:37 12,5 C 85 % 1024,4 hPa 0,0 l/m 1,3 km/h (1 Bft) S-SW 211 0 min 0,000 mm 0,0 UV-I 5 W/m 10,0 C 12,5 C 1,6 km/h (1 Bft) 100,00 %
11.11.2015 16:38 12,3 C 85 % 1024,4 hPa 0,0 l/m 0,8 km/h (0 Bft) S-SW 211 0 min 0,000 mm 0,0 UV-I 5 W/m 9,9 C 12,3 C 1,6 km/h (1 Bft) 100,00 %
11.11.2015 16:39 12,2 C 86 % 1024,4 hPa 0,0 l/m 1,0 km/h (0 Bft) S-SW 211 0 min 0,000 mm 0,0 UV-I 5 W/m 9,9 C 12,2 C 1,6 km/h (1 Bft) 100,00 %
11.11.2015 16:40 12,1 C 86 % 1024,4 hPa 0,0 l/m 1,4 km/h (1 Bft) S-SW 211 0 min 0,000 mm 0,0 UV-I 0 W/m 9,8 C 12,1 C 1,6 km/h (1 Bft) 100,00 %
11.11.2015 16:41 12,0 C 87 % 1024,3 hPa 0,0 l/m 1,5 km/h (1 Bft) S-SW 211 0 min 0,000 mm 0,0 UV-I 0 W/m 9,9 C 12,0 C 1,6 km/h (1 Bft) 100,00 %
11.11.2015 16:42 11,9 C 87 % 1024,4 hPa 0,0 l/m 1,2 km/h (1 Bft) S-SW 211 0 min 0,000 mm 0,0 UV-I 0 W/m 9,8 C 11,9 C 1,6 km/h (1 Bft) 95,83 %
11.11.2015 16:43 11,9 C 88 % 1024,3 hPa 0,0 l/m 1,5 km/h (1 Bft) S-SW 211 0 min 0,000 mm 0,0 UV-I 0 W/m 10,0 C 11,9 C 1,6 km/h (1 Bft) 100,00 %
11.11.2015 16:44 11,9 C 88 % 1024,3 hPa 0,0 l/m 1,7 km/h (1 Bft) S-SW 211 0 min 0,000 mm 0,0 UV-I 0 W/m 10,0 C 11,9 C 3,2 km/h (1 Bft) 91,67 %
11.11.2015 16:45 11,9 C 88 % 1024,3 hPa 0,0 l/m 1,7 km/h (1 Bft) S-SW 211 0 min 0,000 mm 0,0 UV-I 0 W/m 10,0 C 11,9 C 3,2 km/h (1 Bft) 100,00 %
11.11.2015 16:46 11,9 C 88 % 1024,3 hPa 0,0 l/m 1,5 km/h (1 Bft) S-SW 211 0 min 0,000 mm 0,0 UV-I 0 W/m 10,0 C 11,9 C 3,2 km/h (1 Bft) 100,00 %
11.11.2015 16:47 11,9 C 88 % 1024,3 hPa 0,0 l/m 1,7 km/h (1 Bft) S-SW 211 0 min 0,000 mm 0,0 UV-I 0 W/m 10,0 C 11,9 C 3,2 km/h (1 Bft) 100,00 %
11.11.2015 16:48 11,9 C 88 % 1024,4 hPa 0,0 l/m 1,6 km/h (1 Bft) S-SW 211 0 min 0,000 mm 0,0 UV-I 0 W/m 10,0 C 11,9 C 1,6 km/h (1 Bft) 100,00 %
11.11.2015 16:49 11,9 C 88 % 1024,3 hPa 0,0 l/m 1,8 km/h (1 Bft) S-SW 211 0 min 0,000 mm 0,0 UV-I 0 W/m 10,0 C 11,9 C 3,2 km/h (1 Bft) 100,00 %
11.11.2015 16:50 11,8 C 88 % 1024,3 hPa 0,0 l/m 1,3 km/h (1 Bft) S-SW 211 0 min 0,000 mm 0,0 UV-I 0 W/m 9,9 C 11,8 C 1,6 km/h (1 Bft) 95,65 %
11.11.2015 16:51 11,8 C 88 % 1024,3 hPa 0,0 l/m 0,8 km/h (0 Bft) S-SW 211 0 min 0,000 mm 0,0 UV-I 0 W/m 9,9 C 11,8 C 1,6 km/h (1 Bft) 100,00 %
11.11.2015 16:52 11,8 C 88 % 1024,4 hPa 0,0 l/m 0,7 km/h (0 Bft) S-SW 211 0 min 0,000 mm 0,0 UV-I 0 W/m 9,9 C 11,8 C 1,6 km/h (1 Bft) 100,00 %
11.11.2015 16:53 11,8 C 88 % 1024,4 hPa 0,0 l/m 0,1 km/h (0 Bft) S-SW 211 0 min 0,000 mm 0,0 UV-I 0 W/m 9,9 C 11,8 C 1,6 km/h (1 Bft) 100,00 %
11.11.2015 16:54 11,8 C 88 % 1024,5 hPa 0,0 l/m 0,0 km/h (0 Bft) S-SW 211 0 min 0,000 mm 0,0 UV-I 0 W/m 9,9 C 11,8 C 0,0 km/h (0 Bft) 91,30 %
11.11.2015 16:55 11,8 C 88 % 1024,5 hPa 0,0 l/m 0,0 km/h (0 Bft) S-SW 211 0 min 0,000 mm 0,0 UV-I 0 W/m 9,9 C 11,8 C 0,0 km/h (0 Bft) 100,00 %
11.11.2015 16:56 11,7 C 88 % 1024,5 hPa 0,0 l/m 0,6 km/h (0 Bft) S-SW 211 0 min 0,000 mm 0,0 UV-I 0 W/m 9,8 C 11,7 C 1,6 km/h (1 Bft) 99,33 %
11.11.2015 16:57 11,7 C 88 % 1024,5 hPa 0,0 l/m 0,5 km/h (0 Bft) S-SW 211 0 min 0,000 mm 0,0 UV-I 0 W/m 9,8 C 11,7 C 1,6 km/h (1 Bft) 100,00 %
11.11.2015 16:58 11,7 C 88 % 1024,6 hPa 0,0 l/m 0,0 km/h (0 Bft) S-SW 211 0 min 0,000 mm 0,0 UV-I 0 W/m 9,8 C 11,7 C 0,0 km/h (0 Bft) 100,00 %
11.11.2015 16:59 11,7 C 88 % 1024,6 hPa 0,0 l/m 0,1 km/h (0 Bft) S-SW 211 0 min 0,000 mm 0,0 UV-I 0 W/m 9,8 C 11,7 C 1,6 km/h (1 Bft) 100,00 %
11.11.2015 17:00 11,7 C 88 % 1024,6 hPa 0,0 l/m 0,2 km/h (0 Bft) S-SW 211 0 min 0,000 mm 0,0 UV-I 0 W/m 9,8 C 11,7 C 1,6 km/h (1 Bft) 100,00 %
11.11.2015 17:01 11,7 C 88 % 1024,5 hPa 0,0 l/m 0,8 km/h (0 Bft) S-SW 211 0 min 0,000 mm 0,0 UV-I 0 W/m 9,8 C 11,7 C 1,6 km/h (1 Bft) 100,00 %
11.11.2015 17:02 11,6 C 88 % 1024,5 hPa 0,0 l/m 1,7 km/h (1 Bft) S-SW 197 0 min 0,000 mm 0,0 UV-I 0 W/m 9,7 C 11,6 C 3,2 km/h (1 Bft) 100,00 %
11.11.2015 17:03 11,6 C 88 % 1024,6 hPa 0,0 l/m 1,8 km/h (1 Bft) S-SW 197 0 min 0,000 mm 0,0 UV-I 0 W/m 9,7 C 11,6 C 3,2 km/h (1 Bft) 100,00 %
11.11.2015 17:04 11,4 C 88 % 1024,5 hPa 0,0 l/m 1,9 km/h (1 Bft) S-SW 193 0 min 0,000 mm 0,0 UV-I 0 W/m 9,5 C 11,4 C 3,2 km/h (1 Bft) 100,00 %
11.11.2015 17:05 11,3 C 88 % 1024,5 hPa 0,0 l/m 1,9 km/h (1 Bft) S-SW 193 0 min 0,000 mm 0,0 UV-I 0 W/m 9,4 C 11,3 C 3,2 km/h (1 Bft) 100,00 %
11.11.2015 17:06 11,3 C 88 % 1024,5 hPa 0,0 l/m 1,9 km/h (1 Bft) S-SW 193 0 min 0,000 mm 0,0 UV-I 0 W/m 9,4 C 11,3 C 3,2 km/h (1 Bft) 100,00 %
11.11.2015 17:07 11,2 C 89 % 1024,5 hPa 0,0 l/m 2,2 km/h (1 Bft) S-SO 157 0 min 0,000 mm 0,0 UV-I 0 W/m 9,5 C 11,2 C 3,2 km/h (1 Bft) 100,00 %
11.11.2015 17:08 11,1 C 89 % 1024,5 hPa 0,0 l/m 2,5 km/h (1 Bft) S-SO 153 0 min 0,000 mm 0,0 UV-I 0 W/m 9,4 C 11,1 C 3,2 km/h (1 Bft) 95,83 %
11.11.2015 17:09 11,0 C 90 % 1024,5 hPa 0,0 l/m 2,1 km/h (1 Bft) S-SO 153 0 min 0,000 mm 0,0 UV-I 0 W/m 9,4 C 11,0 C 3,2 km/h (1 Bft) 100,00 %
11.11.2015 17:10 11,0 C 90 % 1024,5 hPa 0,0 l/m 2,3 km/h (1 Bft) S-SO 153 0 min 0,000 mm 0,0 UV-I 0 W/m 9,4 C 11,0 C 3,2 km/h (1 Bft) 100,00 %
11.11.2015 17:11 10,9 C 90 % 1024,5 hPa 0,0 l/m 2,5 km/h (1 Bft) S-SO 149 0 min 0,000 mm 0,0 UV-I 0 W/m 9,3 C 10,9 C 3,2 km/h (1 Bft) 100,00 %
11.11.2015 17:12 10,9 C 90 % 1024,5 hPa 0,0 l/m 2,0 km/h (1 Bft) S-SO 149 0 min 0,000 mm 0,0 UV-I 0 W/m 9,3 C 10,9 C 3,2 km/h (1 Bft) 100,00 %
11.11.2015 17:13 10,9 C 90 % 1024,5 hPa 0,0 l/m 1,3 km/h (1 Bft) S-SO 149 0 min 0,000 mm 0,0 UV-I 0 W/m 9,3 C 10,9 C 1,6 km/h (1 Bft) 100,00 %
11.11.2015 17:14 10,9 C 90 % 1024,4 hPa 0,0 l/m 1,3 km/h (1 Bft) S-SO 149 0 min 0,000 mm 0,0 UV-I 0 W/m 9,3 C 10,9 C 1,6 km/h (1 Bft) 100,00 %
11.11.2015 17:15 11,0 C 91 % 1024,5 hPa 0,0 l/m 1,1 km/h (1 Bft) S-SO 149 0 min 0,000 mm 0,0 UV-I 0 W/m 9,6 C 11,0 C 1,6 km/h (1 Bft) 100,00 %
11.11.2015 17:16 11,1 C 91 % 1024,4 hPa 0,0 l/m 0,2 km/h (0 Bft) S-SO 149 0 min 0,000 mm 0,0 UV-I 0 W/m 9,7 C 11,1 C 1,6 km/h (1 Bft) 100,00 %
11.11.2015 17:17 11,1 C 91 % 1024,4 hPa 0,0 l/m 0,0 km/h (0 Bft) S-SO 149 0 min 0,000 mm 0,0 UV-I 0 W/m 9,7 C 11,1 C 0,0 km/h (0 Bft) 100,00 %
11.11.2015 17:18 11,2 C 90 % 1024,4 hPa 0,0 l/m 0,0 km/h (0 Bft) S-SO 149 0 min 0,000 mm 0,0 UV-I 0 W/m 9,6 C 11,2 C 0,0 km/h (0 Bft) 95,83 %
11.11.2015 17:19 11,2 C 90 % 1024,4 hPa 0,0 l/m 0,0 km/h (0 Bft) S-SO 149 0 min 0,000 mm 0,0 UV-I 0 W/m 9,6 C 11,2 C 0,0 km/h (0 Bft) 100,00 %
11.11.2015 17:20 11,2 C 90 % 1024,5 hPa 0,0 l/m 0,0 km/h (0 Bft) S-SO 149 0 min 0,000 mm 0,0 UV-I 0 W/m 9,6 C 11,2 C 0,0 km/h (0 Bft) 100,00 %
11.11.2015 17:21 11,2 C 90 % 1024,5 hPa 0,0 l/m 0,0 km/h (0 Bft) S-SO 149 0 min 0,000 mm 0,0 UV-I 0 W/m 9,6 C 11,2 C 0,0 km/h (0 Bft) 100,00 %
11.11.2015 17:22 11,2 C 90 % 1024,5 hPa 0,0 l/m 0,2 km/h (0 Bft) S-SO 149 0 min 0,000 mm 0,0 UV-I 0 W/m 9,6 C 11,2 C 1,6 km/h (1 Bft) 100,00 %
11.11.2015 17:23 11,1 C 89 % 1024,5 hPa 0,0 l/m 0,0 km/h (0 Bft) S-SO 149 0 min 0,000 mm 0,0 UV-I 0 W/m 9,4 C 11,1 C 0,0 km/h (0 Bft) 100,00 %
11.11.2015 17:24 11,0 C 89 % 1024,6 hPa 0,0 l/m 0,0 km/h (0 Bft) S-SO 149 0 min 0,000 mm 0,0 UV-I 0 W/m 9,3 C 11,0 C 0,0 km/h (0 Bft) 95,83 %
11.11.2015 17:25 10,9 C 89 % 1024,6 hPa 0,0 l/m 0,1 km/h (0 Bft) S-SO 149 0 min 0,000 mm 0,0 UV-I 0 W/m 9,2 C 10,9 C 1,6 km/h (1 Bft) 100,00 %
11.11.2015 17:26 10,8 C 90 % 1024,5 hPa 0,0 l/m 0,7 km/h (0 Bft) S-SO 149 0 min 0,000 mm 0,0 UV-I 0 W/m 9,2 C 10,8 C 1,6 km/h (1 Bft) 96,30 %
11.11.2015 17:27 10,7 C 89 % 1024,6 hPa 0,0 l/m 1,0 km/h (0 Bft) S-SO 149 0 min 0,000 mm 0,0 UV-I 0 W/m 9,0 C 10,7 C 1,6 km/h (1 Bft) 100,00 %
11.11.2015 17:28 10,7 C 90 % 1024,6 hPa 0,0 l/m 1,4 km/h (1 Bft) S-SO 149 0 min 0,000 mm 0,0 UV-I 0 W/m 9,1 C 10,7 C 1,6 km/h (1 Bft) 95,83 %
11.11.2015 17:29 10,6 C 91 % 1024,6 hPa 0,0 l/m 1,5 km/h (1 Bft) S-SO 149 0 min 0,000 mm 0,0 UV-I 0 W/m 9,2 C 10,6 C 3,2 km/h (1 Bft) 100,00 %
11.11.2015 17:30 10,6 C 90 % 1024,6 hPa 0,0 l/m 1,5 km/h (1 Bft) S-SO 149 0 min 0,000 mm 0,0 UV-I 0 W/m 9,0 C 10,6 C 1,6 km/h (1 Bft) 95,83 %
11.11.2015 17:31 10,6 C 91 % 1024,6 hPa 0,0 l/m 0,5 km/h (0 Bft) S-SO 149 0 min 0,000 mm 0,0 UV-I 0 W/m 9,2 C 10,6 C 1,6 km/h (1 Bft) 100,00 %
11.11.2015 17:32 10,5 C 91 % 1024,6 hPa 0,0 l/m 0,7 km/h (0 Bft) S-SO 149 0 min 0,000 mm 0,0 UV-I 0 W/m 9,1 C 10,5 C 1,6 km/h (1 Bft) 100,00 %
11.11.2015 17:33 10,5 C 91 % 1024,5 hPa 0,0 l/m 0,6 km/h (0 Bft) S-SO 149 0 min 0,000 mm 0,0 UV-I 0 W/m 9,1 C 10,5 C 1,6 km/h (1 Bft) 100,00 %
11.11.2015 17:34 10,5 C 92 % 1024,5 hPa 0,0 l/m 0,0 km/h (0 Bft) S-SO 149 0 min 0,000 mm 0,0 UV-I 0 W/m 9,3 C 10,5 C 0,0 km/h (0 Bft) 100,00 %
11.11.2015 17:35 10,6 C 92 % 1024,5 hPa 0,0 l/m 0,0 km/h (0 Bft) S-SO 149 0 min 0,000 mm 0,0 UV-I 0 W/m 9,4 C 10,6 C 0,0 km/h (0 Bft) 100,00 %
11.11.2015 17:36 10,7 C 93 % 1024,5 hPa 0,0 l/m 0,0 km/h (0 Bft) S-SO 149 0 min 0,000 mm 0,0 UV-I 0 W/m 9,6 C 10,7 C 0,0 km/h (0 Bft) 100,00 %
11.11.2015 17:37 10,8 C 92 % 1024,5 hPa 0,0 l/m 0,0 km/h (0 Bft) S-SO 149 0 min 0,000 mm 0,0 UV-I 0 W/m 9,6 C 10,8 C 0,0 km/h (0 Bft) 100,00 %
11.11.2015 17:38 10,8 C 92 % 1024,4 hPa 0,0 l/m 0,0 km/h (0 Bft) S-SO 149 0 min 0,000 mm 0,0 UV-I 0 W/m 9,6 C 10,8 C 0,0 km/h (0 Bft) 95,65 %
11.11.2015 17:39 10,9 C 91 % 1024,4 hPa 0,0 l/m 0,2 km/h (0 Bft) S-SO 149 0 min 0,000 mm 0,0 UV-I 0 W/m 9,5 C 10,9 C 1,6 km/h (1 Bft) 100,00 %
11.11.2015 17:40 10,9 C 92 % 1024,4 hPa 0,0 l/m 1,2 km/h (1 Bft) S-SO 149 0 min 0,000 mm 0,0 UV-I 0 W/m 9,7 C 10,9 C 1,6 km/h (1 Bft) 100,00 %
11.11.2015 17:41 10,9 C 91 % 1024,4 hPa 0,0 l/m 1,4 km/h (1 Bft) S-SO 149 0 min 0,000 mm 0,0 UV-I 0 W/m 9,5 C 10,9 C 1,6 km/h (1 Bft) 95,83 %
11.11.2015 17:42 10,9 C 90 % 1024,4 hPa 0,0 l/m 2,5 km/h (1 Bft) S-SO 149 0 min 0,000 mm 0,0 UV-I 0 W/m 9,3 C 10,9 C 3,2 km/h (1 Bft) 100,00 %
11.11.2015 17:43 10,9 C 91 % 1024,4 hPa 0,0 l/m 2,8 km/h (1 Bft) S-SO 149 0 min 0,000 mm 0,0 UV-I 0 W/m 9,5 C 10,9 C 3,2 km/h (1 Bft) 100,00 %
11.11.2015 17:44 10,9 C 91 % 1024,5 hPa 0,0 l/m 2,9 km/h (1 Bft) S-SO 149 0 min 0,000 mm 0,0 UV-I 0 W/m 9,5 C 10,9 C 3,2 km/h (1 Bft) 100,00 %
11.11.2015 17:45 10,9 C 90 % 1024,5 hPa 0,0 l/m 2,5 km/h (1 Bft) S-SO 149 0 min 0,000 mm 0,0 UV-I 0 W/m 9,3 C 10,9 C 3,2 km/h (1 Bft) 100,00 %
11.11.2015 17:46 10,9 C 90 % 1024,5 hPa 0,0 l/m 1,8 km/h (1 Bft) S-SO 149 0 min 0,000 mm 0,0 UV-I 0 W/m 9,3 C 10,9 C 3,2 km/h (1 Bft) 100,00 %
11.11.2015 17:47 10,8 C 90 % 1024,5 hPa 0,0 l/m 2,3 km/h (1 Bft) S-SO 149 0 min 0,000 mm 0,0 UV-I 0 W/m 9,2 C 10,8 C 3,2 km/h (1 Bft) 100,00 %
11.11.2015 17:48 10,8 C 91 % 1024,5 hPa 0,0 l/m 2,6 km/h (1 Bft) S-SO 148 0 min 0,000 mm 0,0 UV-I 0 W/m 9,4 C 10,8 C 3,2 km/h (1 Bft) 100,00 %
11.11.2015 17:49 10,8 C 91 % 1024,4 hPa 0,0 l/m 2,8 km/h (1 Bft) SO 144 0 min 0,000 mm 0,0 UV-I 0 W/m 9,4 C 10,8 C 3,2 km/h (1 Bft) 100,00 %
11.11.2015 17:50 10,7 C 91 % 1024,5 hPa 0,0 l/m 2,3 km/h (1 Bft) SO 144 0 min 0,000 mm 0,0 UV-I 0 W/m 9,3 C 10,7 C 3,2 km/h (1 Bft) 100,00 %
11.11.2015 17:51 10,7 C 91 % 1024,4 hPa 0,0 l/m 2,4 km/h (1 Bft) SO 144 0 min 0,000 mm 0,0 UV-I 0 W/m 9,3 C 10,7 C 3,2 km/h (1 Bft) 100,00 %
11.11.2015 17:52 10,6 C 91 % 1024,5 hPa 0,0 l/m 2,5 km/h (1 Bft) SO 143 0 min 0,000 mm 0,0 UV-I 0 W/m 9,2 C 10,6 C 3,2 km/h (1 Bft) 100,00 %
11.11.2015 17:53 10,6 C 92 % 1024,5 hPa 0,0 l/m 2,5 km/h (1 Bft) SO 142 0 min 0,000 mm 0,0 UV-I 0 W/m 9,4 C 10,6 C 3,2 km/h (1 Bft) 100,00 %
11.11.2015 17:54 10,6 C 92 % 1024,5 hPa 0,0 l/m 2,2 km/h (1 Bft) SO 142 0 min 0,000 mm 0,0 UV-I 0 W/m 9,4 C 10,6 C 3,2 km/h (1 Bft) 100,00 %
11.11.2015 17:55 10,7 C 92 % 1024,5 hPa 0,0 l/m 1,5 km/h (1 Bft) SO 142 0 min 0,000 mm 0,0 UV-I 0 W/m 9,5 C 10,7 C 3,2 km/h (1 Bft) 100,00 %
11.11.2015 17:56 10,7 C 92 % 1024,5 hPa 0,0 l/m 1,0 km/h (0 Bft) SO 142 0 min 0,000 mm 0,0 UV-I 0 W/m 9,5 C 10,7 C 3,2 km/h (1 Bft) 100,00 %
11.11.2015 17:57 10,7 C 91 % 1024,5 hPa 0,0 l/m 1,6 km/h (1 Bft) SO 142 0 min 0,000 mm 0,0 UV-I 0 W/m 9,3 C 10,7 C 3,2 km/h (1 Bft) 100,00 %
11.11.2015 17:58 10,6 C 91 % 1024,5 hPa 0,0 l/m 1,6 km/h (1 Bft) SO 142 0 min 0,000 mm 0,0 UV-I 0 W/m 9,2 C 10,6 C 3,2 km/h (1 Bft) 100,00 %
11.11.2015 17:59 10,6 C 91 % 1024,5 hPa 0,0 l/m 1,4 km/h (1 Bft) SO 142 0 min 0,000 mm 0,0 UV-I 0 W/m 9,2 C 10,6 C 1,6 km/h (1 Bft) 100,00 %
11.11.2015 18:00 10,6 C 91 % 1024,5 hPa 0,0 l/m 1,6 km/h (1 Bft) SO 142 0 min 0,000 mm 0,0 UV-I 0 W/m 9,2 C 10,6 C 1,6 km/h (1 Bft) 100,00 %
11.11.2015 18:01 10,6 C 92 % 1024,4 hPa 0,0 l/m 1,3 km/h (1 Bft) SO 142 0 min 0,000 mm 0,0 UV-I 0 W/m 9,4 C 10,6 C 1,6 km/h (1 Bft) 100,00 %
11.11.2015 18:02 10,5 C 92 % 1024,5 hPa 0,0 l/m 0,6 km/h (0 Bft) SO 142 0 min 0,000 mm 0,0 UV-I 0 W/m 9,3 C 10,5 C 1,6 km/h (1 Bft) 100,00 %
11.11.2015 18:03 10,4 C 92 % 1024,5 hPa 0,0 l/m 0,1 km/h (0 Bft) SO 142 0 min 0,000 mm 0,0 UV-I 0 W/m 9,2 C 10,4 C 1,6 km/h (1 Bft) 100,00 %
11.11.2015 18:04 10,4 C 91 % 1024,5 hPa 0,0 l/m 0,2 km/h (0 Bft) SO 142 0 min 0,000 mm 0,0 UV-I 0 W/m 9,0 C 10,4 C 1,6 km/h (1 Bft) 95,83 %
11.11.2015 18:05 10,4 C 92 % 1024,5 hPa 0,0 l/m 1,0 km/h (0 Bft) SO 142 0 min 0,000 mm 0,0 UV-I 0 W/m 9,2 C 10,4 C 1,6 km/h (1 Bft) 100,00 %
11.11.2015 18:06 10,4 C 92 % 1024,5 hPa 0,0 l/m 0,4 km/h (0 Bft) SO 142 0 min 0,000 mm 0,0 UV-I 0 W/m 9,2 C 10,4 C 1,6 km/h (1 Bft) 100,00 %
11.11.2015 18:07 10,4 C 92 % 1024,5 hPa 0,0 l/m 0,5 km/h (0 Bft) SO 142 0 min 0,000 mm 0,0 UV-I 0 W/m 9,2 C 10,4 C 1,6 km/h (1 Bft) 100,00 %
11.11.2015 18:08 10,5 C 92 % 1024,5 hPa 0,0 l/m 1,0 km/h (0 Bft) SO 142 0 min 0,000 mm 0,0 UV-I 0 W/m 9,3 C 10,5 C 1,6 km/h (1 Bft) 100,00 %
11.11.2015 18:09 10,5 C 92 % 1024,4 hPa 0,0 l/m 1,0 km/h (0 Bft) SO 142 0 min 0,000 mm 0,0 UV-I 0 W/m 9,3 C 10,5 C 1,6 km/h (1 Bft) 100,00 %
11.11.2015 18:10 10,6 C 92 % 1024,5 hPa 0,0 l/m 0,6 km/h (0 Bft) SO 142 0 min 0,000 mm 0,0 UV-I 0 W/m 9,4 C 10,6 C 1,6 km/h (1 Bft) 100,00 %
11.11.2015 18:11 10,6 C 92 % 1024,5 hPa 0,0 l/m 0,7 km/h (0 Bft) SO 142 0 min 0,000 mm 0,0 UV-I 0 W/m 9,4 C 10,6 C 1,6 km/h (1 Bft) 100,00 %
11.11.2015 18:12 10,7 C 91 % 1024,4 hPa 0,0 l/m 0,3 km/h (0 Bft) SO 142 0 min 0,000 mm 0,0 UV-I 0 W/m 9,3 C 10,7 C 1,6 km/h (1 Bft) 100,00 %
11.11.2015 18:13 10,7 C 91 % 1024,5 hPa 0,0 l/m 0,0 km/h (0 Bft) SO 142 0 min 0,000 mm 0,0 UV-I 0 W/m 9,3 C 10,7 C 0,0 km/h (0 Bft) 100,00 %
11.11.2015 18:14 10,6 C 91 % 1024,4 hPa 0,0 l/m 0,0 km/h (0 Bft) SO 142 0 min 0,000 mm 0,0 UV-I 0 W/m 9,2 C 10,6 C 0,0 km/h (0 Bft) 100,00 %
11.11.2015 18:15 10,4 C 90 % 1024,5 hPa 0,0 l/m 0,0 km/h (0 Bft) SO 142 0 min 0,000 mm 0,0 UV-I 0 W/m 8,8 C 10,4 C 0,0 km/h (0 Bft) 100,00 %
11.11.2015 18:16 10,3 C 91 % 1024,5 hPa 0,0 l/m 0,0 km/h (0 Bft) SO 142 0 min 0,000 mm 0,0 UV-I 0 W/m 8,9 C 10,3 C 0,0 km/h (0 Bft) 95,65 %
11.11.2015 18:17 10,3 C 92 % 1024,5 hPa 0,0 l/m 0,0 km/h (0 Bft) SO 142 0 min 0,000 mm 0,0 UV-I 0 W/m 9,1 C 10,3 C 0,0 km/h (0 Bft) 100,00 %
11.11.2015 18:18 10,2 C 92 % 1024,5 hPa 0,0 l/m 0,0 km/h (0 Bft) SO 142 0 min 0,000 mm 0,0 UV-I 0 W/m 9,0 C 10,2 C 0,0 km/h (0 Bft) 100,00 %
11.11.2015 18:19 10,2 C 92 % 1024,6 hPa 0,0 l/m 0,0 km/h (0 Bft) SO 142 0 min 0,000 mm 0,0 UV-I 0 W/m 9,0 C 10,2 C 0,0 km/h (0 Bft) 100,00 %
11.11.2015 18:20 10,2 C 92 % 1024,6 hPa 0,0 l/m 0,0 km/h (0 Bft) SO 142 0 min 0,000 mm 0,0 UV-I 0 W/m 9,0 C 10,2 C 0,0 km/h (0 Bft) 100,00 %
11.11.2015 18:21 10,2 C 92 % 1024,6 hPa 0,0 l/m 0,0 km/h (0 Bft) SO 142 0 min 0,000 mm 0,0 UV-I 0 W/m 9,0 C 10,2 C 0,0 km/h (0 Bft) 100,00 %
11.11.2015 18:22 10,2 C 93 % 1024,6 hPa 0,0 l/m 0,0 km/h (0 Bft) SO 142 0 min 0,000 mm 0,0 UV-I 0 W/m 9,1 C 10,2 C 0,0 km/h (0 Bft) 100,00 %
11.11.2015 18:23 10,3 C 93 % 1024,6 hPa 0,0 l/m 0,0 km/h (0 Bft) SO 142 0 min 0,000 mm 0,0 UV-I 0 W/m 9,2 C 10,3 C 0,0 km/h (0 Bft) 100,00 %
11.11.2015 18:24 10,3 C 92 % 1024,6 hPa 0,0 l/m 0,0 km/h (0 Bft) SO 142 0 min 0,000 mm 0,0 UV-I 0 W/m 9,1 C 10,3 C 0,0 km/h (0 Bft) 96,55 %
11.11.2015 18:25 10,3 C 92 % 1024,6 hPa 0,0 l/m 0,0 km/h (0 Bft) SO 142 0 min 0,000 mm 0,0 UV-I 0 W/m 9,1 C 10,3 C 0,0 km/h (0 Bft) 95,83 %
11.11.2015 18:26 10,2 C 92 % 1024,6 hPa 0,0 l/m 0,0 km/h (0 Bft) SO 142 0 min 0,000 mm 0,0 UV-I 0 W/m 9,0 C 10,2 C 0,0 km/h (0 Bft) 95,65 %
11.11.2015 18:27 10,2 C 92 % 1024,6 hPa 0,0 l/m 0,0 km/h (0 Bft) SO 142 0 min 0,000 mm 0,0 UV-I 0 W/m 9,0 C 10,2 C 0,0 km/h (0 Bft) 100,00 %
11.11.2015 18:28 10,1 C 91 % 1024,6 hPa 0,0 l/m 0,0 km/h (0 Bft) SO 142 0 min 0,000 mm 0,0 UV-I 0 W/m 8,7 C 10,1 C 0,0 km/h (0 Bft) 91,67 %
11.11.2015 18:29 10,0 C 91 % 1024,6 hPa 0,0 l/m 0,0 km/h (0 Bft) SO 142 0 min 0,000 mm 0,0 UV-I 0 W/m 8,6 C 10,0 C 0,0 km/h (0 Bft) 100,00 %
11.11.2015 18:30 9,9 C 92 % 1024,6 hPa 0,0 l/m 0,0 km/h (0 Bft) SO 142 0 min 0,000 mm 0,0 UV-I 0 W/m 8,7 C 9,9 C 0,0 km/h (0 Bft) 100,00 %
11.11.2015 18:31 9,8 C 92 % 1024,6 hPa 0,0 l/m 0,1 km/h (0 Bft) SO 142 0 min 0,000 mm 0,0 UV-I 0 W/m 8,6 C 9,8 C 1,6 km/h (1 Bft) 100,00 %
11.11.2015 18:32 9,8 C 92 % 1024,6 hPa 0,0 l/m 0,2 km/h (0 Bft) SO 142 0 min 0,000 mm 0,0 UV-I 0 W/m 8,6 C 9,8 C 1,6 km/h (1 Bft) 100,00 %
11.11.2015 18:33 9,8 C 93 % 1024,6 hPa 0,0 l/m 0,9 km/h (0 Bft) SO 142 0 min 0,000 mm 0,0 UV-I 0 W/m 8,7 C 9,8 C 1,6 km/h (1 Bft) 100,00 %
11.11.2015 18:34 9,7 C 92 % 1024,6 hPa 0,0 l/m 1,6 km/h (1 Bft) SO 142 0 min 0,000 mm 0,0 UV-I 0 W/m 8,5 C 9,7 C 1,6 km/h (1 Bft) 91,67 %
11.11.2015 18:35 9,6 C 92 % 1024,6 hPa 0,0 l/m 1,9 km/h (1 Bft) SO 142 0 min 0,000 mm 0,0 UV-I 0 W/m 8,4 C 9,6 C 3,2 km/h (1 Bft) 96,15 %
11.11.2015 18:36 9,5 C 92 % 1024,6 hPa 0,0 l/m 2,0 km/h (1 Bft) SO 142 0 min 0,000 mm 0,0 UV-I 0 W/m 8,3 C 9,5 C 3,2 km/h (1 Bft) 100,00 %
11.11.2015 18:37 9,4 C 93 % 1024,6 hPa 0,0 l/m 1,0 km/h (0 Bft) SO 142 0 min 0,000 mm 0,0 UV-I 0 W/m 8,3 C 9,4 C 1,6 km/h (1 Bft) 100,00 %
11.11.2015 18:38 9,3 C 93 % 1024,6 hPa 0,0 l/m 0,1 km/h (0 Bft) SO 142 0 min 0,000 mm 0,0 UV-I 0 W/m 8,2 C 9,3 C 1,6 km/h (1 Bft) 100,00 %
11.11.2015 18:39 9,2 C 93 % 1024,6 hPa 0,0 l/m 0,0 km/h (0 Bft) SO 142 0 min 0,000 mm 0,0 UV-I 0 W/m 8,1 C 9,2 C 0,0 km/h (0 Bft) 100,00 %
11.11.2015 18:40 9,2 C 93 % 1024,6 hPa 0,0 l/m 0,0 km/h (0 Bft) SO 142 0 min 0,000 mm 0,0 UV-I 0 W/m 8,1 C 9,2 C 0,0 km/h (0 Bft) 100,00 %
11.11.2015 18:41 9,3 C 94 % 1024,6 hPa 0,0 l/m 0,0 km/h (0 Bft) SO 142 0 min 0,000 mm 0,0 UV-I 0 W/m 8,4 C 9,3 C 0,0 km/h (0 Bft) 95,65 %
11.11.2015 18:42 9,3 C 95 % 1024,6 hPa 0,0 l/m 0,0 km/h (0 Bft) SO 142 0 min 0,000 mm 0,0 UV-I 0 W/m 8,5 C 9,3 C 0,0 km/h (0 Bft) 100,00 %
11.11.2015 18:43 9,4 C 95 % 1024,6 hPa 0,0 l/m 0,0 km/h (0 Bft) SO 142 0 min 0,000 mm 0,0 UV-I 0 W/m 8,6 C 9,4 C 0,0 km/h (0 Bft) 100,00 %
11.11.2015 18:44 9,4 C 95 % 1024,6 hPa 0,0 l/m 0,1 km/h (0 Bft) SO 142 0 min 0,000 mm 0,0 UV-I 0 W/m 8,6 C 9,4 C 1,6 km/h (1 Bft) 95,83 %
11.11.2015 18:45 9,4 C 94 % 1024,6 hPa 0,0 l/m 0,1 km/h (0 Bft) SO 142 0 min 0,000 mm 0,0 UV-I 0 W/m 8,5 C 9,4 C 1,6 km/h (1 Bft) 100,00 %
11.11.2015 18:46 9,6 C 95 % 1024,7 hPa 0,0 l/m 0,3 km/h (0 Bft) SO 142 0 min 0,000 mm 0,0 UV-I 0 W/m 8,8 C 9,6 C 1,6 km/h (1 Bft) 100,00 %
11.11.2015 18:47 9,7 C 95 % 1024,7 hPa 0,0 l/m 0,0 km/h (0 Bft) SO 142 0 min 0,000 mm 0,0 UV-I 0 W/m 8,9 C 9,7 C 0,0 km/h (0 Bft) 95,65 %
11.11.2015 18:48 9,7 C 94 % 1024,6 hPa 0,0 l/m 0,0 km/h (0 Bft) SO 142 0 min 0,000 mm 0,0 UV-I 0 W/m 8,8 C 9,7 C 0,0 km/h (0 Bft) 100,00 %
11.11.2015 18:49 9,7 C 94 % 1024,7 hPa 0,0 l/m 0,0 km/h (0 Bft) SO 142 0 min 0,000 mm 0,0 UV-I 0 W/m 8,8 C 9,7 C 0,0 km/h (0 Bft) 100,00 %
11.11.2015 18:50 9,7 C 93 % 1024,7 hPa 0,0 l/m 0,0 km/h (0 Bft) SO 142 0 min 0,000 mm 0,0 UV-I 0 W/m 8,6 C 9,7 C 0,0 km/h (0 Bft) 100,00 %
11.11.2015 18:51 9,6 C 93 % 1024,8 hPa 0,0 l/m 0,0 km/h (0 Bft) SO 142 0 min 0,000 mm 0,0 UV-I 0 W/m 8,5 C 9,6 C 0,0 km/h (0 Bft) 100,00 %
11.11.2015 18:52 9,5 C 93 % 1024,8 hPa 0,0 l/m 0,0 km/h (0 Bft) SO 142 0 min 0,000 mm 0,0 UV-I 0 W/m 8,4 C 9,5 C 0,0 km/h (0 Bft) 100,00 %
11.11.2015 18:53 9,4 C 93 % 1024,8 hPa 0,0 l/m 0,0 km/h (0 Bft) SO 142 0 min 0,000 mm 0,0 UV-I 0 W/m 8,3 C 9,4 C 0,0 km/h (0 Bft) 100,00 %
11.11.2015 18:54 9,4 C 94 % 1024,8 hPa 0,0 l/m 0,0 km/h (0 Bft) SO 142 0 min 0,000 mm 0,0 UV-I 0 W/m 8,5 C 9,4 C 0,0 km/h (0 Bft) 100,00 %
11.11.2015 18:55 9,4 C 94 % 1024,8 hPa 0,0 l/m 0,0 km/h (0 Bft) SO 142 0 min 0,000 mm 0,0 UV-I 0 W/m 8,5 C 9,4 C 0,0 km/h (0 Bft) 100,00 %
11.11.2015 18:56 9,3 C 94 % 1024,8 hPa 0,0 l/m 0,0 km/h (0 Bft) SO 142 0 min 0,000 mm 0,0 UV-I 0 W/m 8,4 C 9,3 C 0,0 km/h (0 Bft) 100,00 %
11.11.2015 18:57 9,3 C 93 % 1024,7 hPa 0,0 l/m 0,0 km/h (0 Bft) SO 142 0 min 0,000 mm 0,0 UV-I 0 W/m 8,2 C 9,3 C 0,0 km/h (0 Bft) 100,00 %
11.11.2015 18:58 9,2 C 93 % 1024,7 hPa 0,0 l/m 0,3 km/h (0 Bft) SO 142 0 min 0,000 mm 0,0 UV-I 0 W/m 8,1 C 9,2 C 1,6 km/h (1 Bft) 100,00 %
11.11.2015 18:59 9,3 C 94 % 1024,7 hPa 0,0 l/m 1,3 km/h (1 Bft) SO 142 0 min 0,000 mm 0,0 UV-I 0 W/m 8,4 C 9,3 C 3,2 km/h (1 Bft) 100,00 %
11.11.2015 19:00 9,2 C 94 % 1024,7 hPa 0,0 l/m 0,0 km/h (0 Bft) SO 142 0 min 0,000 mm 0,0 UV-I 0 W/m 8,3 C 9,2 C 0,0 km/h (0 Bft) 91,67 %
11.11.2015 19:01 9,2 C 94 % 1024,7 hPa 0,0 l/m 0,0 km/h (0 Bft) SO 142 0 min 0,000 mm 0,0 UV-I 0 W/m 8,3 C 9,2 C 0,0 km/h (0 Bft) 100,00 %
11.11.2015 19:02 9,2 C 94 % 1024,7 hPa 0,0 l/m 0,3 km/h (0 Bft) SO 142 0 min 0,000 mm 0,0 UV-I 0 W/m 8,3 C 9,2 C 1,6 km/h (1 Bft) 100,00 %
11.11.2015 19:03 9,2 C 94 % 1024,7 hPa 0,0 l/m 0,7 km/h (0 Bft) SO 142 0 min 0,000 mm 0,0 UV-I 0 W/m 8,3 C 9,2 C 1,6 km/h (1 Bft) 100,00 %
11.11.2015 19:04 9,3 C 95 % 1024,7 hPa 0,0 l/m 1,0 km/h (0 Bft) SO 142 0 min 0,000 mm 0,0 UV-I 0 W/m 8,5 C 9,3 C 1,6 km/h (1 Bft) 100,00 %
11.11.2015 19:05 9,3 C 94 % 1024,7 hPa 0,0 l/m 0,5 km/h (0 Bft) SO 142 0 min 0,000 mm 0,0 UV-I 0 W/m 8,4 C 9,3 C 1,6 km/h (1 Bft) 100,00 %
11.11.2015 19:06 9,2 C 93 % 1024,7 hPa 0,0 l/m 0,0 km/h (0 Bft) SO 142 0 min 0,000 mm 0,0 UV-I 0 W/m 8,1 C 9,2 C 0,0 km/h (0 Bft) 100,00 %
11.11.2015 19:07 9,0 C 93 % 1024,7 hPa 0,0 l/m 0,0 km/h (0 Bft) SO 142 0 min 0,000 mm 0,0 UV-I 0 W/m 7,9 C 9,0 C 0,0 km/h (0 Bft) 100,00 %
11.11.2015 19:08 8,9 C 93 % 1024,7 hPa 0,0 l/m 0,0 km/h (0 Bft) SO 142 0 min 0,000 mm 0,0 UV-I 0 W/m 7,8 C 8,9 C 0,0 km/h (0 Bft) 100,00 %
11.11.2015 19:09 8,9 C 94 % 1024,7 hPa 0,0 l/m 0,0 km/h (0 Bft) SO 142 0 min 0,000 mm 0,0 UV-I 0 W/m 8,0 C 8,9 C 0,0 km/h (0 Bft) 100,00 %
11.11.2015 19:10 8,9 C 94 % 1024,7 hPa 0,0 l/m 0,0 km/h (0 Bft) SO 142 0 min 0,000 mm 0,0 UV-I 0 W/m 8,0 C 8,9 C 0,0 km/h (0 Bft) 100,00 %
11.11.2015 19:11 9,1 C 95 % 1024,8 hPa 0,0 l/m 0,0 km/h (0 Bft) SO 142 0 min 0,000 mm 0,0 UV-I 0 W/m 8,3 C 9,1 C 0,0 km/h (0 Bft) 100,00 %
11.11.2015 19:12 9,2 C 96 % 1024,8 hPa 0,0 l/m 0,0 km/h (0 Bft) SO 142 0 min 0,000 mm 0,0 UV-I 0 W/m 8,6 C 9,2 C 0,0 km/h (0 Bft) 100,00 %
11.11.2015 19:13 9,2 C 96 % 1024,7 hPa 0,0 l/m 0,0 km/h (0 Bft) SO 142 0 min 0,000 mm 0,0 UV-I 0 W/m 8,6 C 9,2 C 0,0 km/h (0 Bft) 100,00 %
11.11.2015 19:14 9,3 C 95 % 1024,7 hPa 0,0 l/m 0,0 km/h (0 Bft) SO 142 0 min 0,000 mm 0,0 UV-I 0 W/m 8,5 C 9,3 C 0,0 km/h (0 Bft) 100,00 %
11.11.2015 19:15 9,3 C 95 % 1024,8 hPa 0,0 l/m 0,0 km/h (0 Bft) SO 142 0 min 0,000 mm 0,0 UV-I 0 W/m 8,5 C 9,3 C 0,0 km/h (0 Bft) 100,00 %
11.11.2015 19:16 9,4 C 95 % 1024,7 hPa 0,0 l/m 0,0 km/h (0 Bft) SO 142 0 min 0,000 mm 0,0 UV-I 0 W/m 8,6 C 9,4 C 0,0 km/h (0 Bft) 100,00 %
11.11.2015 19:17 9,4 C 95 % 1024,7 hPa 0,0 l/m 1,4 km/h (1 Bft) SO 142 0 min 0,000 mm 0,0 UV-I 0 W/m 8,6 C 9,4 C 1,6 km/h (1 Bft) 95,65 %
11.11.2015 19:18 9,5 C 95 % 1024,6 hPa 0,0 l/m 1,4 km/h (1 Bft) SO 142 0 min 0,000 mm 0,0 UV-I 0 W/m 8,7 C 9,5 C 1,6 km/h (1 Bft) 100,00 %
11.11.2015 19:19 9,5 C 95 % 1024,6 hPa 0,0 l/m 1,1 km/h (1 Bft) SO 142 0 min 0,000 mm 0,0 UV-I 0 W/m 8,7 C 9,5 C 1,6 km/h (1 Bft) 100,00 %
11.11.2015 19:20 9,5 C 95 % 1024,6 hPa 0,0 l/m 0,1 km/h (0 Bft) SO 142 0 min 0,000 mm 0,0 UV-I 0 W/m 8,7 C 9,5 C 1,6 km/h (1 Bft) 100,00 %
11.11.2015 19:21 9,4 C 94 % 1024,6 hPa 0,0 l/m 0,0 km/h (0 Bft) SO 142 0 min 0,000 mm 0,0 UV-I 0 W/m 8,5 C 9,4 C 0,0 km/h (0 Bft) 100,00 %
11.11.2015 19:22 9,4 C 94 % 1024,6 hPa 0,0 l/m 0,1 km/h (0 Bft) SO 142 0 min 0,000 mm 0,0 UV-I 0 W/m 8,5 C 9,4 C 1,6 km/h (1 Bft) 95,83 %
11.11.2015 19:23 9,4 C 95 % 1024,6 hPa 0,0 l/m 0,7 km/h (0 Bft) SO 142 0 min 0,000 mm 0,0 UV-I 0 W/m 8,6 C 9,4 C 1,6 km/h (1 Bft) 100,00 %
11.11.2015 19:24 9,4 C 94 % 1024,6 hPa 0,0 l/m 1,1 km/h (1 Bft) SO 142 0 min 0,000 mm 0,0 UV-I 0 W/m 8,5 C 9,4 C 1,6 km/h (1 Bft) 99,33 %
11.11.2015 19:25 9,4 C 94 % 1024,6 hPa 0,0 l/m 1,4 km/h (1 Bft) SO 142 0 min 0,000 mm 0,0 UV-I 0 W/m 8,5 C 9,4 C 1,6 km/h (1 Bft) 100,00 %
11.11.2015 19:26 9,4 C 94 % 1024,6 hPa 0,0 l/m 1,1 km/h (1 Bft) SO 142 0 min 0,000 mm 0,0 UV-I 0 W/m 8,5 C 9,4 C 1,6 km/h (1 Bft) 100,00 %
11.11.2015 19:27 9,4 C 94 % 1024,6 hPa 0,0 l/m 1,2 km/h (1 Bft) SO 142 0 min 0,000 mm 0,0 UV-I 0 W/m 8,5 C 9,4 C 1,6 km/h (1 Bft) 95,83 %
11.11.2015 19:28 9,4 C 94 % 1024,6 hPa 0,0 l/m 0,6 km/h (0 Bft) SO 142 0 min 0,000 mm 0,0 UV-I 0 W/m 8,5 C 9,4 C 1,6 km/h (1 Bft) 96,15 %
11.11.2015 19:29 9,3 C 94 % 1024,6 hPa 0,0 l/m 0,4 km/h (0 Bft) SO 142 0 min 0,000 mm 0,0 UV-I 0 W/m 8,4 C 9,3 C 1,6 km/h (1 Bft) 100,00 %
11.11.2015 19:30 9,3 C 94 % 1024,6 hPa 0,0 l/m 0,7 km/h (0 Bft) SO 142 0 min 0,000 mm 0,0 UV-I 0 W/m 8,4 C 9,3 C 1,6 km/h (1 Bft) 100,00 %
11.11.2015 19:31 9,3 C 94 % 1024,7 hPa 0,0 l/m 0,2 km/h (0 Bft) SO 142 0 min 0,000 mm 0,0 UV-I 0 W/m 8,4 C 9,3 C 1,6 km/h (1 Bft) 95,83 %
11.11.2015 19:32 9,3 C 94 % 1024,6 hPa 0,0 l/m 1,0 km/h (0 Bft) SO 142 0 min 0,000 mm 0,0 UV-I 0 W/m 8,4 C 9,3 C 1,6 km/h (1 Bft) 100,00 %
11.11.2015 19:33 9,3 C 95 % 1024,5 hPa 0,0 l/m 0,9 km/h (0 Bft) SO 142 0 min 0,000 mm 0,0 UV-I 0 W/m 8,5 C 9,3 C 1,6 km/h (1 Bft) 100,00 %
11.11.2015 19:34 9,3 C 95 % 1024,5 hPa 0,0 l/m 1,0 km/h (0 Bft) SO 142 0 min 0,000 mm 0,0 UV-I 0 W/m 8,5 C 9,3 C 1,6 km/h (1 Bft) 92,31 %
11.11.2015 19:35 9,3 C 95 % 1024,5 hPa 0,0 l/m 0,1 km/h (0 Bft) SO 142 0 min 0,000 mm 0,0 UV-I 0 W/m 8,5 C 9,3 C 1,6 km/h (1 Bft) 100,00 %
11.11.2015 19:36 9,4 C 95 % 1024,5 hPa 0,0 l/m 0,0 km/h (0 Bft) SO 142 0 min 0,000 mm 0,0 UV-I 0 W/m 8,6 C 9,4 C 0,0 km/h (0 Bft) 95,65 %
11.11.2015 19:37 9,4 C 95 % 1024,5 hPa 0,0 l/m 0,0 km/h (0 Bft) SO 142 0 min 0,000 mm 0,0 UV-I 0 W/m 8,6 C 9,4 C 0,0 km/h (0 Bft) 100,00 %
11.11.2015 19:38 9,5 C 95 % 1024,5 hPa 0,0 l/m 0,0 km/h (0 Bft) SO 142 0 min 0,000 mm 0,0 UV-I 0 W/m 8,7 C 9,5 C 0,0 km/h (0 Bft) 99,31 %
11.11.2015 19:39 9,5 C 95 % 1024,4 hPa 0,0 l/m 0,0 km/h (0 Bft) SO 142 0 min 0,000 mm 0,0 UV-I 0 W/m 8,7 C 9,5 C 0,0 km/h (0 Bft) 100,00 %
11.11.2015 19:40 9,5 C 94 % 1024,5 hPa 0,0 l/m 0,0 km/h (0 Bft) SO 142 0 min 0,000 mm 0,0 UV-I 0 W/m 8,6 C 9,5 C 0,0 km/h (0 Bft) 100,00 %
11.11.2015 19:41 9,4 C 94 % 1024,4 hPa 0,0 l/m 0,0 km/h (0 Bft) SO 142 0 min 0,000 mm 0,0 UV-I 0 W/m 8,5 C 9,4 C 0,0 km/h (0 Bft) 96,15 %
11.11.2015 19:42 9,4 C 94 % 1024,5 hPa 0,0 l/m 0,0 km/h (0 Bft) SO 142 0 min 0,000 mm 0,0 UV-I 0 W/m 8,5 C 9,4 C 0,0 km/h (0 Bft) 100,00 %
11.11.2015 19:43 9,3 C 94 % 1024,5 hPa 0,0 l/m 0,5 km/h (0 Bft) SO 142 0 min 0,000 mm 0,0 UV-I 0 W/m 8,4 C 9,3 C 1,6 km/h (1 Bft) 100,00 %
11.11.2015 19:44 9,3 C 94 % 1024,5 hPa 0,0 l/m 0,6 km/h (0 Bft) SO 142 0 min 0,000 mm 0,0 UV-I 0 W/m 8,4 C 9,3 C 1,6 km/h (1 Bft) 100,00 %
11.11.2015 19:45 9,3 C 94 % 1024,5 hPa 0,0 l/m 0,0 km/h (0 Bft) SO 142 0 min 0,000 mm 0,0 UV-I 0 W/m 8,4 C 9,3 C 0,0 km/h (0 Bft) 96,30 %
11.11.2015 19:46 9,2 C 93 % 1024,6 hPa 0,0 l/m 0,0 km/h (0 Bft) SO 142 0 min 0,000 mm 0,0 UV-I 0 W/m 8,1 C 9,2 C 0,0 km/h (0 Bft) 100,00 %
11.11.2015 19:47 9,2 C 94 % 1024,6 hPa 0,0 l/m 0,1 km/h (0 Bft) SO 142 0 min 0,000 mm 0,0 UV-I 0 W/m 8,3 C 9,2 C 1,6 km/h (1 Bft) 100,00 %
11.11.2015 19:48 9,1 C 94 % 1024,6 hPa 0,0 l/m 0,6 km/h (0 Bft) SO 142 0 min 0,000 mm 0,0 UV-I 0 W/m 8,2 C 9,1 C 1,6 km/h (1 Bft) 100,00 %
11.11.2015 19:49 9,0 C 94 % 1024,7 hPa 0,0 l/m 1,0 km/h (0 Bft) SO 142 0 min 0,000 mm 0,0 UV-I 0 W/m 8,1 C 9,0 C 1,6 km/h (1 Bft) 100,00 %
11.11.2015 19:50 8,9 C 94 % 1024,7 hPa 0,0 l/m 0,6 km/h (0 Bft) SO 142 0 min 0,000 mm 0,0 UV-I 0 W/m 8,0 C 8,9 C 1,6 km/h (1 Bft) 100,00 %
11.11.2015 19:51 8,9 C 94 % 1024,7 hPa 0,0 l/m 0,5 km/h (0 Bft) SO 142 0 min 0,000 mm 0,0 UV-I 0 W/m 8,0 C 8,9 C 1,6 km/h (1 Bft) 100,00 %
11.11.2015 19:52 8,8 C 95 % 1024,7 hPa 0,0 l/m 0,1 km/h (0 Bft) SO 142 0 min 0,000 mm 0,0 UV-I 0 W/m 8,0 C 8,8 C 1,6 km/h (1 Bft) 100,00 %
11.11.2015 19:53 8,8 C 94 % 1024,7 hPa 0,0 l/m 0,0 km/h (0 Bft) SO 142 0 min 0,000 mm 0,0 UV-I 0 W/m 7,9 C 8,8 C 0,0 km/h (0 Bft) 100,00 %
11.11.2015 19:54 8,7 C 95 % 1024,7 hPa 0,0 l/m 0,0 km/h (0 Bft) SO 142 0 min 0,000 mm 0,0 UV-I 0 W/m 7,9 C 8,7 C 0,0 km/h (0 Bft) 100,00 %
11.11.2015 19:55 8,7 C 95 % 1024,7 hPa 0,0 l/m 0,0 km/h (0 Bft) SO 142 0 min 0,000 mm 0,0 UV-I 0 W/m 7,9 C 8,7 C 0,0 km/h (0 Bft) 95,65 %
11.11.2015 19:56 8,7 C 95 % 1024,7 hPa 0,0 l/m 0,0 km/h (0 Bft) SO 142 0 min 0,000 mm 0,0 UV-I 0 W/m 7,9 C 8,7 C 0,0 km/h (0 Bft) 100,00 %
11.11.2015 19:57 8,7 C 95 % 1024,7 hPa 0,0 l/m 0,0 km/h (0 Bft) SO 142 0 min 0,000 mm 0,0 UV-I 0 W/m 7,9 C 8,7 C 0,0 km/h (0 Bft) 95,65 %
11.11.2015 19:58 8,7 C 96 % 1024,7 hPa 0,0 l/m 0,0 km/h (0 Bft) SO 142 0 min 0,000 mm 0,0 UV-I 0 W/m 8,1 C 8,7 C 0,0 km/h (0 Bft) 100,00 %
11.11.2015 19:59 8,7 C 95 % 1024,7 hPa 0,0 l/m 0,0 km/h (0 Bft) SO 142 0 min 0,000 mm 0,0 UV-I 0 W/m 7,9 C 8,7 C 0,0 km/h (0 Bft) 100,00 %
11.11.2015 20:00 8,7 C 95 % 1024,7 hPa 0,0 l/m 0,0 km/h (0 Bft) SO 142 0 min 0,000 mm 0,0 UV-I 0 W/m 7,9 C 8,7 C 0,0 km/h (0 Bft) 100,00 %
11.11.2015 20:01 8,8 C 95 % 1024,8 hPa 0,0 l/m 0,0 km/h (0 Bft) SO 142 0 min 0,000 mm 0,0 UV-I 0 W/m 8,0 C 8,8 C 0,0 km/h (0 Bft) 100,00 %
11.11.2015 20:02 8,8 C 95 % 1024,8 hPa 0,0 l/m 0,0 km/h (0 Bft) SO 142 0 min 0,000 mm 0,0 UV-I 0 W/m 8,0 C 8,8 C 0,0 km/h (0 Bft) 95,83 %
11.11.2015 20:03 8,8 C 96 % 1024,8 hPa 0,0 l/m 0,0 km/h (0 Bft) SO 142 0 min 0,000 mm 0,0 UV-I 0 W/m 8,2 C 8,8 C 0,0 km/h (0 Bft) 100,00 %
11.11.2015 20:04 8,8 C 96 % 1024,8 hPa 0,0 l/m 0,0 km/h (0 Bft) SO 142 0 min 0,000 mm 0,0 UV-I 0 W/m 8,2 C 8,8 C 0,0 km/h (0 Bft) 100,00 %
11.11.2015 20:05 8,8 C 96 % 1024,8 hPa 0,0 l/m 0,0 km/h (0 Bft) SO 142 0 min 0,000 mm 0,0 UV-I 0 W/m 8,2 C 8,8 C 0,0 km/h (0 Bft) 100,00 %
11.11.2015 20:06 8,8 C 95 % 1024,8 hPa 0,0 l/m 0,0 km/h (0 Bft) SO 142 0 min 0,000 mm 0,0 UV-I 0 W/m 8,0 C 8,8 C 0,0 km/h (0 Bft) 100,00 %
11.11.2015 20:07 8,8 C 95 % 1024,8 hPa 0,0 l/m 0,0 km/h (0 Bft) SO 142 0 min 0,000 mm 0,0 UV-I 0 W/m 8,0 C 8,8 C 0,0 km/h (0 Bft) 100,00 %
11.11.2015 20:08 8,8 C 95 % 1024,8 hPa 0,0 l/m 0,0 km/h (0 Bft) SO 142 0 min 0,000 mm 0,0 UV-I 0 W/m 8,0 C 8,8 C 0,0 km/h (0 Bft) 100,00 %
11.11.2015 20:09 8,8 C 95 % 1024,8 hPa 0,0 l/m 0,0 km/h (0 Bft) SO 142 0 min 0,000 mm 0,0 UV-I 0 W/m 8,0 C 8,8 C 0,0 km/h (0 Bft) 95,83 %
11.11.2015 20:10 8,8 C 95 % 1024,8 hPa 0,0 l/m 0,0 km/h (0 Bft) SO 142 0 min 0,000 mm 0,0 UV-I 0 W/m 8,0 C 8,8 C 0,0 km/h (0 Bft) 95,65 %
11.11.2015 20:11 8,7 C 95 % 1024,9 hPa 0,0 l/m 0,0 km/h (0 Bft) SO 142 0 min 0,000 mm 0,0 UV-I 0 W/m 7,9 C 8,7 C 0,0 km/h (0 Bft) 100,00 %
11.11.2015 20:12 8,7 C 95 % 1024,9 hPa 0,0 l/m 0,0 km/h (0 Bft) SO 142 0 min 0,000 mm 0,0 UV-I 0 W/m 7,9 C 8,7 C 0,0 km/h (0 Bft) 100,00 %
11.11.2015 20:13 8,6 C 95 % 1024,9 hPa 0,0 l/m 0,0 km/h (0 Bft) SO 142 0 min 0,000 mm 0,0 UV-I 0 W/m 7,8 C 8,6 C 0,0 km/h (0 Bft) 100,00 %
11.11.2015 20:14 8,6 C 95 % 1024,9 hPa 0,0 l/m 0,0 km/h (0 Bft) SO 142 0 min 0,000 mm 0,0 UV-I 0 W/m 7,8 C 8,6 C 0,0 km/h (0 Bft) 100,00 %
11.11.2015 20:15 8,6 C 95 % 1024,9 hPa 0,0 l/m 0,0 km/h (0 Bft) SO 142 0 min 0,000 mm 0,0 UV-I 0 W/m 7,8 C 8,6 C 0,0 km/h (0 Bft) 100,00 %
11.11.2015 20:16 8,6 C 95 % 1024,9 hPa 0,0 l/m 0,0 km/h (0 Bft) SO 142 0 min 0,000 mm 0,0 UV-I 0 W/m 7,8 C 8,6 C 0,0 km/h (0 Bft) 100,00 %
11.11.2015 20:17 8,6 C 95 % 1024,9 hPa 0,0 l/m 0,0 km/h (0 Bft) SO 142 0 min 0,000 mm 0,0 UV-I 0 W/m 7,8 C 8,6 C 0,0 km/h (0 Bft) 100,00 %
11.11.2015 20:18 8,6 C 95 % 1024,9 hPa 0,0 l/m 0,2 km/h (0 Bft) SO 142 0 min 0,000 mm 0,0 UV-I 0 W/m 7,8 C 8,6 C 1,6 km/h (1 Bft) 100,00 %
11.11.2015 20:19 8,5 C 95 % 1024,9 hPa 0,0 l/m 0,1 km/h (0 Bft) SO 142 0 min 0,000 mm 0,0 UV-I 0 W/m 7,7 C 8,5 C 1,6 km/h (1 Bft) 100,00 %
11.11.2015 20:20 8,4 C 95 % 1024,9 hPa 0,0 l/m 0,0 km/h (0 Bft) SO 142 0 min 0,000 mm 0,0 UV-I 0 W/m 7,6 C 8,4 C 0,0 km/h (0 Bft) 100,00 %
11.11.2015 20:21 8,3 C 94 % 1024,9 hPa 0,0 l/m 0,0 km/h (0 Bft) SO 142 0 min 0,000 mm 0,0 UV-I 0 W/m 7,4 C 8,3 C 0,0 km/h (0 Bft) 100,00 %
11.11.2015 20:22 8,3 C 95 % 1024,9 hPa 0,0 l/m 0,0 km/h (0 Bft) SO 142 0 min 0,000 mm 0,0 UV-I 0 W/m 7,5 C 8,3 C 0,0 km/h (0 Bft) 100,00 %
11.11.2015 20:23 8,3 C 95 % 1024,9 hPa 0,0 l/m 0,1 km/h (0 Bft) SO 142 0 min 0,000 mm 0,0 UV-I 0 W/m 7,5 C 8,3 C 1,6 km/h (1 Bft) 100,00 %
11.11.2015 20:24 8,3 C 95 % 1024,9 hPa 0,0 l/m 0,2 km/h (0 Bft) SO 142 0 min 0,000 mm 0,0 UV-I 0 W/m 7,5 C 8,3 C 1,6 km/h (1 Bft) 100,00 %
11.11.2015 20:25 8,3 C 95 % 1024,9 hPa 0,0 l/m 0,0 km/h (0 Bft) SO 142 0 min 0,000 mm 0,0 UV-I 0 W/m 7,5 C 8,3 C 0,0 km/h (0 Bft) 96,15 %
11.11.2015 20:26 8,2 C 95 % 1024,9 hPa 0,0 l/m 0,5 km/h (0 Bft) SO 142 0 min 0,000 mm 0,0 UV-I 0 W/m 7,4 C 8,2 C 1,6 km/h (1 Bft) 100,00 %
11.11.2015 20:27 8,2 C 96 % 1024,9 hPa 0,0 l/m 0,9 km/h (0 Bft) SO 142 0 min 0,000 mm 0,0 UV-I 0 W/m 7,6 C 8,2 C 1,6 km/h (1 Bft) 95,65 %
11.11.2015 20:28 8,3 C 96 % 1024,9 hPa 0,0 l/m 0,5 km/h (0 Bft) SO 142 0 min 0,000 mm 0,0 UV-I 0 W/m 7,7 C 8,3 C 1,6 km/h (1 Bft) 100,00 %
11.11.2015 20:29 8,2 C 96 % 1024,9 hPa 0,0 l/m 0,0 km/h (0 Bft) SO 142 0 min 0,000 mm 0,0 UV-I 0 W/m 7,6 C 8,2 C 0,0 km/h (0 Bft) 100,00 %
11.11.2015 20:30 8,2 C 96 % 1024,9 hPa 0,0 l/m 0,0 km/h (0 Bft) SO 142 0 min 0,000 mm 0,0 UV-I 0 W/m 7,6 C 8,2 C 0,0 km/h (0 Bft) 100,00 %
11.11.2015 20:31 8,2 C 96 % 1024,9 hPa 0,0 l/m 0,2 km/h (0 Bft) SO 142 0 min 0,000 mm 0,0 UV-I 0 W/m 7,6 C 8,2 C 1,6 km/h (1 Bft) 100,00 %
11.11.2015 20:32 8,3 C 96 % 1024,9 hPa 0,0 l/m 0,6 km/h (0 Bft) SO 142 0 min 0,000 mm 0,0 UV-I 0 W/m 7,7 C 8,3 C 1,6 km/h (1 Bft) 100,00 %
11.11.2015 20:33 8,3 C 96 % 1024,9 hPa 0,0 l/m 0,8 km/h (0 Bft) SO 142 0 min 0,000 mm 0,0 UV-I 0 W/m 7,7 C 8,3 C 1,6 km/h (1 Bft) 100,00 %
11.11.2015 20:34 8,3 C 96 % 1024,9 hPa 0,0 l/m 0,5 km/h (0 Bft) SO 142 0 min 0,000 mm 0,0 UV-I 0 W/m 7,7 C 8,3 C 1,6 km/h (1 Bft) 100,00 %
11.11.2015 20:35 8,3 C 96 % 1024,9 hPa 0,0 l/m 0,5 km/h (0 Bft) SO 142 0 min 0,000 mm 0,0 UV-I 0 W/m 7,7 C 8,3 C 1,6 km/h (1 Bft) 96,15 %
11.11.2015 20:36 8,3 C 96 % 1025,0 hPa 0,0 l/m 0,1 km/h (0 Bft) SO 142 0 min 0,000 mm 0,0 UV-I 0 W/m 7,7 C 8,3 C 1,6 km/h (1 Bft) 100,00 %
11.11.2015 20:37 8,3 C 96 % 1025,0 hPa 0,0 l/m 0,0 km/h (0 Bft) SO 142 0 min 0,000 mm 0,0 UV-I 0 W/m 7,7 C 8,3 C 0,0 km/h (0 Bft) 100,00 %
11.11.2015 20:38 8,4 C 96 % 1025,0 hPa 0,0 l/m 0,2 km/h (0 Bft) SO 142 0 min 0,000 mm 0,0 UV-I 0 W/m 7,8 C 8,4 C 1,6 km/h (1 Bft) 100,00 %
11.11.2015 20:39 8,4 C 96 % 1025,1 hPa 0,0 l/m 0,0 km/h (0 Bft) SO 142 0 min 0,000 mm 0,0 UV-I 0 W/m 7,8 C 8,4 C 0,0 km/h (0 Bft) 100,00 %
11.11.2015 20:40 8,5 C 96 % 1025,0 hPa 0,0 l/m 0,0 km/h (0 Bft) SO 142 0 min 0,000 mm 0,0 UV-I 0 W/m 7,9 C 8,5 C 0,0 km/h (0 Bft) 100,00 %
11.11.2015 20:41 8,5 C 96 % 1025,1 hPa 0,0 l/m 0,0 km/h (0 Bft) SO 142 0 min 0,000 mm 0,0 UV-I 0 W/m 7,9 C 8,5 C 0,0 km/h (0 Bft) 95,65 %
11.11.2015 20:42 8,5 C 96 % 1025,0 hPa 0,0 l/m 0,1 km/h (0 Bft) SO 142 0 min 0,000 mm 0,0 UV-I 0 W/m 7,9 C 8,5 C 1,6 km/h (1 Bft) 100,00 %
11.11.2015 20:43 8,5 C 96 % 1025,1 hPa 0,0 l/m 0,0 km/h (0 Bft) SO 142 0 min 0,000 mm 0,0 UV-I 0 W/m 7,9 C 8,5 C 0,0 km/h (0 Bft) 100,00 %
11.11.2015 20:44 8,5 C 96 % 1025,1 hPa 0,0 l/m 0,7 km/h (0 Bft) SO 142 0 min 0,000 mm 0,0 UV-I 0 W/m 7,9 C 8,5 C 1,6 km/h (1 Bft) 100,00 %
11.11.2015 20:45 8,6 C 96 % 1025,0 hPa 0,0 l/m 1,6 km/h (1 Bft) SO 142 0 min 0,000 mm 0,0 UV-I 0 W/m 8,0 C 8,6 C 3,2 km/h (1 Bft) 100,00 %
11.11.2015 20:46 8,6 C 96 % 1025,0 hPa 0,0 l/m 2,1 km/h (1 Bft) S-SO 152 0 min 0,000 mm 0,0 UV-I 0 W/m 8,0 C 8,6 C 3,2 km/h (1 Bft) 100,00 %
11.11.2015 20:47 8,6 C 96 % 1025,0 hPa 0,0 l/m 0,3 km/h (0 Bft) S-SO 152 0 min 0,000 mm 0,0 UV-I 0 W/m 8,0 C 8,6 C 1,6 km/h (1 Bft) 100,00 %
11.11.2015 20:48 8,5 C 96 % 1024,9 hPa 0,0 l/m 0,5 km/h (0 Bft) S-SO 152 0 min 0,000 mm 0,0 UV-I 0 W/m 7,9 C 8,5 C 1,6 km/h (1 Bft) 100,00 %
11.11.2015 20:49 8,4 C 96 % 1025,0 hPa 0,0 l/m 1,4 km/h (1 Bft) S-SO 152 0 min 0,000 mm 0,0 UV-I 0 W/m 7,8 C 8,4 C 3,2 km/h (1 Bft) 100,00 %
11.11.2015 20:50 8,4 C 96 % 1024,9 hPa 0,0 l/m 0,6 km/h (0 Bft) S-SO 151 0 min 0,000 mm 0,0 UV-I 0 W/m 7,8 C 8,4 C 1,6 km/h (1 Bft) 100,00 %
11.11.2015 20:51 8,5 C 96 % 1024,9 hPa 0,0 l/m 0,0 km/h (0 Bft) S-SO 152 0 min 0,000 mm 0,0 UV-I 0 W/m 7,9 C 8,5 C 0,0 km/h (0 Bft) 95,83 %
11.11.2015 20:52 8,5 C 96 % 1024,9 hPa 0,0 l/m 0,0 km/h (0 Bft) S-SO 151 0 min 0,000 mm 0,0 UV-I 0 W/m 7,9 C 8,5 C 0,0 km/h (0 Bft) 100,00 %
11.11.2015 20:53 8,6 C 96 % 1024,9 hPa 0,0 l/m 1,3 km/h (1 Bft) S-SO 152 0 min 0,000 mm 0,0 UV-I 0 W/m 8,0 C 8,6 C 1,6 km/h (1 Bft) 100,00 %
11.11.2015 20:54 8,6 C 96 % 1025,0 hPa 0,0 l/m 1,5 km/h (1 Bft) S-SO 152 0 min 0,000 mm 0,0 UV-I 0 W/m 8,0 C 8,6 C 1,6 km/h (1 Bft) 100,00 %
11.11.2015 20:55 8,7 C 96 % 1024,9 hPa 0,0 l/m 0,9 km/h (0 Bft) S-SO 152 0 min 0,000 mm 0,0 UV-I 0 W/m 8,1 C 8,7 C 1,6 km/h (1 Bft) 100,00 %
11.11.2015 20:56 8,7 C 96 % 1025,0 hPa 0,0 l/m 0,1 km/h (0 Bft) S-SO 152 0 min 0,000 mm 0,0 UV-I 0 W/m 8,1 C 8,7 C 1,6 km/h (1 Bft) 100,00 %
11.11.2015 20:57 8,7 C 96 % 1024,9 hPa 0,0 l/m 0,2 km/h (0 Bft) S-SO 152 0 min 0,000 mm 0,0 UV-I 0 W/m 8,1 C 8,7 C 1,6 km/h (1 Bft) 100,00 %
11.11.2015 20:58 8,6 C 96 % 1024,9 hPa 0,0 l/m 0,9 km/h (0 Bft) S-SO 152 0 min 0,000 mm 0,0 UV-I 0 W/m 8,0 C 8,6 C 1,6 km/h (1 Bft) 99,32 %
11.11.2015 20:59 8,6 C 96 % 1025,0 hPa 0,0 l/m 0,6 km/h (0 Bft) S-SO 152 0 min 0,000 mm 0,0 UV-I 0 W/m 8,0 C 8,6 C 1,6 km/h (1 Bft) 100,00 %
11.11.2015 21:00 8,5 C 95 % 1025,0 hPa 0,0 l/m 0,6 km/h (0 Bft) S-SO 152 0 min 0,000 mm 0,0 UV-I 0 W/m 7,7 C 8,5 C 1,6 km/h (1 Bft) 100,00 %
11.11.2015 21:01 8,4 C 95 % 1025,0 hPa 0,0 l/m 0,2 km/h (0 Bft) S-SO 152 0 min 0,000 mm 0,0 UV-I 0 W/m 7,6 C 8,4 C 1,6 km/h (1 Bft) 100,00 %
11.11.2015 21:02 8,4 C 95 % 1025,0 hPa 0,0 l/m 0,2 km/h (0 Bft) S-SO 152 0 min 0,000 mm 0,0 UV-I 0 W/m 7,6 C 8,4 C 1,6 km/h (1 Bft) 91,67 %
11.11.2015 21:03 8,4 C 95 % 1025,0 hPa 0,0 l/m 0,4 km/h (0 Bft) S-SO 152 0 min 0,000 mm 0,0 UV-I 0 W/m 7,6 C 8,4 C 1,6 km/h (1 Bft) 100,00 %
11.11.2015 21:04 8,3 C 95 % 1025,0 hPa 0,0 l/m 0,2 km/h (0 Bft) S-SO 152 0 min 0,000 mm 0,0 UV-I 0 W/m 7,5 C 8,3 C 1,6 km/h (1 Bft) 100,00 %
11.11.2015 21:05 8,2 C 95 % 1025,0 hPa 0,0 l/m 0,0 km/h (0 Bft) S-SO 152 0 min 0,000 mm 0,0 UV-I 0 W/m 7,4 C 8,2 C 0,0 km/h (0 Bft) 100,00 %
11.11.2015 21:06 8,2 C 95 % 1025,0 hPa 0,0 l/m 0,2 km/h (0 Bft) S-SO 152 0 min 0,000 mm 0,0 UV-I 0 W/m 7,4 C 8,2 C 1,6 km/h (1 Bft) 100,00 %
11.11.2015 21:07 8,1 C 95 % 1025,0 hPa 0,0 l/m 0,2 km/h (0 Bft) S-SO 152 0 min 0,000 mm 0,0 UV-I 0 W/m 7,3 C 8,1 C 1,6 km/h (1 Bft) 100,00 %
11.11.2015 21:08 8,1 C 95 % 1025,0 hPa 0,0 l/m 0,5 km/h (0 Bft) S-SO 152 0 min 0,000 mm 0,0 UV-I 0 W/m 7,3 C 8,1 C 1,6 km/h (1 Bft) 100,00 %
11.11.2015 21:09 7,9 C 95 % 1025,0 hPa 0,0 l/m 0,2 km/h (0 Bft) S-SO 151 0 min 0,000 mm 0,0 UV-I 0 W/m 7,1 C 7,9 C 1,6 km/h (1 Bft) 100,00 %
11.11.2015 21:10 7,8 C 95 % 1025,0 hPa 0,0 l/m 0,5 km/h (0 Bft) S-SO 152 0 min 0,000 mm 0,0 UV-I 0 W/m 7,0 C 7,8 C 1,6 km/h (1 Bft) 100,00 %
11.11.2015 21:11 7,8 C 95 % 1025,0 hPa 0,0 l/m 0,2 km/h (0 Bft) S-SO 152 0 min 0,000 mm 0,0 UV-I 0 W/m 7,0 C 7,8 C 1,6 km/h (1 Bft) 100,00 %
11.11.2015 21:12 7,8 C 96 % 1025,0 hPa 0,0 l/m 0,7 km/h (0 Bft) S-SO 152 0 min 0,000 mm 0,0 UV-I 0 W/m 7,2 C 7,8 C 1,6 km/h (1 Bft) 100,00 %
11.11.2015 21:13 7,9 C 96 % 1024,9 hPa 0,0 l/m 0,3 km/h (0 Bft) S-SO 152 0 min 0,000 mm 0,0 UV-I 0 W/m 7,3 C 7,9 C 1,6 km/h (1 Bft) 95,65 %
11.11.2015 21:14 7,9 C 96 % 1024,9 hPa 0,0 l/m 0,1 km/h (0 Bft) S-SO 152 0 min 0,000 mm 0,0 UV-I 0 W/m 7,3 C 7,9 C 1,6 km/h (1 Bft) 100,00 %
11.11.2015 21:15 7,9 C 96 % 1024,9 hPa 0,0 l/m 0,0 km/h (0 Bft) S-SO 152 0 min 0,000 mm 0,0 UV-I 0 W/m 7,3 C 7,9 C 0,0 km/h (0 Bft) 100,00 %
11.11.2015 21:16 8,0 C 96 % 1025,0 hPa 0,0 l/m 0,0 km/h (0 Bft) S-SO 152 0 min 0,000 mm 0,0 UV-I 0 W/m 7,4 C 8,0 C 0,0 km/h (0 Bft) 100,00 %
11.11.2015 21:17 8,0 C 96 % 1025,0 hPa 0,0 l/m 0,0 km/h (0 Bft) S-SO 152 0 min 0,000 mm 0,0 UV-I 0 W/m 7,4 C 8,0 C 0,0 km/h (0 Bft) 100,00 %
11.11.2015 21:18 8,1 C 96 % 1024,9 hPa 0,0 l/m 0,5 km/h (0 Bft) S-SO 152 0 min 0,000 mm 0,0 UV-I 0 W/m 7,5 C 8,1 C 1,6 km/h (1 Bft) 95,83 %
11.11.2015 21:19 8,1 C 96 % 1024,9 hPa 0,0 l/m 0,7 km/h (0 Bft) S-SO 151 0 min 0,000 mm 0,0 UV-I 0 W/m 7,5 C 8,1 C 1,6 km/h (1 Bft) 100,00 %
11.11.2015 21:20 8,1 C 96 % 1024,9 hPa 0,0 l/m 0,5 km/h (0 Bft) S-SO 151 0 min 0,000 mm 0,0 UV-I 0 W/m 7,5 C 8,1 C 1,6 km/h (1 Bft) 100,00 %
11.11.2015 21:21 8,2 C 96 % 1025,0 hPa 0,0 l/m 1,1 km/h (1 Bft) S-SO 151 0 min 0,000 mm 0,0 UV-I 0 W/m 7,6 C 8,2 C 1,6 km/h (1 Bft) 100,00 %
11.11.2015 21:22 8,2 C 96 % 1025,0 hPa 0,0 l/m 0,5 km/h (0 Bft) S-SO 152 0 min 0,000 mm 0,0 UV-I 0 W/m 7,6 C 8,2 C 1,6 km/h (1 Bft) 100,00 %
11.11.2015 21:23 8,3 C 96 % 1025,0 hPa 0,0 l/m 0,2 km/h (0 Bft) S-SO 152 0 min 0,000 mm 0,0 UV-I 0 W/m 7,7 C 8,3 C 1,6 km/h (1 Bft) 100,00 %
11.11.2015 21:24 8,3 C 96 % 1025,0 hPa 0,0 l/m 0,0 km/h (0 Bft) S-SO 152 0 min 0,000 mm 0,0 UV-I 0 W/m 7,7 C 8,3 C 0,0 km/h (0 Bft) 100,00 %
11.11.2015 21:25 8,3 C 97 % 1025,0 hPa 0,0 l/m 0,0 km/h (0 Bft) S-SO 151 0 min 0,000 mm 0,0 UV-I 0 W/m 7,9 C 8,3 C 0,0 km/h (0 Bft) 100,00 %
11.11.2015 21:26 8,4 C 96 % 1025,0 hPa 0,0 l/m 0,0 km/h (0 Bft) S-SO 151 0 min 0,000 mm 0,0 UV-I 0 W/m 7,8 C 8,4 C 0,0 km/h (0 Bft) 100,00 %
11.11.2015 21:27 8,3 C 96 % 1025,1 hPa 0,0 l/m 0,0 km/h (0 Bft) S-SO 152 0 min 0,000 mm 0,0 UV-I 0 W/m 7,7 C 8,3 C 0,0 km/h (0 Bft) 100,00 %
11.11.2015 21:28 8,3 C 96 % 1025,1 hPa 0,0 l/m 0,0 km/h (0 Bft) S-SO 151 0 min 0,000 mm 0,0 UV-I 0 W/m 7,7 C 8,3 C 0,0 km/h (0 Bft) 100,00 %
11.11.2015 21:29 8,3 C 96 % 1025,1 hPa 0,0 l/m 0,0 km/h (0 Bft) S-SO 151 0 min 0,000 mm 0,0 UV-I 0 W/m 7,7 C 8,3 C 0,0 km/h (0 Bft) 100,00 %
11.11.2015 21:30 8,3 C 96 % 1025,1 hPa 0,0 l/m 0,0 km/h (0 Bft) S-SO 151 0 min 0,000 mm 0,0 UV-I 0 W/m 7,7 C 8,3 C 0,0 km/h (0 Bft) 100,00 %
11.11.2015 21:31 8,3 C 96 % 1025,1 hPa 0,0 l/m 0,0 km/h (0 Bft) S-SO 152 0 min 0,000 mm 0,0 UV-I 0 W/m 7,7 C 8,3 C 0,0 km/h (0 Bft) 100,00 %
11.11.2015 21:32 8,3 C 96 % 1025,0 hPa 0,0 l/m 0,0 km/h (0 Bft) S-SO 152 0 min 0,000 mm 0,0 UV-I 0 W/m 7,7 C 8,3 C 0,0 km/h (0 Bft) 100,00 %
11.11.2015 21:33 8,3 C 96 % 1025,0 hPa 0,0 l/m 0,0 km/h (0 Bft) S-SO 152 0 min 0,000 mm 0,0 UV-I 0 W/m 7,7 C 8,3 C 0,0 km/h (0 Bft) 100,00 %
11.11.2015 21:34 8,3 C 96 % 1025,0 hPa 0,0 l/m 0,0 km/h (0 Bft) S-SO 152 0 min 0,000 mm 0,0 UV-I 0 W/m 7,7 C 8,3 C 0,0 km/h (0 Bft) 100,00 %
11.11.2015 21:35 8,2 C 96 % 1025,0 hPa 0,0 l/m 0,0 km/h (0 Bft) S-SO 152 0 min 0,000 mm 0,0 UV-I 0 W/m 7,6 C 8,2 C 0,0 km/h (0 Bft) 100,00 %
11.11.2015 21:36 8,2 C 96 % 1025,1 hPa 0,0 l/m 0,0 km/h (0 Bft) S-SO 152 0 min 0,000 mm 0,0 UV-I 0 W/m 7,6 C 8,2 C 0,0 km/h (0 Bft) 100,00 %
11.11.2015 21:37 8,2 C 96 % 1025,1 hPa 0,0 l/m 0,2 km/h (0 Bft) S-SO 151 0 min 0,000 mm 0,0 UV-I 0 W/m 7,6 C 8,2 C 1,6 km/h (1 Bft) 100,00 %
11.11.2015 21:38 8,2 C 96 % 1025,1 hPa 0,0 l/m 0,4 km/h (0 Bft) S-SO 151 0 min 0,000 mm 0,0 UV-I 0 W/m 7,6 C 8,2 C 1,6 km/h (1 Bft) 96,15 %
11.11.2015 21:39 8,1 C 96 % 1025,0 hPa 0,0 l/m 0,3 km/h (0 Bft) S-SO 151 0 min 0,000 mm 0,0 UV-I 0 W/m 7,5 C 8,1 C 1,6 km/h (1 Bft) 100,00 %
11.11.2015 21:40 8,1 C 96 % 1025,1 hPa 0,0 l/m 0,0 km/h (0 Bft) S-SO 152 0 min 0,000 mm 0,0 UV-I 0 W/m 7,5 C 8,1 C 0,0 km/h (0 Bft) 100,00 %
11.11.2015 21:41 8,1 C 95 % 1025,1 hPa 0,0 l/m 0,0 km/h (0 Bft) S-SO 152 0 min 0,000 mm 0,0 UV-I 0 W/m 7,3 C 8,1 C 0,0 km/h (0 Bft) 100,00 %
11.11.2015 21:42 8,0 C 95 % 1025,1 hPa 0,0 l/m 0,0 km/h (0 Bft) S-SO 151 0 min 0,000 mm 0,0 UV-I 0 W/m 7,2 C 8,0 C 0,0 km/h (0 Bft) 100,00 %
11.11.2015 21:43 8,0 C 96 % 1025,1 hPa 0,0 l/m 0,0 km/h (0 Bft) S-SO 151 0 min 0,000 mm 0,0 UV-I 0 W/m 7,4 C 8,0 C 0,0 km/h (0 Bft) 100,00 %
11.11.2015 21:44 7,9 C 96 % 1025,1 hPa 0,0 l/m 0,2 km/h (0 Bft) S-SO 151 0 min 0,000 mm 0,0 UV-I 0 W/m 7,3 C 7,9 C 1,6 km/h (1 Bft) 100,00 %
11.11.2015 21:45 7,9 C 96 % 1025,1 hPa 0,0 l/m 0,7 km/h (0 Bft) S-SO 152 0 min 0,000 mm 0,0 UV-I 0 W/m 7,3 C 7,9 C 1,6 km/h (1 Bft) 100,00 %
11.11.2015 21:46 7,9 C 96 % 1025,2 hPa 0,0 l/m 1,2 km/h (1 Bft) S-SO 151 0 min 0,000 mm 0,0 UV-I 0 W/m 7,3 C 7,9 C 1,6 km/h (1 Bft) 100,00 %
11.11.2015 21:47 7,9 C 96 % 1025,2 hPa 0,0 l/m 0,3 km/h (0 Bft) S-SO 151 0 min 0,000 mm 0,0 UV-I 0 W/m 7,3 C 7,9 C 1,6 km/h (1 Bft) 100,00 %
11.11.2015 21:48 7,9 C 96 % 1025,2 hPa 0,0 l/m 0,1 km/h (0 Bft) S-SO 152 0 min 0,000 mm 0,0 UV-I 0 W/m 7,3 C 7,9 C 1,6 km/h (1 Bft) 100,00 %
11.11.2015 21:49 7,9 C 96 % 1025,2 hPa 0,0 l/m 0,0 km/h (0 Bft) S-SO 151 0 min 0,000 mm 0,0 UV-I 0 W/m 7,3 C 7,9 C 0,0 km/h (0 Bft) 96,15 %
11.11.2015 21:50 7,9 C 96 % 1025,2 hPa 0,0 l/m 0,8 km/h (0 Bft) S-SO 152 0 min 0,000 mm 0,0 UV-I 0 W/m 7,3 C 7,9 C 1,6 km/h (1 Bft) 95,83 %
11.11.2015 21:51 7,9 C 96 % 1025,2 hPa 0,0 l/m 0,6 km/h (0 Bft) S-SO 152 0 min 0,000 mm 0,0 UV-I 0 W/m 7,3 C 7,9 C 1,6 km/h (1 Bft) 100,00 %
11.11.2015 21:52 7,9 C 96 % 1025,2 hPa 0,0 l/m 0,2 km/h (0 Bft) S-SO 151 0 min 0,000 mm 0,0 UV-I 0 W/m 7,3 C 7,9 C 1,6 km/h (1 Bft) 100,00 %
11.11.2015 21:53 7,9 C 96 % 1025,2 hPa 0,0 l/m 0,7 km/h (0 Bft) S-SO 152 0 min 0,000 mm 0,0 UV-I 0 W/m 7,3 C 7,9 C 1,6 km/h (1 Bft) 100,00 %
11.11.2015 21:54 7,9 C 96 % 1025,2 hPa 0,0 l/m 0,4 km/h (0 Bft) S 169 0 min 0,000 mm 0,0 UV-I 0 W/m 7,3 C 7,9 C 1,6 km/h (1 Bft) 95,83 %
11.11.2015 21:55 8,0 C 96 % 1025,2 hPa 0,0 l/m 0,0 km/h (0 Bft) S 169 0 min 0,000 mm 0,0 UV-I 0 W/m 7,4 C 8,0 C 0,0 km/h (0 Bft) 100,00 %
11.11.2015 21:56 7,9 C 96 % 1025,2 hPa 0,0 l/m 0,0 km/h (0 Bft) S 169 0 min 0,000 mm 0,0 UV-I 0 W/m 7,3 C 7,9 C 0,0 km/h (0 Bft) 100,00 %
11.11.2015 21:57 7,9 C 96 % 1025,2 hPa 0,0 l/m 0,0 km/h (0 Bft) S 169 0 min 0,000 mm 0,0 UV-I 0 W/m 7,3 C 7,9 C 0,0 km/h (0 Bft) 100,00 %
11.11.2015 21:58 7,9 C 96 % 1025,2 hPa 0,0 l/m 0,1 km/h (0 Bft) S 169 0 min 0,000 mm 0,0 UV-I 0 W/m 7,3 C 7,9 C 1,6 km/h (1 Bft) 100,00 %
11.11.2015 21:59 7,9 C 96 % 1025,2 hPa 0,0 l/m 0,0 km/h (0 Bft) S 169 0 min 0,000 mm 0,0 UV-I 0 W/m 7,3 C 7,9 C 0,0 km/h (0 Bft) 100,00 %
11.11.2015 22:00 7,9 C 96 % 1025,2 hPa 0,0 l/m 0,0 km/h (0 Bft) S 169 0 min 0,000 mm 0,0 UV-I 0 W/m 7,3 C 7,9 C 0,0 km/h (0 Bft) 95,83 %
11.11.2015 22:01 7,9 C 96 % 1025,2 hPa 0,0 l/m 0,9 km/h (0 Bft) S 169 0 min 0,000 mm 0,0 UV-I 0 W/m 7,3 C 7,9 C 1,6 km/h (1 Bft) 100,00 %
11.11.2015 22:02 7,9 C 96 % 1025,2 hPa 0,0 l/m 1,1 km/h (1 Bft) S 169 0 min 0,000 mm 0,0 UV-I 0 W/m 7,3 C 7,9 C 1,6 km/h (1 Bft) 100,00 %
11.11.2015 22:03 7,9 C 96 % 1025,1 hPa 0,0 l/m 1,7 km/h (1 Bft) S 169 0 min 0,000 mm 0,0 UV-I 0 W/m 7,3 C 7,9 C 3,2 km/h (1 Bft) 100,00 %
11.11.2015 22:04 8,0 C 96 % 1025,1 hPa 0,0 l/m 1,5 km/h (1 Bft) S 169 0 min 0,000 mm 0,0 UV-I 0 W/m 7,4 C 8,0 C 1,6 km/h (1 Bft) 100,00 %
11.11.2015 22:05 8,0 C 96 % 1025,1 hPa 0,0 l/m 1,5 km/h (1 Bft) S 169 0 min 0,000 mm 0,0 UV-I 0 W/m 7,4 C 8,0 C 1,6 km/h (1 Bft) 100,00 %
11.11.2015 22:06 8,0 C 96 % 1025,1 hPa 0,0 l/m 1,1 km/h (1 Bft) S 169 0 min 0,000 mm 0,0 UV-I 0 W/m 7,4 C 8,0 C 1,6 km/h (1 Bft) 100,00 %
11.11.2015 22:07 8,0 C 96 % 1025,0 hPa 0,0 l/m 1,5 km/h (1 Bft) S 169 0 min 0,000 mm 0,0 UV-I 0 W/m 7,4 C 8,0 C 1,6 km/h (1 Bft) 100,00 %
11.11.2015 22:08 8,0 C 95 % 1025,0 hPa 0,0 l/m 1,1 km/h (1 Bft) S 169 0 min 0,000 mm 0,0 UV-I 0 W/m 7,2 C 8,0 C 1,6 km/h (1 Bft) 100,00 %
11.11.2015 22:09 8,0 C 95 % 1025,0 hPa 0,0 l/m 1,7 km/h (1 Bft) S 169 0 min 0,000 mm 0,0 UV-I 0 W/m 7,2 C 8,0 C 3,2 km/h (1 Bft) 100,00 %
11.11.2015 22:10 8,0 C 95 % 1025,0 hPa 0,0 l/m 1,4 km/h (1 Bft) S 169 0 min 0,000 mm 0,0 UV-I 0 W/m 7,2 C 8,0 C 3,2 km/h (1 Bft) 100,00 %
11.11.2015 22:11 8,1 C 95 % 1025,0 hPa 0,0 l/m 0,7 km/h (0 Bft) S 169 0 min 0,000 mm 0,0 UV-I 0 W/m 7,3 C 8,1 C 1,6 km/h (1 Bft) 100,00 %
11.11.2015 22:12 8,1 C 95 % 1025,0 hPa 0,0 l/m 1,5 km/h (1 Bft) S 169 0 min 0,000 mm 0,0 UV-I 0 W/m 7,3 C 8,1 C 1,6 km/h (1 Bft) 95,65 %
11.11.2015 22:13 8,1 C 96 % 1025,0 hPa 0,0 l/m 1,0 km/h (0 Bft) S 169 0 min 0,000 mm 0,0 UV-I 0 W/m 7,5 C 8,1 C 1,6 km/h (1 Bft) 100,00 %
11.11.2015 22:14 8,2 C 95 % 1025,0 hPa 0,0 l/m 1,4 km/h (1 Bft) S 169 0 min 0,000 mm 0,0 UV-I 0 W/m 7,4 C 8,2 C 3,2 km/h (1 Bft) 100,00 %
11.11.2015 22:15 8,2 C 95 % 1025,0 hPa 0,0 l/m 1,1 km/h (1 Bft) S 174 0 min 0,000 mm 0,0 UV-I 0 W/m 7,4 C 8,2 C 1,6 km/h (1 Bft) 100,00 %
11.11.2015 22:16 8,2 C 95 % 1025,0 hPa 0,0 l/m 2,1 km/h (1 Bft) SW 223 0 min 0,000 mm 0,0 UV-I 0 W/m 7,4 C 8,2 C 3,2 km/h (1 Bft) 96,55 %
11.11.2015 22:17 8,2 C 95 % 1025,0 hPa 0,0 l/m 2,4 km/h (1 Bft) SW 223 0 min 0,000 mm 0,0 UV-I 0 W/m 7,4 C 8,2 C 3,2 km/h (1 Bft) 100,00 %
11.11.2015 22:18 8,2 C 95 % 1025,0 hPa 0,0 l/m 1,9 km/h (1 Bft) S-SW 209 0 min 0,000 mm 0,0 UV-I 0 W/m 7,4 C 8,2 C 3,2 km/h (1 Bft) 100,00 %
11.11.2015 22:19 8,2 C 94 % 1025,0 hPa 0,0 l/m 1,7 km/h (1 Bft) S-SW 209 0 min 0,000 mm 0,0 UV-I 0 W/m 7,3 C 8,2 C 3,2 km/h (1 Bft) 100,00 %
11.11.2015 22:20 8,2 C 94 % 1025,0 hPa 0,0 l/m 1,5 km/h (1 Bft) S-SW 209 0 min 0,000 mm 0,0 UV-I 0 W/m 7,3 C 8,2 C 3,2 km/h (1 Bft) 100,00 %
11.11.2015 22:21 8,1 C 94 % 1025,0 hPa 0,0 l/m 1,9 km/h (1 Bft) S-SW 207 0 min 0,000 mm 0,0 UV-I 0 W/m 7,2 C 8,1 C 3,2 km/h (1 Bft) 100,00 %
11.11.2015 22:22 8,1 C 93 % 1025,0 hPa 0,0 l/m 1,5 km/h (1 Bft) S-SW 192 0 min 0,000 mm 0,0 UV-I 0 W/m 7,0 C 8,1 C 3,2 km/h (1 Bft) 100,00 %
11.11.2015 22:23 8,1 C 93 % 1025,0 hPa 0,0 l/m 1,9 km/h (1 Bft) S-SW 196 0 min 0,000 mm 0,0 UV-I 0 W/m 7,0 C 8,1 C 3,2 km/h (1 Bft) 100,00 %
11.11.2015 22:24 8,1 C 93 % 1025,1 hPa 0,0 l/m 2,3 km/h (1 Bft) S-SW 196 0 min 0,000 mm 0,0 UV-I 0 W/m 7,0 C 8,1 C 3,2 km/h (1 Bft) 96,30 %
11.11.2015 22:25 8,0 C 93 % 1025,1 hPa 0,0 l/m 2,0 km/h (1 Bft) S-SW 196 0 min 0,000 mm 0,0 UV-I 0 W/m 6,9 C 8,0 C 3,2 km/h (1 Bft) 95,65 %
11.11.2015 22:26 8,0 C 93 % 1025,1 hPa 0,0 l/m 2,2 km/h (1 Bft) S-SW 196 0 min 0,000 mm 0,0 UV-I 0 W/m 6,9 C 8,0 C 3,2 km/h (1 Bft) 100,00 %
11.11.2015 22:27 8,0 C 93 % 1025,1 hPa 0,0 l/m 1,9 km/h (1 Bft) S-SW 196 0 min 0,000 mm 0,0 UV-I 0 W/m 6,9 C 8,0 C 3,2 km/h (1 Bft) 100,00 %
11.11.2015 22:28 8,0 C 93 % 1025,1 hPa 0,0 l/m 1,1 km/h (1 Bft) S-SW 196 0 min 0,000 mm 0,0 UV-I 0 W/m 6,9 C 8,0 C 1,6 km/h (1 Bft) 100,00 %
11.11.2015 22:29 7,9 C 93 % 1025,0 hPa 0,0 l/m 1,8 km/h (1 Bft) S-SW 196 0 min 0,000 mm 0,0 UV-I 0 W/m 6,8 C 7,9 C 3,2 km/h (1 Bft) 100,00 %
11.11.2015 22:30 7,9 C 93 % 1025,0 hPa 0,0 l/m 1,9 km/h (1 Bft) S-SW 196 0 min 0,000 mm 0,0 UV-I 0 W/m 6,8 C 7,9 C 3,2 km/h (1 Bft) 100,00 %
11.11.2015 22:31 7,9 C 93 % 1025,0 hPa 0,0 l/m 1,9 km/h (1 Bft) S-SW 196 0 min 0,000 mm 0,0 UV-I 0 W/m 6,8 C 7,9 C 3,2 km/h (1 Bft) 95,65 %
11.11.2015 22:32 7,9 C 93 % 1025,1 hPa 0,0 l/m 1,5 km/h (1 Bft) S-SW 196 0 min 0,000 mm 0,0 UV-I 0 W/m 6,8 C 7,9 C 3,2 km/h (1 Bft) 100,00 %
11.11.2015 22:33 7,9 C 93 % 1025,1 hPa 0,0 l/m 1,5 km/h (1 Bft) S-SW 196 0 min 0,000 mm 0,0 UV-I 0 W/m 6,8 C 7,9 C 3,2 km/h (1 Bft) 100,00 %
11.11.2015 22:34 7,9 C 93 % 1025,1 hPa 0,0 l/m 0,7 km/h (0 Bft) S-SW 196 0 min 0,000 mm 0,0 UV-I 0 W/m 6,8 C 7,9 C 1,6 km/h (1 Bft) 100,00 %
11.11.2015 22:35 7,8 C 92 % 1025,1 hPa 0,0 l/m 0,6 km/h (0 Bft) S-SW 196 0 min 0,000 mm 0,0 UV-I 0 W/m 6,6 C 7,8 C 1,6 km/h (1 Bft) 96,15 %
11.11.2015 22:36 7,8 C 92 % 1025,1 hPa 0,0 l/m 1,6 km/h (1 Bft) S-SW 196 0 min 0,000 mm 0,0 UV-I 0 W/m 6,6 C 7,8 C 1,6 km/h (1 Bft) 100,00 %
11.11.2015 22:37 7,7 C 93 % 1025,1 hPa 0,0 l/m 0,4 km/h (0 Bft) S-SW 196 0 min 0,000 mm 0,0 UV-I 0 W/m 6,6 C 7,7 C 1,6 km/h (1 Bft) 100,00 %
11.11.2015 22:38 7,6 C 92 % 1025,2 hPa 0,0 l/m 0,9 km/h (0 Bft) S-SW 196 0 min 0,000 mm 0,0 UV-I 0 W/m 6,4 C 7,6 C 1,6 km/h (1 Bft) 100,00 %
11.11.2015 22:39 7,5 C 92 % 1025,1 hPa 0,0 l/m 1,1 km/h (1 Bft) S-SW 196 0 min 0,000 mm 0,0 UV-I 0 W/m 6,3 C 7,5 C 1,6 km/h (1 Bft) 100,00 %
11.11.2015 22:40 7,4 C 93 % 1025,1 hPa 0,0 l/m 1,1 km/h (1 Bft) S-SW 196 0 min 0,000 mm 0,0 UV-I 0 W/m 6,3 C 7,4 C 1,6 km/h (1 Bft) 100,00 %
11.11.2015 22:41 7,3 C 93 % 1025,1 hPa 0,0 l/m 1,7 km/h (1 Bft) S-SW 196 0 min 0,000 mm 0,0 UV-I 0 W/m 6,2 C 7,3 C 3,2 km/h (1 Bft) 100,00 %
11.11.2015 22:42 7,3 C 94 % 1025,1 hPa 0,0 l/m 1,4 km/h (1 Bft) S-SW 196 0 min 0,000 mm 0,0 UV-I 0 W/m 6,4 C 7,3 C 1,6 km/h (1 Bft) 100,00 %
11.11.2015 22:43 7,3 C 94 % 1025,2 hPa 0,0 l/m 2,1 km/h (1 Bft) S-SW 196 0 min 0,000 mm 0,0 UV-I 0 W/m 6,4 C 7,3 C 3,2 km/h (1 Bft) 100,00 %
11.11.2015 22:44 7,3 C 94 % 1025,1 hPa 0,0 l/m 2,3 km/h (1 Bft) S-SW 196 0 min 0,000 mm 0,0 UV-I 0 W/m 6,4 C 7,3 C 3,2 km/h (1 Bft) 100,00 %
11.11.2015 22:45 7,4 C 94 % 1025,2 hPa 0,0 l/m 2,1 km/h (1 Bft) S-SW 196 0 min 0,000 mm 0,0 UV-I 0 W/m 6,5 C 7,4 C 3,2 km/h (1 Bft) 100,00 %
11.11.2015 22:46 7,4 C 94 % 1025,2 hPa 0,0 l/m 1,9 km/h (1 Bft) S-SW 196 0 min 0,000 mm 0,0 UV-I 0 W/m 6,5 C 7,4 C 3,2 km/h (1 Bft) 100,00 %
11.11.2015 22:47 7,5 C 94 % 1025,2 hPa 0,0 l/m 2,0 km/h (1 Bft) S-SW 196 0 min 0,000 mm 0,0 UV-I 0 W/m 6,6 C 7,5 C 3,2 km/h (1 Bft) 100,00 %
11.11.2015 22:48 7,5 C 94 % 1025,2 hPa 0,0 l/m 2,6 km/h (1 Bft) S-SW 196 0 min 0,000 mm 0,0 UV-I 0 W/m 6,6 C 7,5 C 3,2 km/h (1 Bft) 100,00 %
11.11.2015 22:49 7,6 C 94 % 1025,2 hPa 0,0 l/m 2,9 km/h (1 Bft) S-SW 196 0 min 0,000 mm 0,0 UV-I 0 W/m 6,7 C 7,6 C 3,2 km/h (1 Bft) 100,00 %
11.11.2015 22:50 7,7 C 94 % 1025,2 hPa 0,0 l/m 1,4 km/h (1 Bft) S-SW 196 0 min 0,000 mm 0,0 UV-I 0 W/m 6,8 C 7,7 C 1,6 km/h (1 Bft) 96,15 %
11.11.2015 22:51 7,7 C 94 % 1025,2 hPa 0,0 l/m 1,3 km/h (1 Bft) S-SW 196 0 min 0,000 mm 0,0 UV-I 0 W/m 6,8 C 7,7 C 1,6 km/h (1 Bft) 95,83 %
11.11.2015 22:52 7,7 C 93 % 1025,2 hPa 0,0 l/m 1,6 km/h (1 Bft) S-SW 196 0 min 0,000 mm 0,0 UV-I 0 W/m 6,6 C 7,7 C 3,2 km/h (1 Bft) 100,00 %
11.11.2015 22:53 7,7 C 93 % 1025,2 hPa 0,0 l/m 1,1 km/h (1 Bft) S-SW 196 0 min 0,000 mm 0,0 UV-I 0 W/m 6,6 C 7,7 C 1,6 km/h (1 Bft) 100,00 %
11.11.2015 22:54 7,7 C 93 % 1025,2 hPa 0,0 l/m 0,8 km/h (0 Bft) S-SW 196 0 min 0,000 mm 0,0 UV-I 0 W/m 6,6 C 7,7 C 1,6 km/h (1 Bft) 100,00 %
11.11.2015 22:55 7,6 C 93 % 1025,2 hPa 0,0 l/m 1,1 km/h (1 Bft) S-SW 196 0 min 0,000 mm 0,0 UV-I 0 W/m 6,5 C 7,6 C 1,6 km/h (1 Bft) 100,00 %
11.11.2015 22:56 7,6 C 93 % 1025,2 hPa 0,0 l/m 0,4 km/h (0 Bft) S-SW 196 0 min 0,000 mm 0,0 UV-I 0 W/m 6,5 C 7,6 C 1,6 km/h (1 Bft) 100,00 %
11.11.2015 22:57 7,6 C 93 % 1025,2 hPa 0,0 l/m 0,2 km/h (0 Bft) S-SW 196 0 min 0,000 mm 0,0 UV-I 0 W/m 6,5 C 7,6 C 1,6 km/h (1 Bft) 100,00 %
11.11.2015 22:58 7,5 C 92 % 1025,1 hPa 0,0 l/m 0,0 km/h (0 Bft) S-SW 196 0 min 0,000 mm 0,0 UV-I 0 W/m 6,3 C 7,5 C 0,0 km/h (0 Bft) 100,00 %
11.11.2015 22:59 7,4 C 93 % 1025,2 hPa 0,0 l/m 0,1 km/h (0 Bft) S-SW 196 0 min 0,000 mm 0,0 UV-I 0 W/m 6,3 C 7,4 C 1,6 km/h (1 Bft) 91,67 %
11.11.2015 23:00 7,4 C 93 % 1025,2 hPa 0,0 l/m 0,3 km/h (0 Bft) S-SW 196 0 min 0,000 mm 0,0 UV-I 0 W/m 6,3 C 7,4 C 1,6 km/h (1 Bft) 100,00 %
11.11.2015 23:01 7,4 C 93 % 1025,2 hPa 0,0 l/m 0,1 km/h (0 Bft) S-SW 196 0 min 0,000 mm 0,0 UV-I 0 W/m 6,3 C 7,4 C 1,6 km/h (1 Bft) 100,00 %
11.11.2015 23:02 7,4 C 93 % 1025,2 hPa 0,0 l/m 0,0 km/h (0 Bft) S-SW 196 0 min 0,000 mm 0,0 UV-I 0 W/m 6,3 C 7,4 C 0,0 km/h (0 Bft) 100,00 %
11.11.2015 23:03 7,4 C 94 % 1025,2 hPa 0,0 l/m 0,0 km/h (0 Bft) S-SW 196 0 min 0,000 mm 0,0 UV-I 0 W/m 6,5 C 7,4 C 0,0 km/h (0 Bft) 100,00 %
11.11.2015 23:04 7,4 C 94 % 1025,2 hPa 0,0 l/m 0,6 km/h (0 Bft) S-SW 196 0 min 0,000 mm 0,0 UV-I 0 W/m 6,5 C 7,4 C 1,6 km/h (1 Bft) 100,00 %
11.11.2015 23:05 7,4 C 94 % 1025,2 hPa 0,0 l/m 0,3 km/h (0 Bft) S-SW 196 0 min 0,000 mm 0,0 UV-I 0 W/m 6,5 C 7,4 C 1,6 km/h (1 Bft) 96,00 %
11.11.2015 23:06 7,4 C 94 % 1025,2 hPa 0,0 l/m 0,0 km/h (0 Bft) S-SW 196 0 min 0,000 mm 0,0 UV-I 0 W/m 6,5 C 7,4 C 0,0 km/h (0 Bft) 91,67 %
11.11.2015 23:07 7,4 C 94 % 1025,2 hPa 0,0 l/m 0,0 km/h (0 Bft) S-SW 196 0 min 0,000 mm 0,0 UV-I 0 W/m 6,5 C 7,4 C 0,0 km/h (0 Bft) 100,00 %
11.11.2015 23:08 7,4 C 94 % 1025,2 hPa 0,0 l/m 0,0 km/h (0 Bft) S-SW 196 0 min 0,000 mm 0,0 UV-I 0 W/m 6,5 C 7,4 C 0,0 km/h (0 Bft) 95,83 %
11.11.2015 23:09 7,3 C 93 % 1025,2 hPa 0,0 l/m 0,1 km/h (0 Bft) S-SW 196 0 min 0,000 mm 0,0 UV-I 0 W/m 6,2 C 7,3 C 1,6 km/h (1 Bft) 100,00 %
11.11.2015 23:10 7,3 C 93 % 1025,2 hPa 0,0 l/m 0,2 km/h (0 Bft) S-SW 196 0 min 0,000 mm 0,0 UV-I 0 W/m 6,2 C 7,3 C 1,6 km/h (1 Bft) 100,00 %
11.11.2015 23:11 7,3 C 95 % 1025,1 hPa 0,0 l/m 1,0 km/h (0 Bft) S-SW 196 0 min 0,000 mm 0,0 UV-I 0 W/m 6,6 C 7,3 C 1,6 km/h (1 Bft) 100,00 %
11.11.2015 23:12 7,3 C 95 % 1025,1 hPa 0,0 l/m 1,3 km/h (1 Bft) S-SW 196 0 min 0,000 mm 0,0 UV-I 0 W/m 6,6 C 7,3 C 1,6 km/h (1 Bft) 100,00 %
11.11.2015 23:13 7,4 C 95 % 1025,1 hPa 0,0 l/m 0,6 km/h (0 Bft) S-SW 196 0 min 0,000 mm 0,0 UV-I 0 W/m 6,7 C 7,4 C 1,6 km/h (1 Bft) 100,00 %
11.11.2015 23:14 7,4 C 94 % 1025,1 hPa 0,0 l/m 0,7 km/h (0 Bft) S-SW 196 0 min 0,000 mm 0,0 UV-I 0 W/m 6,5 C 7,4 C 1,6 km/h (1 Bft) 100,00 %
11.11.2015 23:15 7,4 C 94 % 1025,1 hPa 0,0 l/m 0,1 km/h (0 Bft) S-SW 196 0 min 0,000 mm 0,0 UV-I 0 W/m 6,5 C 7,4 C 1,6 km/h (1 Bft) 100,00 %
11.11.2015 23:16 7,4 C 94 % 1025,0 hPa 0,0 l/m 0,3 km/h (0 Bft) S-SW 196 0 min 0,000 mm 0,0 UV-I 0 W/m 6,5 C 7,4 C 1,6 km/h (1 Bft) 100,00 %
11.11.2015 23:17 7,4 C 94 % 1025,1 hPa 0,0 l/m 0,2 km/h (0 Bft) S-SW 196 0 min 0,000 mm 0,0 UV-I 0 W/m 6,5 C 7,4 C 1,6 km/h (1 Bft) 100,00 %
11.11.2015 23:18 7,4 C 94 % 1025,0 hPa 0,0 l/m 0,0 km/h (0 Bft) S-SW 196 0 min 0,000 mm 0,0 UV-I 0 W/m 6,5 C 7,4 C 0,0 km/h (0 Bft) 100,00 %
11.11.2015 23:19 7,4 C 94 % 1025,0 hPa 0,0 l/m 0,0 km/h (0 Bft) S-SW 196 0 min 0,000 mm 0,0 UV-I 0 W/m 6,5 C 7,4 C 0,0 km/h (0 Bft) 100,00 %
11.11.2015 23:20 7,4 C 94 % 1025,1 hPa 0,0 l/m 0,0 km/h (0 Bft) S-SW 196 0 min 0,000 mm 0,0 UV-I 0 W/m 6,5 C 7,4 C 0,0 km/h (0 Bft) 95,83 %
11.11.2015 23:21 7,4 C 94 % 1025,0 hPa 0,0 l/m 0,1 km/h (0 Bft) S-SW 196 0 min 0,000 mm 0,0 UV-I 0 W/m 6,5 C 7,4 C 1,6 km/h (1 Bft) 100,00 %
11.11.2015 23:22 7,4 C 94 % 1025,1 hPa 0,0 l/m 0,2 km/h (0 Bft) S-SW 196 0 min 0,000 mm 0,0 UV-I 0 W/m 6,5 C 7,4 C 1,6 km/h (1 Bft) 100,00 %
11.11.2015 23:23 7,4 C 94 % 1025,1 hPa 0,0 l/m 1,2 km/h (1 Bft) S-SW 196 0 min 0,000 mm 0,0 UV-I 0 W/m 6,5 C 7,4 C 1,6 km/h (1 Bft) 100,00 %
11.11.2015 23:24 7,4 C 94 % 1025,0 hPa 0,0 l/m 0,3 km/h (0 Bft) S-SW 196 0 min 0,000 mm 0,0 UV-I 0 W/m 6,5 C 7,4 C 1,6 km/h (1 Bft) 100,00 %
11.11.2015 23:25 7,4 C 94 % 1025,0 hPa 0,0 l/m 0,1 km/h (0 Bft) S-SW 196 0 min 0,000 mm 0,0 UV-I 0 W/m 6,5 C 7,4 C 1,6 km/h (1 Bft) 100,00 %
11.11.2015 23:26 7,4 C 94 % 1025,0 hPa 0,0 l/m 0,1 km/h (0 Bft) S-SW 196 0 min 0,000 mm 0,0 UV-I 0 W/m 6,5 C 7,4 C 1,6 km/h (1 Bft) 100,00 %
11.11.2015 23:27 7,4 C 94 % 1025,0 hPa 0,0 l/m 0,2 km/h (0 Bft) S-SW 196 0 min 0,000 mm 0,0 UV-I 0 W/m 6,5 C 7,4 C 1,6 km/h (1 Bft) 100,00 %
11.11.2015 23:28 7,4 C 94 % 1025,0 hPa 0,0 l/m 0,2 km/h (0 Bft) S-SW 196 0 min 0,000 mm 0,0 UV-I 0 W/m 6,5 C 7,4 C 1,6 km/h (1 Bft) 100,00 %
11.11.2015 23:29 7,4 C 94 % 1025,1 hPa 0,0 l/m 1,4 km/h (1 Bft) S-SW 196 0 min 0,000 mm 0,0 UV-I 0 W/m 6,5 C 7,4 C 3,2 km/h (1 Bft) 100,00 %
11.11.2015 23:30 7,4 C 94 % 1025,0 hPa 0,0 l/m 1,9 km/h (1 Bft) S-SW 196 0 min 0,000 mm 0,0 UV-I 0 W/m 6,5 C 7,4 C 3,2 km/h (1 Bft) 100,00 %
11.11.2015 23:31 7,4 C 94 % 1025,0 hPa 0,0 l/m 1,9 km/h (1 Bft) S 191 0 min 0,000 mm 0,0 UV-I 0 W/m 6,5 C 7,4 C 3,2 km/h (1 Bft) 95,83 %
11.11.2015 23:32 7,5 C 94 % 1025,1 hPa 0,0 l/m 2,2 km/h (1 Bft) S 189 0 min 0,000 mm 0,0 UV-I 0 W/m 6,6 C 7,5 C 3,2 km/h (1 Bft) 100,00 %
11.11.2015 23:33 7,6 C 94 % 1025,0 hPa 0,0 l/m 2,7 km/h (1 Bft) S-SW 202 0 min 0,000 mm 0,0 UV-I 0 W/m 6,7 C 7,6 C 4,8 km/h (1 Bft) 100,00 %
11.11.2015 23:34 7,6 C 94 % 1025,0 hPa 0,0 l/m 2,3 km/h (1 Bft) S-SW 202 0 min 0,000 mm 0,0 UV-I 0 W/m 6,7 C 7,6 C 3,2 km/h (1 Bft) 95,65 %
11.11.2015 23:35 7,6 C 93 % 1025,0 hPa 0,0 l/m 1,9 km/h (1 Bft) S-SW 202 0 min 0,000 mm 0,0 UV-I 0 W/m 6,5 C 7,6 C 3,2 km/h (1 Bft) 95,83 %
11.11.2015 23:36 7,6 C 93 % 1025,0 hPa 0,0 l/m 2,0 km/h (1 Bft) S-SW 202 0 min 0,000 mm 0,0 UV-I 0 W/m 6,5 C 7,6 C 3,2 km/h (1 Bft) 100,00 %
11.11.2015 23:37 7,6 C 93 % 1025,0 hPa 0,0 l/m 2,2 km/h (1 Bft) S-SW 201 0 min 0,000 mm 0,0 UV-I 0 W/m 6,5 C 7,6 C 3,2 km/h (1 Bft) 100,00 %
11.11.2015 23:38 7,6 C 93 % 1025,1 hPa 0,0 l/m 2,4 km/h (1 Bft) S-SW 201 0 min 0,000 mm 0,0 UV-I 0 W/m 6,5 C 7,6 C 3,2 km/h (1 Bft) 100,00 %
11.11.2015 23:39 7,7 C 93 % 1025,0 hPa 0,0 l/m 2,1 km/h (1 Bft) S-SW 201 0 min 0,000 mm 0,0 UV-I 0 W/m 6,6 C 7,7 C 3,2 km/h (1 Bft) 100,00 %
11.11.2015 23:40 7,6 C 93 % 1025,0 hPa 0,0 l/m 2,2 km/h (1 Bft) S-SW 201 0 min 0,000 mm 0,0 UV-I 0 W/m 6,5 C 7,6 C 3,2 km/h (1 Bft) 100,00 %
11.11.2015 23:41 7,6 C 93 % 1025,1 hPa 0,0 l/m 2,5 km/h (1 Bft) S-SW 201 0 min 0,000 mm 0,0 UV-I 0 W/m 6,5 C 7,6 C 3,2 km/h (1 Bft) 100,00 %
11.11.2015 23:42 7,6 C 93 % 1025,1 hPa 0,0 l/m 2,3 km/h (1 Bft) S-SW 201 0 min 0,000 mm 0,0 UV-I 0 W/m 6,5 C 7,6 C 3,2 km/h (1 Bft) 100,00 %
11.11.2015 23:43 7,6 C 93 % 1025,0 hPa 0,0 l/m 2,8 km/h (1 Bft) S-SW 201 0 min 0,000 mm 0,0 UV-I 0 W/m 6,5 C 7,6 C 3,2 km/h (1 Bft) 96,43 %
11.11.2015 23:44 7,6 C 93 % 1025,0 hPa 0,0 l/m 2,0 km/h (1 Bft) S-SW 201 0 min 0,000 mm 0,0 UV-I 0 W/m 6,5 C 7,6 C 3,2 km/h (1 Bft) 100,00 %
11.11.2015 23:45 7,6 C 93 % 1025,0 hPa 0,0 l/m 2,5 km/h (1 Bft) S-SW 201 0 min 0,000 mm 0,0 UV-I 0 W/m 6,5 C 7,6 C 3,2 km/h (1 Bft) 100,00 %
11.11.2015 23:46 7,6 C 93 % 1025,0 hPa 0,0 l/m 2,2 km/h (1 Bft) S-SW 204 0 min 0,000 mm 0,0 UV-I 0 W/m 6,5 C 7,6 C 3,2 km/h (1 Bft) 100,00 %
11.11.2015 23:47 7,6 C 93 % 1025,0 hPa 0,0 l/m 1,9 km/h (1 Bft) S-SW 205 0 min 0,000 mm 0,0 UV-I 0 W/m 6,5 C 7,6 C 3,2 km/h (1 Bft) 100,00 %
11.11.2015 23:48 7,6 C 93 % 1025,0 hPa 0,0 l/m 2,0 km/h (1 Bft) S-SW 205 0 min 0,000 mm 0,0 UV-I 0 W/m 6,5 C 7,6 C 3,2 km/h (1 Bft) 100,00 %
11.11.2015 23:49 7,7 C 93 % 1025,0 hPa 0,0 l/m 1,9 km/h (1 Bft) S-SW 205 0 min 0,000 mm 0,0 UV-I 0 W/m 6,6 C 7,7 C 3,2 km/h (1 Bft) 100,00 %
11.11.2015 23:50 7,6 C 93 % 1025,1 hPa 0,0 l/m 1,5 km/h (1 Bft) S-SW 205 0 min 0,000 mm 0,0 UV-I 0 W/m 6,5 C 7,6 C 3,2 km/h (1 Bft) 100,00 %
11.11.2015 23:51 7,6 C 92 % 1025,1 hPa 0,0 l/m 2,2 km/h (1 Bft) S-SW 205 0 min 0,000 mm 0,0 UV-I 0 W/m 6,4 C 7,6 C 3,2 km/h (1 Bft) 96,15 %
11.11.2015 23:52 7,6 C 92 % 1025,0 hPa 0,0 l/m 2,1 km/h (1 Bft) S-SW 205 0 min 0,000 mm 0,0 UV-I 0 W/m 6,4 C 7,6 C 3,2 km/h (1 Bft) 95,83 %
11.11.2015 23:53 7,6 C 92 % 1025,0 hPa 0,0 l/m 2,5 km/h (1 Bft) S-SW 198 0 min 0,000 mm 0,0 UV-I 0 W/m 6,4 C 7,6 C 3,2 km/h (1 Bft) 100,00 %
11.11.2015 23:54 7,5 C 92 % 1025,0 hPa 0,0 l/m 2,5 km/h (1 Bft) S 179 0 min 0,000 mm 0,0 UV-I 0 W/m 6,3 C 7,5 C 3,2 km/h (1 Bft) 100,00 %
11.11.2015 23:55 7,5 C 92 % 1025,0 hPa 0,0 l/m 2,3 km/h (1 Bft) S 183 0 min 0,000 mm 0,0 UV-I 0 W/m 6,3 C 7,5 C 3,2 km/h (1 Bft) 100,00 %
11.11.2015 23:56 7,4 C 92 % 1025,0 hPa 0,0 l/m 2,6 km/h (1 Bft) S 188 0 min 0,000 mm 0,0 UV-I 0 W/m 6,2 C 7,4 C 3,2 km/h (1 Bft) 100,00 %
11.11.2015 23:57 7,5 C 93 % 1025,0 hPa 0,0 l/m 3,4 km/h (1 Bft) S 178 0 min 0,000 mm 0,0 UV-I 0 W/m 6,4 C 7,5 C 6,4 km/h (2 Bft) 100,00 %
11.11.2015 23:58 7,5 C 93 % 1024,9 hPa 0,0 l/m 3,7 km/h (1 Bft) S-SW 196 0 min 0,000 mm 0,0 UV-I 0 W/m 6,4 C 7,5 C 6,4 km/h (2 Bft) 100,00 %
11.11.2015 23:59 7,6 C 92 % 1024,9 hPa 0,0 l/m 2,6 km/h (1 Bft) S 184 0 min 0,000 mm 0,0 UV-I 0 W/m 6,4 C 7,6 C 4,8 km/h (1 Bft) 100,00 %
_ Min-Zeit 22:41 12:30 01:00 - 04:29 - - - - - - 23:56 22:41 04:29 01:58
Minimum _ 7,3 C 59 % 1023,5 hPa - 0,0 km/h (0 Bft) - - - - - - 6,2 C 7,3 C 0,0 km/h (0 Bft) 91,30 %
_ Max-Zeit 12:51 21:25 10:30 00:00 07:40 - - 08:54 13:00 11:33 11:51 14:26 12:51 10:22 00:00
Maximum _ 16,3 C 97 % 1025,6 hPa 0,0 l/m 10,4 km/h
W (2 Bft)
- - 1 min 0,228 mm 1,6 UV-I 587 W/m 11,4 C 16,3 C 16,1 km/h
W (3 Bft)
100,00 %
Durchschnitt _ 12,1 C 79 % 1024,6 hPa #0,0 l/m 2,4 km/h (1 Bft) W - #4:50 h #1,194 mm 1,0 UV-I 189 W/m 8,4 C 12,1 C 4,1 km/h (1 Bft) 99,33 %